[[{"header":{"parameterUnit":"m.s-1","parameterCategory":1,"la1":30.6,"la2":29.2853,"lo1":-89.7004,"lo2":-87.6739,"dx":0.0162,"dy":0.0183,"nx":112,"ny":82,"refTime":"2022-12-20T00:00:00:Z","depth":0,"parameterNumber":2,"parameterNumberName":"U-component_of_WINDS"},"data":[0.0,0.0,0.0,0.0,0.0,0.0,0.0,0.0,0.0,0.0,0.0,0.0,0.0,0.0,0.0,0.0,0.0,0.0,0.0,0.0,0.0,0.0,0.0,0.0,0.0,0.0,0.0,0.0,0.0,0.0,0.0,0.0,0.0,0.0,0.0,0.0,0.0,0.0,0.0,0.0,0.0,0.0,0.0,0.0,0.0,0.0,0.0,0.0,0.0,0.0,0.0,0.0,0.0,0.0,0.0,0.0,0.0,0.0,0.0,0.0,0.0,0.0,0.0,0.0,0.0,0.0,0.0,0.0,0.0,0.0,0.0,0.0,0.0,0.0,0.0,0.0,0.0,0.0,0.0,0.0,0.0,0.0,0.0,0.0,0.0,0.0,0.0,0.0,0.0,0.0,7.0158,7.2359,7.3292,7.2982,7.1007,7.1041,6.7536,5.9097,0.0,0.0,0.0,0.0,0.0,0.0,0.0,0.0,0.0,0.0,0.0,0.0,0.0,0.0,0.0,0.0,0.0,0.0,0.0,0.0,0.0,0.0,0.0,0.0,0.0,0.0,0.0,0.0,0.0,0.0,0.0,0.0,0.0,0.0,0.0,0.0,0.0,0.0,0.0,0.0,0.0,0.0,0.0,0.0,0.0,0.0,0.0,0.0,0.0,0.0,0.0,0.0,0.0,0.0,0.0,0.0,0.0,0.0,0.0,0.0,0.0,0.0,0.0,0.0,0.0,0.0,0.0,0.0,0.0,0.0,0.0,0.0,0.0,0.0,0.0,0.0,0.0,0.0,0.0,0.0,0.0,0.0,0.0,0.0,0.0,0.0,0.0,0.0,0.0,0.0,0.0,0.0,0.0,0.0,0.0,0.0,0.0,0.0,0.0,0.0,0.0,0.0,0.0,0.0,6.8873,7.4268,7.2982,7.235,7.3815,7.1751,6.7463,6.0771,0.0,0.0,0.0,0.0,0.0,0.0,0.0,0.0,0.0,0.0,0.0,0.0,0.0,0.0,0.0,0.0,0.0,0.0,0.0,0.0,0.0,0.0,0.0,0.0,0.0,0.0,0.0,0.0,0.0,0.0,0.0,0.0,0.0,0.0,0.0,0.0,0.0,0.0,0.0,0.0,0.0,0.0,0.0,0.0,0.0,0.0,0.0,0.0,0.0,0.0,0.0,0.0,0.0,0.0,0.0,0.0,0.0,0.0,0.0,0.0,0.0,0.0,0.0,0.0,0.0,0.0,0.0,0.0,0.0,0.0,0.0,0.0,0.0,0.0,0.0,0.0,0.0,0.0,0.0,0.0,0.0,0.0,0.0,0.0,0.0,0.0,0.0,0.0,0.0,0.0,0.0,0.0,0.0,0.0,0.0,0.0,0.0,0.0,0.0,0.0,0.0,0.0,0.0,6.9783,7.2588,7.6326,7.5635,7.4999,7.5202,7.395,6.9783,6.1758,5.9811,0.0,0.0,0.0,0.0,0.0,0.0,0.0,0.0,0.0,0.0,0.0,0.0,0.0,0.0,0.0,0.0,0.0,0.0,0.0,0.0,0.0,0.0,0.0,0.0,0.0,0.0,0.0,0.0,0.0,0.0,0.0,0.0,0.0,0.0,0.0,0.0,0.0,0.0,0.0,0.0,0.0,0.0,0.0,0.0,0.0,0.0,0.0,0.0,0.0,0.0,0.0,0.0,0.0,0.0,0.0,0.0,0.0,0.0,0.0,0.0,0.0,0.0,0.0,0.0,0.0,0.0,0.0,0.0,0.0,0.0,0.0,0.0,0.0,0.0,0.0,0.0,0.0,0.0,0.0,0.0,0.0,0.0,0.0,0.0,0.0,0.0,0.0,0.0,0.0,0.0,0.0,0.0,0.0,0.0,0.0,0.0,0.0,0.0,0.0,0.0,0.0,0.0,7.4184,7.6556,7.8142,7.8077,7.757,7.6589,7.5822,7.1814,6.3221,6.0909,0.0,0.0,0.0,0.0,0.0,0.0,0.0,0.0,0.0,0.0,0.0,0.0,0.0,0.0,0.0,0.0,0.0,0.0,0.0,0.0,0.0,0.0,0.0,0.0,0.0,0.0,0.0,0.0,0.0,0.0,0.0,0.0,0.0,0.0,0.0,0.0,0.0,0.0,0.0,0.0,0.0,0.0,0.0,0.0,0.0,0.0,0.0,0.0,0.0,0.0,0.0,0.0,0.0,0.0,0.0,0.0,0.0,0.0,0.0,0.0,0.0,0.0,0.0,0.0,0.0,0.0,0.0,0.0,0.0,0.0,0.0,0.0,0.0,0.0,0.0,0.0,0.0,0.0,0.0,0.0,0.0,0.0,0.0,0.0,0.0,0.0,0.0,0.0,0.0,0.0,0.0,0.0,0.0,0.0,0.0,0.0,0.0,0.0,0.0,0.0,0.0,0.0,7.4907,7.8077,7.8957,7.8416,7.8213,7.8822,7.6206,7.1981,6.6087,6.2353,0.0,0.0,0.0,0.0,0.0,0.0,0.0,0.0,0.0,0.0,0.0,0.0,0.0,0.0,0.0,0.0,0.0,0.0,0.0,0.0,0.0,0.0,0.0,0.0,0.0,0.0,0.0,0.0,0.0,0.0,0.0,0.0,0.0,0.0,0.0,0.0,0.0,0.0,0.0,0.0,0.0,0.0,0.0,0.0,0.0,0.0,0.0,0.0,0.0,0.0,0.0,0.0,0.0,0.0,0.0,0.0,0.0,0.0,0.0,0.0,0.0,0.0,0.0,0.0,0.0,0.0,0.0,0.0,0.0,0.0,0.0,0.0,0.0,0.0,0.0,0.0,0.0,0.0,0.0,0.0,0.0,0.0,0.0,0.0,0.0,0.0,0.0,0.0,0.0,0.0,0.0,0.0,0.0,0.0,0.0,0.0,0.0,0.0,0.0,0.0,0.0,0.0,7.7464,8.0682,8.2374,8.2306,8.1663,8.0547,7.8922,7.4738,6.7175,0.0,0.0,0.0,0.0,0.0,0.0,0.0,0.0,0.0,0.0,0.0,0.0,0.0,0.0,0.0,0.0,0.0,0.0,0.0,0.0,0.0,0.0,0.0,0.0,0.0,0.0,0.0,0.0,0.0,0.0,0.0,0.0,0.0,0.0,0.0,0.0,0.0,0.0,0.0,0.0,0.0,0.0,0.0,0.0,0.0,0.0,0.0,0.0,0.0,0.0,0.0,0.0,0.0,0.0,0.0,0.0,0.0,0.0,0.0,0.0,0.0,0.0,0.0,0.0,0.0,0.0,0.0,0.0,0.0,0.0,0.0,0.0,0.0,0.0,0.0,0.0,0.0,0.0,0.0,0.0,0.0,0.0,0.0,0.0,0.0,0.0,0.0,0.0,0.0,0.0,0.0,0.0,0.0,0.0,0.0,0.0,0.0,0.0,0.0,0.0,0.0,0.0,7.51,7.9363,8.2577,8.4099,8.4065,8.349,8.2441,8.0488,7.6154,6.8987,0.0,0.0,0.0,0.0,0.0,0.0,0.0,0.0,0.0,0.0,0.0,0.0,0.0,0.0,0.0,0.0,0.0,0.0,0.0,0.0,0.0,0.0,0.0,0.0,0.0,0.0,0.0,0.0,0.0,0.0,0.0,0.0,0.0,0.0,0.0,0.0,0.0,0.0,0.0,0.0,0.0,0.0,0.0,0.0,0.0,0.0,0.0,0.0,0.0,0.0,0.0,0.0,0.0,0.0,0.0,0.0,0.0,0.0,0.0,0.0,0.0,0.0,0.0,0.0,0.0,0.0,0.0,0.0,0.0,0.0,0.0,0.0,0.0,0.0,0.0,0.0,0.0,0.0,0.0,0.0,0.0,0.0,0.0,0.0,0.0,0.0,0.0,0.0,0.0,0.0,0.0,0.0,0.0,0.0,0.0,0.0,0.0,0.0,0.0,0.0,0.0,0.0,7.5439,8.031,8.3524,8.3524,8.2881,8.305,8.4505,8.0351,7.5849,0.0,0.0,0.0,0.0,0.0,0.0,0.0,0.0,0.0,0.0,0.0,0.0,0.0,0.0,0.0,0.0,0.0,0.0,0.0,0.0,0.0,0.0,0.0,0.0,0.0,0.0,0.0,0.0,0.0,0.0,0.0,0.0,0.0,0.0,0.0,0.0,0.0,0.0,0.0,0.0,0.0,0.0,0.0,0.0,0.0,0.0,0.0,0.0,0.0,0.0,0.0,0.0,0.0,0.0,0.0,0.0,0.0,0.0,0.0,0.0,0.0,0.0,0.0,0.0,0.0,0.0,0.0,0.0,0.0,0.0,0.0,0.0,0.0,0.0,0.0,0.0,0.0,0.0,0.0,0.0,0.0,0.0,0.0,0.0,0.0,0.0,0.0,0.0,0.0,0.0,0.0,0.0,0.0,0.0,0.0,0.0,0.0,0.0,0.0,0.0,0.0,0.0,0.0,7.6961,8.234,8.5892,8.5892,8.5723,8.5317,8.4674,8.2212,7.7949,7.1819,0.0,0.0,0.0,0.0,0.0,0.0,0.0,0.0,0.0,0.0,0.0,0.0,0.0,0.0,0.0,0.0,0.0,0.0,0.0,0.0,0.0,0.0,0.0,0.0,0.0,0.0,0.0,0.0,0.0,0.0,0.0,0.0,0.0,0.0,0.0,0.0,0.0,0.0,0.0,0.0,0.0,0.0,0.0,0.0,0.0,0.0,0.0,0.0,0.0,0.0,0.0,0.0,0.0,0.0,0.0,0.0,0.0,0.0,0.0,0.0,0.0,0.0,0.0,0.0,0.0,0.0,0.0,0.0,0.0,0.0,0.0,0.0,0.0,0.0,0.0,0.0,0.0,0.0,0.0,0.0,0.0,0.0,0.0,0.0,0.0,0.0,0.0,0.0,0.0,0.0,0.0,0.0,0.0,0.0,0.0,0.0,0.0,0.0,0.0,0.0,0.0,0.0,7.801,8.3389,8.6907,8.6907,8.6636,8.6196,8.5587,8.3075,7.9294,7.4319,0.0,0.0,0.0,0.0,0.0,0.0,0.0,0.0,0.0,0.0,0.0,0.0,0.0,0.0,0.0,0.0,0.0,0.0,0.0,0.0,0.0,0.0,0.0,0.0,0.0,0.0,0.0,0.0,0.0,0.0,0.0,0.0,0.0,0.0,0.0,0.0,0.0,0.0,0.0,0.0,0.0,0.0,0.0,0.0,0.0,0.0,0.0,0.0,0.0,0.0,0.0,0.0,0.0,0.0,0.0,0.0,0.0,0.0,0.0,0.0,0.0,0.0,0.0,0.0,0.0,0.0,0.0,0.0,0.0,0.0,0.0,0.0,0.0,0.0,0.0,0.0,0.0,0.0,0.0,0.0,0.0,0.0,0.0,0.0,0.0,0.0,0.0,0.0,0.0,0.0,0.0,0.0,0.0,0.0,0.0,0.0,0.0,0.0,0.0,0.0,0.0,0.0,7.8653,8.3693,8.6907,8.6907,8.6298,8.6129,8.6771,8.3275,8.0114,7.7927,0.0,0.0,0.0,0.0,0.0,0.0,0.0,0.0,0.0,0.0,0.0,0.0,0.0,0.0,0.0,0.0,0.0,0.0,0.0,0.0,0.0,0.0,0.0,0.0,0.0,0.0,0.0,0.0,0.0,0.0,0.0,0.0,0.0,0.0,0.0,0.0,0.0,0.0,0.0,0.0,0.0,0.0,0.0,0.0,0.0,0.0,0.0,0.0,0.0,0.0,0.0,0.0,0.0,0.0,0.0,0.0,0.0,0.0,0.0,0.0,6.8296,6.2175,0.0,0.0,0.0,0.0,0.0,0.0,0.0,0.0,0.0,0.0,0.0,0.0,0.0,0.0,0.0,0.0,0.0,0.0,0.0,0.0,0.0,0.0,0.0,0.0,0.0,0.0,0.0,0.0,0.0,0.0,0.0,0.0,0.0,0.0,0.0,0.0,0.0,0.0,0.0,0.0,7.8855,8.3693,8.6907,8.6907,8.6771,8.6501,8.6061,8.3939,8.1197,7.796,7.4109,0.0,0.0,0.0,0.0,0.0,0.0,0.0,0.0,0.0,0.0,0.0,0.0,0.0,0.0,0.0,0.0,0.0,0.0,0.0,0.0,0.0,0.0,0.0,0.0,0.0,0.0,0.0,0.0,0.0,0.0,0.0,0.0,0.0,0.0,0.0,0.0,0.0,0.0,0.0,0.0,0.0,0.0,0.0,0.0,0.0,0.0,0.0,0.0,0.0,0.0,0.0,0.0,0.0,0.0,0.0,0.0,0.0,0.0,0.0,7.2836,6.9095,0.0,0.0,0.0,0.0,0.0,0.0,0.0,0.0,0.0,0.0,0.0,0.0,0.0,0.0,0.0,0.0,0.0,0.0,0.0,0.0,0.0,0.0,0.0,0.0,0.0,0.0,0.0,0.0,0.0,0.0,0.0,0.0,0.0,0.0,0.0,0.0,0.0,0.0,0.0,0.0,8.1393,8.5689,8.8632,8.897,8.8395,8.7564,8.6679,8.4689,8.2407,7.969,7.6262,0.0,0.0,0.0,0.0,0.0,0.0,0.0,0.0,0.0,0.0,0.0,0.0,0.0,0.0,0.0,0.0,0.0,0.0,0.0,0.0,0.0,0.0,0.0,0.0,0.0,0.0,0.0,0.0,0.0,0.0,0.0,0.0,0.0,0.0,0.0,0.0,0.0,0.0,0.0,0.0,0.0,0.0,0.0,0.0,0.0,0.0,0.0,0.0,0.0,0.0,0.0,0.0,0.0,8.0518,8.1394,8.0936,8.1541,8.2313,8.282,7.7352,7.6809,7.929,7.1512,0.0,0.0,0.0,0.0,0.0,0.0,0.0,0.0,0.0,0.0,0.0,0.0,0.0,0.0,0.0,0.0,0.0,0.0,0.0,0.0,0.0,0.0,7.2722,7.4412,7.6096,7.5439,6.8605,0.0,0.0,0.0,0.0,0.0,0.0,0.0,0.0,0.0,0.0,0.0,8.4674,8.8115,9.0399,9.0972,8.9845,8.8511,8.7393,8.5319,8.343,8.1769,7.8613,7.5793,0.0,0.0,0.0,0.0,0.0,0.0,0.0,0.0,0.0,0.0,0.0,0.0,0.0,0.0,0.0,0.0,0.0,0.0,0.0,0.0,0.0,0.0,0.0,0.0,0.0,0.0,0.0,0.0,0.0,0.0,0.0,0.0,5.7875,6.0172,0.0,0.0,0.0,0.0,0.0,0.0,0.0,0.0,0.0,0.0,0.0,0.0,0.0,7.8235,8.123,8.4683,8.7379,8.9493,9.1264,9.2405,9.2889,9.1829,9.1542,9.1501,8.83,0.0,8.2508,8.1145,0.0,0.0,0.0,0.0,0.0,0.0,0.0,0.0,0.0,0.0,0.0,0.0,0.0,0.0,0.0,0.0,0.0,0.0,0.0,0.0,0.0,0.0,8.0209,7.804,7.8111,7.8517,7.7435,7.4221,7.1278,7.0432,7.0432,7.006,0.0,0.0,0.0,0.0,0.0,0.0,8.7076,8.8928,8.9847,8.9947,8.9056,8.7816,8.6413,8.5258,8.3987,8.2541,8.1189,7.8534,7.3936,7.2938,0.0,0.0,0.0,0.0,0.0,0.0,0.0,0.0,0.0,0.0,0.0,0.0,0.0,0.0,0.0,0.0,0.0,0.0,0.0,0.0,0.0,0.0,0.0,0.0,0.0,0.0,0.0,0.0,0.0,5.9088,6.157,6.4001,6.6223,6.8462,0.0,0.0,0.0,0.0,0.0,0.0,0.0,0.0,0.0,8.3022,8.4243,8.5586,8.7013,9.0945,9.3136,9.3584,9.4971,9.5492,9.5389,9.4836,9.4432,9.3991,9.2774,9.1013,8.8761,8.6053,8.3974,8.206,0.0,0.0,0.0,0.0,7.6327,7.6561,7.8936,8.0279,8.0831,7.9463,0.0,0.0,0.0,0.0,0.0,0.0,0.0,7.8477,7.8748,8.0919,8.2813,8.1934,8.2306,8.2881,8.2881,8.1663,7.9701,7.686,7.598,7.5067,7.3138,7.5033,0.0,0.0,0.0,8.7126,8.9818,9.1435,9.1878,9.0823,9.005,8.8888,8.7209,8.6372,8.5053,8.3035,8.2584,8.0448,7.6391,7.4904,7.1844,0.0,0.0,0.0,0.0,0.0,0.0,0.0,0.0,0.0,0.0,0.0,0.0,0.0,0.0,0.0,0.0,0.0,0.0,0.0,0.0,0.0,0.0,0.0,0.0,0.0,0.0,0.0,0.0,6.2912,6.5633,6.8543,7.1821,7.501,0.0,0.0,0.0,0.0,0.0,0.0,8.9209,8.8411,8.8298,8.9177,9.0563,9.1251,9.1265,9.5096,9.6632,9.5743,9.6652,9.6758,9.6213,9.6435,9.6094,9.5502,9.5502,9.5061,9.4043,9.0274,8.8662,8.8467,8.6835,8.4844,8.2909,8.3208,8.2839,8.261,8.4763,8.5664,8.5693,8.5126,8.4002,8.2707,8.1353,0.0,0.0,0.0,0.0,8.3558,8.464,8.5351,8.5621,8.5046,8.552,8.6027,8.5824,8.623,8.5757,8.278,8.1596,8.0412,7.8286,8.0242,0.0,8.2836,8.6966,9.0553,9.2225,9.3273,9.3228,9.1599,9.0684,8.9507,8.784,8.7296,8.6002,8.3841,8.3588,8.1948,7.8719,7.7023,7.4378,7.05,0.0,0.0,0.0,0.0,0.0,0.0,0.0,0.0,0.0,0.0,0.0,0.0,0.0,0.0,0.0,0.0,0.0,0.0,0.0,0.0,0.0,0.0,0.0,0.0,0.0,0.0,0.0,0.0,0.0,7.4369,7.7508,0.0,0.0,0.0,0.0,9.2659,9.3641,9.4132,9.4202,9.3265,9.2814,9.2884,9.3552,9.3985,9.402,9.6208,9.7389,9.7355,9.7774,9.8113,9.8323,9.8357,9.8104,9.7745,9.7745,9.7301,9.6398,9.5244,9.3771,9.2207,9.1125,8.9731,8.834,8.9362,8.9477,8.9668,9.2744,9.3068,9.1967,9.128,8.9062,8.6779,8.7313,8.6467,0.0,0.0,8.9647,9.1338,8.9309,9.0391,9.0932,8.6704,8.6298,8.667,8.5926,8.5824,8.6196,8.738,8.7008,8.5903,8.411,0.0,8.7486,8.7279,9.0119,9.271,9.3949,9.3264,9.2218,9.1112,9.0181,8.8974,8.7613,8.7455,8.6685,8.5294,8.4599,8.3023,8.0107,7.9232,7.6599,7.1846,7.047,0.0,0.0,0.0,0.0,0.0,0.0,0.0,0.0,0.0,0.0,0.0,0.0,0.0,0.0,0.0,0.0,0.0,0.0,0.0,0.0,0.0,0.0,0.0,0.0,0.0,0.0,0.0,0.0,8.0483,8.3847,0.0,9.0853,9.2694,9.4525,9.6483,9.7771,9.815,9.7628,9.6789,9.6264,9.6081,9.6006,9.6028,9.6097,9.7926,9.8599,9.848,9.8633,9.8769,9.8889,9.8889,9.8446,9.7882,9.7882,9.7438,9.672,9.7077,9.6932,9.6598,9.6124,9.5561,9.4948,9.4844,9.446,9.3938,9.4518,9.4462,9.3949,9.3146,9.2076,9.1338,9.2083,9.2286,9.2522,9.4011,9.5195,9.5601,9.3842,9.33,9.2387,8.9342,8.8835,8.9072,8.9275,8.9715,9.0264,9.1126,8.9259,8.7228,8.6204,8.9182,9.1126,8.9913,9.2909,9.5094,9.4682,9.4321,9.3188,9.0979,9.0414,8.9782,8.8834,8.8739,8.8138,8.6748,8.6432,8.477,8.1556,8.0679,7.846,7.451,7.4031,7.1547,0.0,0.0,0.0,0.0,0.0,0.0,0.0,0.0,0.0,0.0,0.0,0.0,0.0,0.0,0.0,0.0,0.0,0.0,0.0,0.0,0.0,0.0,0.0,0.0,0.0,7.9024,8.2536,8.6646,8.9612,9.2449,9.5123,9.6483,9.7767,9.9208,10.0239,10.0333,9.9536,9.8775,9.8282,9.8055,9.7763,9.7616,9.7712,9.8984,9.9367,9.9129,9.9009,9.9009,9.9129,9.9129,9.8974,9.8578,9.8578,9.8441,9.8235,9.8709,9.9238,9.9849,9.917,9.8775,9.8701,9.7971,9.7345,9.6676,9.5787,9.5618,9.5627,9.4925,9.4857,9.5229,9.5973,9.6514,9.7225,9.8713,9.9153,9.8848,9.7597,9.6379,9.4823,9.2319,9.1426,9.1223,9.1305,9.1561,9.1934,9.2099,9.0647,8.8979,8.8147,9.1338,9.3429,9.1463,9.4623,9.6478,9.4833,9.4431,9.342,9.1063,9.0888,9.0603,8.9908,8.9402,8.8834,8.8138,8.7134,8.5525,8.3283,8.1831,7.9433,7.6245,7.5766,7.3163,6.8315,0.0,0.0,0.0,0.0,0.0,0.0,0.0,0.0,0.0,0.0,0.0,0.0,0.0,0.0,0.0,0.0,0.0,0.0,0.0,0.0,0.0,0.0,0.0,8.282,8.488,8.8016,9.2674,9.4564,9.6482,9.8922,9.9927,10.0609,10.0952,10.1056,10.0676,9.9883,9.9193,9.878,9.8745,9.878,9.878,9.878,9.9224,9.9485,9.9485,9.9129,9.9248,9.9485,9.9485,9.9685,9.9883,9.9918,10.0366,10.0987,10.0297,10.0814,10.1953,10.0056,9.9303,9.9234,9.8805,9.8451,9.8005,9.7206,9.7099,9.7386,9.711,9.7495,9.8206,9.8916,9.9153,9.9491,10.098,10.1386,10.1216,10.0405,9.966,9.8375,9.5499,9.3976,9.2879,9.1662,9.1092,9.0834,9.0357,9.117,9.1426,8.999,9.2838,9.4519,9.2365,9.5127,0.0,9.4541,9.3648,9.2808,9.176,9.1583,9.1267,9.0603,8.9308,8.8802,8.9466,8.687,8.5148,8.505,8.2489,7.9656,7.6963,7.5587,7.3612,7.1009,0.0,0.0,0.0,0.0,0.0,0.0,0.0,0.0,0.0,0.0,0.0,0.0,0.0,0.0,0.0,0.0,0.0,0.0,0.0,0.0,0.0,8.3682,8.6073,8.6284,8.9573,9.2779,9.5088,9.6725,9.8006,9.9096,9.9407,9.9744,10.0159,10.0194,9.9883,9.9124,9.8883,9.8538,9.7986,9.8504,9.878,9.878,9.9423,9.9802,9.9802,9.9685,9.9685,9.9802,9.9802,9.9802,9.9918,10.0504,10.0883,10.109,10.1401,10.1696,10.1853,10.0883,10.0897,10.1311,10.1021,10.048,9.9966,9.9723,9.9492,9.9413,9.9288,9.9457,9.966,9.9863,10.0709,10.1419,10.0709,10.1318,10.1893,10.054,9.966,9.8747,9.7148,9.5743,9.459,9.3915,9.3391,9.2737,9.2242,9.2359,9.2077,9.0377,9.2684,9.4474,9.3514,9.5512,9.6539,9.5174,9.4388,9.3545,9.2456,9.1425,9.0951,9.1267,9.0477,9.0035,9.0224,8.8939,8.7498,8.5819,8.4533,8.2223,7.9058,7.6275,7.427,0.0,0.0,0.0,0.0,0.0,0.0,0.0,0.0,0.0,0.0,0.0,0.0,0.0,0.0,0.0,0.0,0.0,0.0,0.0,0.0,0.0,0.0,8.7702,9.0297,9.1425,9.3695,9.5954,9.7612,9.8583,9.9199,9.9423,9.9457,9.9665,9.9849,9.9883,9.9711,9.9262,9.9262,9.9055,9.8607,9.9021,9.9262,9.9262,9.9987,10.0401,10.0401,10.0676,10.0883,10.0883,10.0883,10.0883,10.0883,10.1214,10.144,10.175,10.1767,10.2025,10.2452,0.0,0.0,0.0,0.0,10.1108,10.0487,10.0487,10.0438,10.0164,10.0164,10.0562,10.0764,10.0764,10.1371,10.1944,10.1034,10.1371,10.1843,10.0837,10.0225,9.9577,9.8455,9.7052,9.5703,9.5336,9.4124,9.3063,9.2461,9.2079,0.0,9.0484,9.23,9.3623,9.2744,9.4049,9.5035,9.4545,9.3826,9.3414,9.3005,9.231,9.1867,9.1994,9.1109,0.0,0.0,0.0,8.7199,8.4843,8.3398,0.0,0.0,0.0,7.6455,7.6365,7.5497,0.0,0.0,7.3043,7.2684,0.0,0.0,0.0,0.0,0.0,0.0,0.0,0.0,0.0,0.0,0.0,0.0,0.0,0.0,0.0,0.0,9.1311,9.4356,9.6913,9.7252,9.7867,9.9642,9.9883,9.9883,9.9883,9.9883,9.9883,9.9883,9.9883,9.9883,9.9883,9.9883,0.0,0.0,0.0,9.9918,9.9987,10.0676,10.109,10.1228,10.1849,10.2041,10.2075,10.2075,10.2075,10.2075,10.1939,10.2162,10.2658,10.1797,10.2255,10.3257,10.2262,10.1714,10.1312,10.1312,10.0941,10.0312,10.0312,0.0,0.0,10.0416,10.0851,10.1353,10.1353,10.132,10.1354,10.1287,10.1287,10.1387,10.1387,10.1117,10.0611,9.9581,9.8118,9.6694,9.597,9.4138,9.2487,9.2004,9.1202,9.0741,9.0849,9.1876,9.2257,9.1423,9.2195,9.3056,9.3405,9.2906,9.2744,9.3308,9.3394,0.0,9.2384,9.1217,9.0775,9.1375,8.8742,8.5846,8.328,8.1183,8.0165,8.0165,7.9477,7.9387,7.9926,8.0524,8.0883,8.0913,7.6215,7.5288,0.0,0.0,0.0,0.0,0.0,0.0,0.0,0.0,0.0,0.0,0.0,0.0,0.0,0.0,0.0,9.229,9.4808,9.6913,9.8997,9.9343,9.9515,9.9849,9.9883,9.9883,9.9883,9.9883,9.9883,9.9883,9.9883,9.9883,9.9883,9.9883,9.9883,9.9883,9.9883,10.0194,10.0883,10.0987,10.1283,10.163,10.1733,0.0,10.144,10.144,10.144,10.1352,10.2002,10.2344,10.2358,10.287,10.2835,10.259,10.3018,10.2757,10.2251,10.2251,10.1703,10.1249,10.1249,10.1218,10.1186,10.1186,10.1153,10.0952,10.0952,10.1082,0.0,10.0747,10.0979,10.1444,10.1274,10.1344,10.1042,10.0634,9.9802,9.8592,9.6513,9.524,9.4111,9.2925,9.2398,9.2377,9.2213,9.205,9.2376,9.3136,9.4207,9.4605,9.4172,9.3365,9.2846,9.2681,9.145,9.0829,9.0744,9.0462,9.0369,9.0494,8.8446,8.6486,8.5258,8.3247,8.22,8.22,8.1542,8.1003,8.0614,8.0734,8.1332,8.235,8.1332,8.1123,0.0,0.0,0.0,0.0,0.0,0.0,0.0,0.0,0.0,0.0,0.0,8.5816,8.8063,0.0,9.1649,9.4739,9.6159,9.7633,9.9573,9.9883,9.9883,9.9883,9.9883,9.9883,9.9883,9.9883,9.9883,9.9883,9.9883,9.9883,9.9883,9.9802,9.9685,9.9685,9.9946,10.0206,10.0583,10.1304,10.1767,10.2022,10.2399,10.2481,10.2392,10.2392,10.2392,10.2392,10.2552,10.2723,10.2757,10.2683,10.2434,10.1847,10.2305,10.2142,10.1881,10.1881,10.1651,10.112,10.0851,10.0683,10.0614,10.0444,10.0171,10.0,10.0,10.0094,10.0317,10.0037,10.03,10.0629,10.0673,10.0881,10.0881,10.0804,9.9754,9.8432,9.7486,9.5612,9.4118,9.3951,9.3562,9.3391,9.393,9.3612,9.3258,9.3258,9.3592,9.3969,9.4127,9.3485,9.3133,9.3248,9.2224,9.1546,9.1297,9.0647,9.0092,8.9605,8.8072,8.6579,8.5671,8.4444,8.3726,8.3726,8.3427,8.3098,8.2769,8.2769,8.3427,8.4714,8.4714,8.4714,0.0,0.0,0.0,0.0,0.0,0.0,0.0,8.2306,8.4237,8.7018,8.9123,9.0811,9.2031,9.2863,9.4038,9.6235,9.7127,9.8005,9.9642,9.9883,9.9883,9.9883,9.9883,9.9883,9.9883,9.9883,9.9883,9.9802,9.9802,9.9802,9.9802,9.945,9.9435,9.9572,9.9916,10.0205,10.0513,10.1743,10.2268,10.2404,10.3087,10.3428,10.3268,10.3268,10.3268,10.3268,10.2853,10.2691,10.2563,10.2011,10.1651,10.1253,10.1253,10.1086,10.112,10.1153,10.1019,10.058,10.0171,9.9929,9.9651,9.9339,9.9297,9.9254,9.9254,9.9352,9.9297,9.9596,9.9614,9.963,9.9869,10.0178,10.0539,10.0566,9.9271,9.8164,9.8156,9.6013,9.4134,9.4911,9.4474,9.4319,9.5396,9.5247,9.4588,9.3361,9.2972,9.3132,9.3804,9.3108,9.2863,9.3716,9.3195,9.2422,9.1876,9.0741,8.9663,8.8916,8.7884,8.6937,8.5881,8.5372,8.5103,8.5103,8.4983,8.4893,8.4893,8.5043,8.5701,8.6868,8.7257,8.7377,7.4689,7.4151,7.5432,7.7635,7.869,8.1272,0.0,8.8326,8.7037,9.1329,9.2735,9.3454,9.4333,9.5751,9.7106,9.808,9.9026,9.9607,9.9849,9.9883,9.9883,9.9883,9.9883,9.9883,9.9883,9.9883,9.9802,9.9602,9.9602,9.9367,9.9129,9.9129,9.9317,9.9966,10.0069,10.0718,10.205,10.2255,10.2575,10.2879,10.2947,10.2887,10.2631,10.2631,10.2631,10.2631,10.2175,10.1948,10.1553,10.1519,10.1287,10.0851,10.0614,10.0171,10.0067,10.0308,10.0171,9.979,9.9479,9.9339,9.9199,9.9199,9.9341,9.9577,9.9577,9.9598,9.9559,9.9623,9.9357,9.9217,9.9432,9.9777,10.0128,10.021,9.9926,9.9134,9.7867,9.6801,9.6084,9.5534,9.5366,9.5426,9.5576,9.6025,9.6114,9.5366,9.4229,9.3481,9.3652,9.2543,9.1886,9.2104,9.1329,9.0863,9.0981,9.0381,8.9681,8.8947,8.8764,8.8117,8.6599,8.6509,8.6449,8.6449,8.5881,8.5581,8.5581,8.618,8.6838,8.7646,8.9382,8.989,8.2291,8.131,8.1077,8.5948,8.633,8.6917,9.2115,9.2246,9.2042,9.457,9.5864,9.6614,9.6725,9.7534,9.8179,9.8833,9.9042,9.94,9.9849,9.9883,9.9883,9.9883,9.9802,9.9685,9.9883,9.9883,9.9802,9.9485,9.9485,9.9367,9.9009,9.9178,9.9553,9.986,10.0499,10.1155,10.1767,10.2174,10.2548,10.2759,10.2759,10.2468,10.2243,10.2243,10.2045,10.185,10.2088,10.2056,10.1821,10.2255,10.198,10.1494,10.1322,10.1042,10.0662,9.9947,9.9618,9.9405,9.9549,9.9537,9.946,9.974,9.9954,9.989,9.9743,9.9675,9.955,9.9177,9.9284,9.9354,9.8661,9.9191,9.9849,9.9486,9.8952,9.8515,9.772,9.6961,9.6362,9.5781,9.5905,9.6174,9.6174,9.6084,9.5905,9.5636,9.5097,9.4738,9.4738,9.3571,9.2663,9.2338,9.1943,9.1673,9.1345,9.0653,8.9991,8.9359,8.8938,8.8447,8.7856,8.7856,8.7856,8.7856,8.7586,8.7437,8.7437,8.8484,8.9322,9.001,9.1596,9.2613,8.5964,8.5693,8.5608,9.1295,9.21,9.2246,9.4602,9.5534,9.6145,9.7058,9.8089,9.8761,9.8479,9.8537,9.8799,9.913,9.9181,9.9297,9.9814,9.9802,9.9802,9.9802,9.9602,9.9485,9.9685,9.9685,9.9568,9.9248,9.9248,9.9197,9.9042,9.9309,9.9695,10.0137,10.0903,10.1487,10.169,10.2198,10.2502,10.2502,10.2373,10.231,10.2184,10.2287,10.2123,10.1922,10.2424,10.242,10.2042,10.2574,10.2421,10.1855,10.1614,10.1361,10.1152,9.9897,9.9505,9.9712,9.9805,9.9856,9.9954,10.0182,10.0326,10.0456,10.0224,10.0022,9.9978,9.9259,9.942,9.9669,9.8425,9.899,9.9824,9.9363,9.8602,9.8084,9.775,9.7146,9.6473,9.6174,9.6503,9.6833,9.6833,9.6593,9.6324,9.6144,9.6114,9.5935,9.5396,9.4289,9.3332,9.2673,9.2434,9.2135,9.1656,9.1027,9.0369,8.9711,8.9382,8.9232,8.9232,8.9561,8.9771,8.9771,8.9771,8.9771,8.9771,9.0728,9.1626,9.2464,9.3601,9.4768,8.2761,8.4585,8.7016,9.0156,9.3943,9.7099,9.8182,9.8313,9.834,9.8652,9.8897,9.896,9.9104,9.9165,9.9199,9.9234,9.963,9.9849,9.9883,9.9685,9.9485,9.9485,9.9248,9.9009,9.9009,9.9009,9.8889,9.8614,9.8493,9.8677,9.9018,9.9085,9.9762,10.125,10.1386,10.169,10.2502,10.2502,10.2502,10.2502,10.2045,10.2285,10.3025,10.3363,10.346,10.3016,10.3083,10.2601,10.1899,10.1899,10.1647,10.1426,10.0961,10.0783,10.0815,10.0279,10.0426,10.0718,10.0312,10.0197,10.0197,10.0197,10.0682,10.1265,10.1298,10.1386,10.1358,10.0052,9.9955,9.9868,9.8886,9.9391,10.022,10.0187,9.9491,9.888,9.8479,9.7461,9.6743,9.7311,9.7461,9.7461,9.7461,9.8,9.8209,9.7551,9.7431,9.6773,9.4888,9.402,9.3332,9.2673,9.2015,9.1626,9.1626,9.1027,9.0369,8.9711,9.0249,9.0579,9.0579,9.1805,9.2494,9.2494,9.2494,9.2494,9.2494,9.2524,9.3212,9.4528,9.5217,9.5905,8.7614,8.8896,9.0339,9.41,9.6423,9.8046,9.8496,9.8654,9.8724,9.9076,9.91,9.9111,9.913,9.9388,9.9619,9.9619,9.9826,9.9802,9.9685,9.9602,9.9367,9.9248,9.8855,9.8614,9.8614,9.8889,9.8889,9.8493,9.8969,9.922,9.9085,10.0066,10.0878,10.1386,10.1893,10.2231,10.2502,10.2502,10.2373,10.2045,10.2022,10.2424,10.3159,10.2706,10.2354,10.2247,10.2426,10.2546,10.2292,10.2751,10.277,10.2363,10.2151,10.2101,10.1771,10.1622,10.1363,10.0793,10.0942,10.0909,10.1039,10.1128,10.1332,10.1406,10.0839,10.0622,10.0462,9.9273,9.9423,9.9501,9.8539,9.9214,10.0153,9.9769,9.9859,9.9649,9.8658,9.8508,9.8179,9.7102,9.7222,9.7371,9.6952,9.7072,9.7132,9.6922,9.7222,9.6952,9.5456,9.5067,9.4648,9.402,9.375,9.3421,9.2972,9.2733,9.2314,9.1656,9.1805,9.2135,9.2583,9.3002,9.3242,9.3242,9.3691,9.3721,9.3242,9.5007,9.6084,9.6533,9.767,9.8538,9.1134,9.2665,9.367,9.7426,9.8936,9.9424,9.9112,9.9103,9.9188,9.9153,9.8992,9.878,9.8825,9.8859,9.8743,9.8743,9.8743,9.8743,9.8544,9.8426,9.8411,9.8446,9.8085,9.8065,9.8337,9.8493,9.8493,9.8371,9.905,9.947,9.9491,10.0675,10.1487,10.1792,10.2299,10.2502,10.2502,10.2502,10.2378,10.2153,10.2386,10.2706,10.3098,10.2766,10.2436,10.2436,10.2751,10.2657,10.2543,10.3147,10.3081,10.2751,10.2751,10.2634,10.2366,10.2183,10.1774,10.1084,10.1677,10.1418,10.101,10.1671,10.1653,10.1251,10.0556,10.0356,9.9985,9.8978,9.9079,9.9313,9.8533,9.9018,9.9979,10.0277,10.0364,10.0304,9.9705,9.9735,9.9406,9.791,9.794,9.803,9.7371,9.7281,9.7281,9.7281,9.7611,9.7311,9.5785,9.5396,9.5067,9.4648,9.4379,9.405,9.3631,9.3571,9.3391,9.2972,9.3182,9.3721,9.4618,9.4858,9.5097,9.5336,9.6025,9.6144,9.5695,9.7162,9.8089,9.8568,9.9197,9.9855,9.3285,9.5637,9.6901,9.9955,10.1234,10.163,9.9953,9.9675,9.9547,9.889,9.8323,9.7947,9.8069,9.7201,9.655,9.6584,9.6618,9.6652,9.6686,9.6486,9.6555,9.7303,9.713,9.7191,9.7935,9.8003,9.8003,9.8003,9.8713,9.9491,10.0235,10.1014,10.1792,10.2502,10.2502,10.2502,10.2502,10.2536,10.2517,10.2558,10.3171,10.337,10.3052,10.3309,10.3523,10.3523,10.3523,10.3196,10.2933,10.2933,10.2634,10.2366,10.2366,10.2366,10.2334,10.188,10.1696,10.1639,10.2379,10.1614,10.041,10.1534,10.1446,10.0619,10.0651,10.0445,9.9987,9.873,9.8907,9.9291,9.8778,9.9107,9.9915,10.1201,10.1052,10.0782,10.1351,10.0962,10.0364,9.9675,9.9526,9.9286,9.8628,9.8538,9.8538,9.8538,9.8478,9.779,9.5935,9.5097,9.4708,9.4648,9.405,9.3661,9.3691,9.3691,9.3691,9.3721,9.4379,9.5306,9.6563,9.7222,9.785,9.8448,9.9107,9.9436,9.9406,9.8867,9.9256,10.0483,9.9885,9.9945,9.8376,9.9675,9.9744,10.1234,10.2161,10.2237,10.084,9.9444,9.7981,9.6652,9.4679,9.3053,9.2713,9.3372,9.4134,9.4944,9.549,9.6037,9.6417,9.6367,9.6521,9.6907,9.7008,9.7191,9.7935,9.8003,9.8003,9.8003,9.9221,10.0303,10.1081,10.1792,10.2299,10.2502,10.2502,10.2502,10.2502,10.252,10.2592,10.292,10.3157,10.3249,10.3407,10.3131,10.3081,10.3016,10.2784,10.2634,10.2484,10.2484,10.2517,10.2366,10.2366,10.2366,10.2366,10.2216,10.1069,9.9669,10.0907,10.1094,10.0704,10.0179,9.9797,9.9379,9.8237,9.7842,9.7869,9.7834,9.8265,9.8868,9.9858,10.0483,10.1171,10.2009,10.2099,10.189,10.1561,10.1351,10.0992,10.0364,9.9825,9.9286,9.8628,9.8538,9.8538,9.8538,9.8089,9.7581,9.7072,9.6444,9.5875,9.5396,9.4738,9.4558,9.5037,9.5067,9.5277,9.5785,9.6414,9.6892,9.7252,9.791,9.8089,9.776,9.8419,9.8508,9.8,9.9346,10.0184,10.0483,10.0782,10.1291,10.0517,10.2378,10.3111,10.2893,10.3522,10.3309,9.9891,9.7916,9.6265,9.378,9.1669,9.0403,9.0448,9.1127,9.1919,9.2475,9.327,9.3767,9.4092,9.4315,9.4959,9.5804,9.621,9.6954,9.8341,9.8206,9.8409,9.9424,9.9931,10.0405,10.0811,10.1893,10.2502,10.2502,10.2806,10.3111,10.3483,10.3631,10.3561,10.3205,10.3228,10.3065,10.2751,10.2302,10.2151,10.2151,10.188,10.188,10.188,10.188,10.188,10.188,10.188,10.188,10.176,10.1268,10.0018,9.9073,9.9499,9.9786,9.9763,9.8987,9.8714,9.8527,9.7577,9.7434,9.7689,9.7909,9.8419,9.9137,9.9855,10.0573,10.1201,10.189,10.2069,10.2009,10.195,10.189,10.165,10.0693,9.9945,9.9197,9.8239,9.8568,9.8867,9.8568,9.8688,9.8688,9.8419,9.7311,9.6444,9.6055,9.5695,9.5606,9.5995,9.6264,9.6593,9.6952,9.7581,9.8089,9.8359,9.8748,9.8897,9.8808,9.9197,9.9197,9.8808,10.0214,10.0902,10.0962,10.159,10.2099,10.1184,10.3952,10.5838,10.4658,10.4901,10.3917,9.8171,9.6249,9.4518,9.0594,8.9072,8.8666,8.9207,8.9579,8.9816,8.9884,9.0628,9.1203,9.1406,9.2083,9.3098,9.4552,9.5533,9.6819,9.8612,9.851,9.9085,10.098,10.0608,10.0405,10.0506,10.1792,10.2502,10.2603,10.328,10.3957,10.4569,10.491,10.4393,10.3238,10.3243,10.2751,10.1543,10.1268,10.1114,10.1114,10.1114,10.1114,10.1114,10.1114,10.1114,10.1114,10.1114,10.1178,10.1087,9.9799,9.9383,9.9218,9.8496,9.821,9.8042,9.821,9.8101,9.7902,9.7729,9.805,9.8269,9.8359,9.8867,9.9406,9.9586,10.0094,10.0782,10.1471,10.159,10.177,10.2368,10.2488,10.2099,10.0872,10.0184,9.9346,9.8,9.8658,9.9197,9.8598,9.9406,9.9945,9.9556,9.794,9.6803,9.6713,9.6623,9.6593,9.6683,9.7192,9.7521,9.7611,9.8269,9.8867,9.9346,9.9466,9.9735,10.0214,10.0214,10.0214,10.0214,10.0872,10.1201,10.1261,10.1979,10.2368,10.2905,10.4114,10.4693,10.5247,10.5033,10.3383,9.8099,9.589,9.3503,8.8497,8.6366,8.5249,8.4742,8.6196,8.7685,8.8294,8.9512,9.0831,9.2049,9.2895,9.3706,9.462,9.6447,9.7529,9.7292,9.8815,9.9728,9.9525,10.0574,10.1487,10.2096,10.2401,10.2806,10.3382,10.3517,10.3528,10.3224,10.3577,10.3096,10.1645,10.1978,10.1696,10.1268,10.1082,10.1114,10.1114,10.1114,10.1114,10.1114,10.1114,10.1114,10.1114,10.1114,10.1498,10.1854,10.0844,10.0225,9.9572,9.8825,9.772,9.7086,9.775,9.7983,9.7759,9.7061,9.689,9.7012,9.7521,9.8179,9.8957,10.0004,10.0782,10.1471,10.2159,10.2309,10.2368,10.2488,10.2488,10.2279,10.1471,10.1201,10.0693,9.9376,9.8897,9.8658,9.8538,9.8239,9.8389,9.9376,9.8718,9.797,9.7401,9.6862,9.6773,9.7281,9.7431,9.773,9.8299,9.8957,9.9137,9.8718,9.9226,9.9316,9.8867,9.8867,9.8867,9.8867,9.9526,9.9855,9.9885,10.1082,10.165,10.0649,10.2623,10.4807,10.4502,10.4214,10.2234,9.545,9.3436,9.1338,8.5723,8.3998,8.3592,8.3998,8.5621,8.7144,8.7888,8.8903,9.0154,9.1609,9.215,9.2962,9.4518,9.5973,9.7326,9.851,9.9221,9.9965,10.0811,10.1183,10.1589,10.1893,10.2705,10.3415,10.4092,10.4001,10.3931,10.4115,10.3777,10.2787,10.1451,10.1654,10.1204,10.0524,10.0524,10.0524,10.0524,10.0524,10.0524,10.0524,10.0524,10.0524,10.0524,10.0906,10.0908,10.0745,10.0282,9.9467,9.8853,9.8517,9.8084,9.77,9.8897,9.8593,9.7543,9.7219,9.7311,9.7641,9.794,9.8508,9.9167,9.9795,10.0693,10.1561,10.189,10.2219,10.2488,10.2488,10.2488,10.2279,10.159,10.1471,10.1052,9.9735,9.9526,9.9436,9.9077,9.9047,9.9167,9.9466,9.9226,9.8897,9.8568,9.7641,9.7162,9.7461,9.7491,9.7641,9.797,9.8957,9.9376,9.9047,9.9675,9.9855,9.9556,9.9556,9.9556,9.9556,10.0184,10.0513,10.0573,10.1561,10.2189,9.8746,10.1691,10.4882,10.3913,10.3383,10.1257,9.3549,9.1656,8.985,8.3862,8.2644,8.305,8.437,8.5892,8.7144,8.7888,8.8734,8.985,9.1338,9.1677,9.2522,9.4485,9.577,9.7292,9.9322,9.9694,10.0405,10.1927,10.1635,10.1568,10.1893,10.2648,10.3562,10.4438,10.4059,10.3961,10.4405,10.3571,10.2387,10.1172,10.1172,10.0804,9.9894,9.9894,9.9894,9.9894,9.9894,9.9989,10.0116,10.0116,10.021,10.0432,10.0745,10.0576,9.9914,9.9594,9.911,9.8547,9.8868,9.8957,9.9107,10.0184,9.9406,9.8119,9.797,9.8299,9.8718,9.8568,9.8897,9.9346,9.9645,10.0483,10.1351,10.159,10.2099,10.2488,10.2488,10.2488,10.2309,10.177,10.168,10.1261,9.9945,10.0004,10.0064,9.9406,9.9615,9.9705,9.9346,9.9286,9.9286,9.9286,9.8359,9.77,9.77,9.77,9.77,9.77,9.8837,9.9496,9.9496,10.0124,10.0483,10.0483,10.0483,10.0483,10.0483,10.0992,10.1261,10.1261,10.2099,10.2787,10.0976,10.2976,10.4557,10.4246,10.3417,10.0928,9.4692,9.2781,9.0628,8.464,8.3389,8.3659,8.4471,8.5892,8.7144,8.7888,8.9173,9.0628,9.2116,9.2928,9.3706,9.462,9.7123,9.8375,9.7292,10.0202,10.1724,10.0506,10.1285,10.219,10.3348,10.2525,10.262,10.4087,10.3063,10.2233,10.1903,10.1783,10.1204,10.0084,10.0084,10.0053,9.9894,9.9894,9.9894,9.9894,9.9894,10.021,10.0811,10.0811,10.119,10.1629,10.0845,10.089,10.1347,10.018,10.0088,10.0547,10.04,10.0304,10.0304,10.0483,10.0364,10.0094,9.9496,9.9376,9.9286,9.8688,9.8568,9.8897,10.0094,10.0483,10.0872,10.2099,10.2488,10.2488,10.2488,10.2488,10.2488,10.2398,10.2398,10.1979,10.0603,9.9945,9.9376,9.8718,9.8149,9.797,9.8538,9.8598,9.8598,9.8598,9.8508,9.8419,9.8419,9.8419,9.8419,9.8419,9.9107,9.9496,9.9496,10.0124,10.0483,10.0483,10.0483,10.0483,10.0483,10.0573,10.0573,10.0603,10.189,10.2518,9.8642,10.2041,10.5555,10.4703,10.3847,10.125,9.4398,9.2537,9.0729,8.4742,8.349,8.3592,8.3896,8.5841,8.7409,8.7279,8.9271,9.1183,9.2218,9.3098,9.418,9.5838,9.7461,9.8916,10.0202,10.1216,10.1703,10.1218,10.2189,10.286,10.2839,10.2346,10.2751,10.4115,10.2657,10.1795,10.1631,10.0895,10.0304,9.9894,9.9894,9.9894,9.9894,9.9894,9.9894,9.9926,10.0305,10.0684,10.0906,10.138,10.1404,10.1229,10.168,10.1338,10.068,10.0872,10.0943,10.0702,10.1027,10.1082,10.1082,10.1082,10.1082,10.0872,9.9825,9.9226,9.8867,9.8598,9.8538,9.8658,9.9167,9.9885,10.0812,10.2189,10.2488,10.2488,10.2488,10.2488,10.2488,10.2488,10.2488,10.2189,10.1261,10.0513,9.9855,9.9197,9.8538,9.8209,9.8478,9.8538,9.8538,9.8538,9.8149,9.791,9.791,9.791,9.8089,9.8508,9.9526,10.0274,10.0663,10.1321,10.168,10.168,10.168,10.168,10.168,10.2099,10.2219,10.2279,10.2817,10.3296,9.784,10.144,10.5314,10.5161,10.3652,10.0641,9.4688,9.1995,8.9478,8.4809,8.3659,8.3558,8.3795,8.6083,8.7829,8.7321,8.9628,9.1748,9.2673,9.3436,9.4654,9.665,9.7732,9.9254,10.1622,10.1995,10.2243,10.2625,10.296,10.312,10.2821,10.1923,10.2053,10.3216,10.1828,10.105,10.105,10.0336,9.9894,9.9894,10.0116,10.021,10.021,10.04,10.0495,10.0526,10.1,10.1317,10.1538,10.175,10.1542,10.1389,10.1834,10.1232,10.0123,10.1125,10.1063,10.0573,10.0992,10.1171,10.1171,10.1171,10.1052,10.0693,9.9795,9.9197,9.8778,9.8568,9.8808,9.9137,9.9346,10.0393,10.162,10.2787,10.3087,10.3087,10.3087,10.3087,10.3087,10.3087,10.2907,10.2488,10.159,10.0902,10.0184,9.9346,9.8808,9.8448,9.8239,9.8389,9.8448,9.8239,9.797,9.779,9.779,9.797,9.8299,9.8778,10.0064,10.0992,10.1471,10.2099,10.2488,10.2488,10.2488,10.2608,10.2787,10.3027,10.3236,10.3416,10.3416,10.3805,9.9931,10.2041,10.2833,10.5919,10.287,9.8588,9.6091,9.1081,8.6535,8.4945,8.4031,8.3727,8.4471,8.6831,8.8579,8.81,9.041,9.2498,9.3486,9.4214,9.5229,9.6717,9.8172,9.939,10.0202,10.2299,10.3889,10.4599,10.3198,10.2744,10.3942,10.1397,10.046,10.1631,10.046,9.9894,9.9894,9.9926,9.9894,9.9926,10.059,10.0906,10.0906,10.1601,10.198,10.198,10.198,10.2391,10.296,10.1972,10.2013,10.2592,10.1341,10.0877,10.082,10.058,10.0483,10.0483,10.0483,10.0483,10.0483,10.0483,10.0064,9.9526,9.9496,9.9496,9.9346,9.8718,9.9466,10.0603,10.1261,10.2398,10.3535,10.4194,10.4403,10.4403,10.4403,10.4403,10.4403,10.4403,10.3835,10.2997,10.168,10.0902,10.0004,9.8718,9.8538,9.8269,9.7611,9.8089,9.8269,9.7581,9.8119,9.8508,9.8508,9.9107,9.9496,9.9496,10.0693,10.1471,10.1471,10.2099,10.2488,10.2488,10.2488,10.2787,10.3416,10.2787,10.2817,10.3416,10.3416,10.3805,9.4983,9.771,9.9733,9.9279,9.7678,9.5161,9.1839,8.9692,8.7685,8.5148,8.4437,8.42,8.3896,8.6083,8.7999,8.8032,9.0741,9.3111,9.3553,9.5093,9.6548,9.7529,10.0777,10.2976,10.328,10.4396,10.4942,10.4266,10.4501,10.3969,10.2477,10.2257,10.2119,10.1631,10.0492,9.9894,9.9894,9.9894,10.0116,10.059,10.0811,10.119,10.1696,10.1885,10.2012,10.2012,10.2012,10.2034,10.1941,10.1774,10.1416,10.1456,10.0964,10.0822,10.055,10.0577,10.0483,10.0483,10.0483,10.0483,10.0483,10.0483,10.0364,10.0184,10.0184,9.9556,9.8987,9.9675,10.0483,10.1381,10.2518,10.3117,10.3595,10.4224,10.4403,10.4403,10.4403,10.4403,10.4403,10.4403,10.3895,10.2997,10.168,10.0902,10.0004,9.8718,9.8538,9.8448,9.8239,9.8389,9.8448,9.8239,9.8389,9.8538,9.8538,9.9137,9.9705,10.0184,10.0992,10.168,10.2159,10.2398,10.2488,10.2488,10.2488,10.2608,10.2787,10.2997,10.3416,10.4104,10.4613,10.4643,9.194,9.4564,9.6622,9.7046,9.5378,9.3032,9.0843,8.8727,8.6718,8.4945,8.4843,8.4911,8.4437,8.6593,8.8408,8.8066,9.0819,9.2941,9.3147,9.5296,9.7597,9.9491,10.2401,10.4498,10.5073,10.5783,10.5752,10.4654,10.4827,10.3942,10.1751,10.1935,10.1631,10.1082,10.0367,9.9894,9.9894,10.0179,10.0495,10.0906,10.1411,10.1917,10.2391,10.2612,10.2802,10.2739,10.2128,10.1887,0.0,10.1059,10.0588,10.0543,10.0429,10.0281,10.0094,10.0094,10.0094,10.0094,9.9825,9.9915,10.0094,10.0094,10.0304,10.0483,10.0483,9.9915,9.9496,10.0573,10.1351,10.2159,10.3416,10.4014,10.4343,10.5002,10.5181,10.5181,10.5181,10.5181,10.5181,10.5181,10.4613,10.3745,10.2398,10.168,10.0693,9.9137,9.8897,9.8808,9.8568,9.8538,9.8538,9.8538,9.8748,9.8897,9.8897,9.9496,10.0184,10.0782,10.1471,10.2159,10.2817,10.2817,10.2997,10.3206,10.3506,10.3595,10.3595,10.4014,10.4224,10.4403,10.4613,10.4613,0.0,9.191,9.3103,9.7449,9.483,9.1358,9.1679,8.7838,0.0,8.4577,8.5182,8.5723,8.5757,8.7919,8.9397,8.8405,9.0547,9.2362,9.2673,9.5229,9.851,10.2198,10.3314,10.4329,10.5684,10.6461,10.6391,10.5214,10.4073,10.2867,10.1663,10.0616,10.0053,9.9894,9.9958,9.9989,9.9989,10.059,10.0969,10.1095,10.2391,10.2991,10.3086,10.3718,10.4034,10.3971,10.2451,10.2013,10.2468,9.9874,9.9329,9.985,9.9559,9.9466,9.9496,9.9466,9.9436,9.9346,9.8748,9.8957,9.9526,9.9615,10.0094,10.0603,10.0603,10.0603,10.0693,10.1351,10.2069,10.2907,10.4164,10.5002,10.563,10.6288,10.6408,10.6408,10.6408,10.6408,10.6408,10.6408,10.5899,10.5032,10.3715,10.2907,10.183,9.9915,9.9615,9.9346,9.8748,9.8658,9.8658,9.8598,9.9226,9.9645,9.9645,10.0184,10.0872,10.1471,10.2189,10.2877,10.3535,10.3535,10.3835,10.4493,10.5032,10.5421,10.5421,10.5421,10.5121,10.4493,10.3895,10.3924,8.3542,0.0,8.7541,8.7596,8.6705,8.5918,0.0,8.5514,8.4421,8.5068,8.506,8.508,8.5689,8.7069,8.8715,9.0302,9.1897,9.352,9.484,9.7563,10.0608,10.3787,10.4802,10.5583,10.6035,10.6336,10.5639,10.3928,10.403,10.3356,10.1663,10.1326,10.0772,9.9894,10.04,10.0684,10.0684,10.0811,10.1411,10.2486,10.2802,10.3276,10.3813,10.3939,10.4034,10.3971,10.2254,10.1645,10.1413,9.97,9.9249,9.9589,9.8897,9.9077,9.9436,9.8927,9.8748,9.8718,9.8568,9.8957,9.9675,10.0693,10.1471,10.2009,10.2009,10.168,10.1381,10.2069,10.3087,10.4134,10.5002,10.569,10.6199,10.6408,10.6408,10.6408,10.6408,10.6408,10.6408,10.6408,10.5899,10.5151,10.4313,10.3206,10.2189,10.1171,10.0573,10.0184,10.0064,10.0004,9.9825,9.9316,10.0304,10.0992,10.1022,10.1171,10.1561,10.2189,10.2817,10.3715,10.4912,10.4942,10.5032,10.5211,10.4822,10.4912,10.5421,10.5421,10.5331,10.5211,10.554,10.581,8.1165,8.3786,8.6288,8.6246,8.5942,8.5915,8.6532,8.568,8.4727,8.4964,8.5124,8.5384,8.6163,8.7668,8.9339,9.0966,9.3026,9.5349,9.7935,9.9728,10.1893,10.4802,10.5146,10.5341,10.6147,10.5641,10.4718,10.3207,10.3349,10.2927,10.1438,10.1251,10.1128,10.0874,10.119,10.1222,10.0906,10.1506,10.2201,10.2991,10.3307,10.3623,10.4034,10.3537,10.3371,10.3339,10.1214,10.0484,10.0516,9.9002,9.8656,9.9017,9.8658,9.8748,9.9017,9.8658,9.8538,9.8538,9.8538,9.9137,10.0184,10.1501,10.2189,10.2488,10.2488,10.2219,10.2069,10.2728,10.3625,10.4583,10.5241,10.5929,10.6408,10.6408,10.6408,10.6408,10.6408,10.6408,10.6408,10.6408,10.6109,10.563,10.5002,10.4313,10.3506,10.2488,10.2069,10.171,10.1471,10.1411,10.1291,10.0902,10.177,10.2368,10.2398,10.2668,10.2967,10.3326,10.4014,10.4822,10.584,10.5899,10.6019,10.6318,10.569,10.563,10.6318,10.6019,10.5899,10.5899,10.5929,10.5929,8.104,8.4215,8.7246,8.8089,8.7983,8.783,8.8146,8.6636,8.5064,8.4924,8.5322,8.596,8.7177,8.8947,9.0539,9.1609,9.4248,9.736,10.0878,10.1589,10.2773,10.5614,10.5107,10.484,10.5995,10.5178,10.3955,10.2539,10.2481,10.2077,10.0937,10.0906,10.1222,10.198,10.2107,10.1885,10.119,10.2391,10.3055,10.3181,10.3718,10.4034,10.4034,10.3036,10.2699,10.253,10.017,9.9389,9.9845,9.8237,9.8,9.8538,9.8538,9.8538,9.8538,9.8538,9.8538,9.8538,9.8748,9.9556,10.0693,10.2069,10.2488,10.2488,10.2488,10.2488,10.2608,10.3117,10.3715,10.4403,10.5121,10.575,10.6288,10.6408,10.6408,10.6408,10.6408,10.6408,10.6408,10.6408,10.6408,10.6229,10.569,10.551,10.5032,10.3895,10.3625,10.3386,10.2877,10.2787,10.2787,10.2608,10.3296,10.3715,10.3595,10.4284,10.4732,10.4882,10.5301,10.5929,10.6707,10.6797,10.7126,10.7695,10.6917,10.6887,10.7575,10.6797,10.6318,10.6229,10.581,10.5451,8.1944,8.5403,8.8089,8.5701,8.6017,8.6744,8.6386,8.5658,8.5336,8.6129,8.5468,8.579,8.9106,8.9891,9.0853,9.3757,9.6142,9.8544,10.098,10.2468,10.4092,10.6494,10.6247,10.5818,10.5655,10.507,10.3668,10.1479,10.1827,10.173,10.0906,10.0906,10.1222,10.198,10.2581,10.277,10.2675,10.2865,10.3276,10.3845,10.4003,10.4034,10.4034,10.3036,10.2699,10.253,10.066,9.9814,9.9906,9.8748,9.8419,9.8538,9.8538,9.8538,9.8538,9.8538,9.8538,9.8688,9.9795,10.0304,10.0693,10.2069,10.2488,10.2488,10.2488,10.2488,10.2518,10.2608,10.3087,10.3715,10.4403,10.5091,10.572,10.6288,10.6408,10.6408,10.6408,10.6408,10.6408,10.6408,10.6408,10.6408,10.6288,10.581,10.5331,10.5151,10.4613,10.4194,10.4104,10.4104,10.3895,10.3326,10.4403,10.4912,10.4313,10.5391,10.6318,10.6887,10.6498,10.6797,10.7994,10.8593,10.8982,10.9101,10.7874,10.7575,10.8204,10.7007,10.6109,10.56,10.6019,10.563,8.1561,8.4739,8.7632,8.7035,8.8685,9.0248,8.9322,8.8983,8.8432,8.7517,8.7227,8.7448,8.8767,9.0584,9.3345,9.7563,9.9153,10.0608,10.2874,10.3787,10.4537,10.5781,10.5463,10.49,10.4063,10.3572,10.2623,10.0969,10.1601,10.1885,10.1506,10.2201,10.2928,10.3687,10.4003,10.4097,10.4097,10.3718,10.3718,10.4034,10.4034,10.3703,10.3371,10.2361,10.1677,10.1129,9.9729,9.9226,9.9047,9.8688,9.8538,9.8538,9.8538,9.8538,9.8538,9.8538,9.8748,9.9197,10.0184,10.0693,10.1171,10.2189,10.2488,10.2488,10.2488,10.2488,10.2488,10.2488,10.2937,10.3595,10.4224,10.4912,10.56,10.6229,10.6408,10.6408,10.6408,10.6408,10.6408,10.6408,10.6109,10.6019,10.6318,10.584,10.554,10.5899,10.569,10.551,10.551,10.551,10.5391,10.5091,10.5899,10.6378,10.6019,10.6887,10.7605,10.7904,10.7994,10.8293,10.8892,10.9221,10.9221,10.8862,10.7874,10.7575,10.7874,10.6498,10.572,10.5421,10.572,10.5331,8.1652,8.4481,8.7316,8.865,9.08,9.2469,9.2232,9.1947,9.1137,8.9397,8.9478,8.985,8.9816,9.259,9.6244,10.0405,10.1386,10.2367,10.4396,10.4537,10.4708,10.5121,10.4487,10.3759,10.288,10.2336,10.1791,10.119,10.1696,10.2075,10.2201,10.3402,10.4319,10.4824,10.5014,10.5014,10.4824,10.4319,10.4034,10.4034,10.3869,10.3339,10.273,10.1475,10.0608,9.9906,9.8868,9.8538,9.8538,9.8538,9.8538,9.8538,9.8538,9.8628,9.8748,9.8748,9.9167,9.9825,10.0483,10.1052,10.1561,10.2279,10.2488,10.2488,10.2488,10.2488,10.2488,10.2488,10.2817,10.3326,10.4014,10.4702,10.5331,10.6019,10.6318,10.6408,10.6408,10.6408,10.6408,10.6408,10.5899,10.563,10.6318,10.584,10.563,10.6318,10.6408,10.6408,10.6408,10.6408,10.6498,10.6618,10.7096,10.7485,10.7605,10.8204,10.8593,10.8593,10.9101,10.94,10.94,10.952,10.9191,10.8383,10.7874,10.7575,10.7396,10.6109,10.5331,10.5211,10.5211,10.4822,8.3571,8.5982,8.7983,8.8791,8.9318,9.0253,9.2471,9.2001,9.1203,9.1961,9.215,9.2793,9.4857,9.7123,9.9051,10.0134,10.1521,10.2976,10.4464,10.4438,10.4454,10.5081,10.3752,10.288,10.2694,10.2336,10.198,10.1917,10.198,10.2296,10.2897,10.3623,10.4034,10.4097,10.473,10.4793,10.4097,10.4034,10.4034,10.4034,10.3204,10.273,10.2668,10.0751,9.9906,9.9906,9.8868,9.8538,9.8538,9.8538,9.8538,9.8538,9.8538,9.8897,9.9436,9.9436,9.9855,10.0483,10.1171,10.1441,10.1561,10.2279,10.2488,10.2488,10.2488,10.2488,10.2488,10.2488,10.2518,10.2698,10.3326,10.3984,10.4613,10.5331,10.5929,10.6408,10.6408,10.6408,10.6408,10.6408,10.5899,10.563,10.6318,10.584,10.563,10.6318,10.6408,10.6408,10.6408,10.6408,10.6618,10.7276,10.7366,10.7665,10.8263,10.8892,10.9311,10.9311,10.94,10.94,10.94,10.9939,10.97,10.8383,10.8353,10.7994,10.7396,10.6109,10.5121,10.4493,10.4493,10.4104,8.3298,8.5811,8.8194,8.9423,9.0647,9.1853,9.3438,9.412,9.4372,9.3926,9.3842,9.4248,9.5567,9.7969,10.0202,10.1419,10.2502,10.3458,10.4168,10.4626,10.4482,10.3686,10.3953,10.354,10.24,10.2937,10.2897,10.2075,10.2802,10.3181,10.2991,10.4097,10.473,10.473,10.5014,10.5014,10.473,10.4166,10.3831,10.3831,10.3087,10.2191,10.0925,10.0227,9.9552,9.9047,9.8688,9.8538,9.8538,9.8538,9.8538,9.8568,9.8987,9.9526,10.0094,10.0094,10.0513,10.1171,10.1381,10.177,10.2159,10.2398,10.2488,10.2488,10.2488,10.2488,10.2578,10.2997,10.2787,10.2608,10.3236,10.3895,10.4583,10.5241,10.5929,10.6408,10.6408,10.6408,10.6408,10.6408,10.5899,10.563,10.6318,10.584,10.563,10.6318,10.6408,10.6408,10.6408,10.6408,10.6498,10.6767,10.7485,10.8263,10.8982,10.961,10.9999,10.9999,10.9999,10.9999,10.9999,11.0208,10.9909,10.9011,10.8593,10.7874,10.6797,10.5421,10.4433,10.3805,10.4194,10.4284,8.3984,8.6592,8.9388,9.1178,9.2119,9.2963,9.4779,9.5732,9.6111,9.5518,9.5398,9.5702,9.665,9.8679,10.0709,10.2231,10.3019,10.3599,10.4354,10.4372,10.4015,10.3105,10.3572,10.3515,10.249,10.3118,10.3402,10.2707,10.3497,10.3813,10.3307,10.4508,10.5014,10.4793,10.5204,10.5163,10.4638,10.4257,10.3667,10.3148,10.2715,10.1805,10.0513,9.9975,9.9348,9.8808,9.8598,9.8538,9.8538,9.8538,9.8658,9.8927,9.9795,10.0393,10.0812,10.1082,10.1381,10.177,10.177,10.2099,10.2488,10.2488,10.2608,10.2787,10.2787,10.2907,10.3206,10.3595,10.3296,10.2907,10.3296,10.3715,10.4284,10.4942,10.56,10.6139,10.6378,10.6408,10.6408,10.6408,10.5899,10.563,10.6318,10.584,10.563,10.6318,10.6408,10.6408,10.6408,10.6408,10.6498,10.6707,10.7904,10.8892,10.9371,10.9999,11.0328,11.0328,11.0328,11.0328,11.0328,11.0119,10.973,10.9101,10.8383,10.7396,10.6109,10.4972,10.4194,10.3715,10.3984,10.4313,8.6168,8.861,9.1845,9.4163,9.3381,9.2985,9.6779,9.6486,9.577,9.6703,9.6886,9.736,9.8815,9.9728,10.0743,10.2299,10.2726,10.3344,10.484,10.3752,10.3016,10.3536,10.275,10.2296,10.2897,10.2991,10.3307,10.4003,10.4034,10.4034,10.4034,10.473,10.4793,10.4034,10.5393,10.5236,10.3729,10.4415,10.386,10.1939,10.1939,10.197,10.1729,10.0159,9.9526,9.9466,9.8837,9.8538,9.8538,9.8538,9.8927,9.9675,10.0962,10.1471,10.1561,10.2279,10.2488,10.2488,10.2488,10.2488,10.2488,10.2488,10.2907,10.3416,10.3416,10.3895,10.4403,10.4403,10.3924,10.3416,10.3416,10.3416,10.3595,10.4224,10.4912,10.56,10.6229,10.6408,10.6408,10.6408,10.5899,10.563,10.6318,10.5899,10.563,10.6318,10.6408,10.6408,10.6408,10.6408,10.6677,10.7306,10.8593,10.94,10.94,10.9939,11.0328,11.0328,11.0328,11.0328,11.0328,10.973,10.9071,10.8383,10.7695,10.6707,10.5421,10.4732,10.4403,10.4403,10.3715,10.4134,8.3532,8.7291,9.1319,9.1529,9.411,9.6641,9.6753,9.6256,9.6112,9.736,9.851,9.9187,9.9119,10.1014,10.2705,10.3212,10.3497,10.3935,10.4501,10.3869,10.3444,10.3195,10.3724,10.4097,10.3718,10.4603,10.4888,10.4097,10.4508,10.454,10.4034,10.4224,10.4508,10.4793,10.5204,10.5047,10.4415,10.4375,10.3833,10.2638,10.2391,10.1751,10.085,10.0457,10.0184,10.0184,9.9975,9.9645,9.9256,9.9705,10.0603,10.171,10.2518,10.3117,10.3565,10.3775,10.3535,10.3117,10.3117,10.2877,10.2578,10.2997,10.3296,10.3506,10.3984,10.4224,10.4613,10.551,10.5002,10.4224,10.4732,10.4134,10.3506,10.3625,10.4224,10.4912,10.56,10.572,10.584,10.6318,10.6229,10.6318,10.7007,10.6528,10.6318,10.7007,10.6707,10.6588,10.7007,10.6707,10.6827,10.7964,10.7994,10.8174,10.8652,10.9281,10.97,10.97,10.97,10.97,10.97,10.949,10.8892,10.7695,10.7485,10.6498,10.4702,10.5002,10.4613,10.3715,10.4493,10.5301,8.7318,9.1346,9.5391,9.4945,9.6795,9.8429,9.7618,9.6674,9.6311,9.807,9.8916,9.9559,10.0303,10.1472,10.2691,10.3666,10.347,10.3261,10.3922,10.3724,10.3483,10.3882,10.4319,10.473,10.4824,10.5393,10.5393,10.4508,10.4824,10.4824,10.4034,10.4319,10.4635,10.5109,10.5646,10.5443,10.4612,10.4527,10.4001,10.2786,10.2682,10.2069,10.1291,10.0992,10.0872,10.0872,10.0902,10.0693,10.0364,10.1291,10.2099,10.2937,10.3835,10.4313,10.4403,10.4702,10.4403,10.3805,10.3805,10.3595,10.3296,10.3685,10.4014,10.4313,10.4702,10.5181,10.578,10.6588,10.6019,10.5211,10.5421,10.4433,10.3416,10.3416,10.3715,10.4284,10.5211,10.5421,10.563,10.6288,10.6408,10.6618,10.7276,10.7066,10.7007,10.7695,10.7216,10.6917,10.7306,10.6797,10.6707,10.7485,10.7485,10.7575,10.7964,10.8593,10.8982,10.8982,10.8982,10.8892,10.8593,10.8593,10.8204,10.7396,10.6887,10.6019,10.4822,10.4942,10.4732,10.4224,10.5331,10.6199,9.4075,9.7884,10.1283,10.1464,10.0135,9.8729,9.8995,9.7474,9.6663,9.8882,9.8815,9.9254,10.1933,10.1754,10.1647,10.371,10.2771,10.2275,10.3659,10.3324,10.3497,10.4919,10.4508,10.4603,10.5899,10.5488,10.5109,10.5014,10.5109,10.4824,10.4129,10.4824,10.5235,10.533,10.6531,10.6307,10.4558,10.5175,10.4431,10.2646,10.2646,10.2676,10.2488,10.186,10.159,10.165,10.168,10.171,10.186,10.2997,10.3535,10.3715,10.5032,10.5121,10.4673,10.5301,10.5091,10.4493,10.4493,10.4493,10.4493,10.4583,10.5032,10.563,10.569,10.6528,10.7485,10.7575,10.7096,10.6408,10.581,10.4613,10.3595,10.3416,10.3386,10.3715,10.4942,10.5241,10.5451,10.6199,10.6318,10.6528,10.7276,10.7306,10.7485,10.8084,10.7695,10.7306,10.7396,10.6797,10.6438,10.6588,10.7007,10.7306,10.7396,10.7964,10.8263,10.8263,10.8263,10.7994,10.7396,10.7396,10.7366,10.7306,10.6109,10.551,10.5421,10.4822,10.4882,10.5421,10.6199,10.6797,8.9407,9.3758,9.8259,9.8289,9.8652,9.8907,9.913,9.8523,9.8507,10.0548,10.1216,10.1602,10.1855,10.272,10.3437,10.3467,10.2894,10.3016,10.4432,10.3674,10.3497,10.4919,10.5014,10.5014,10.5298,10.5204,10.4919,10.4319,10.4793,10.5014,10.4919,10.552,10.6183,10.672,10.7036,10.6934,10.6247,10.6372,10.5514,10.3545,10.3545,10.3174,10.2488,10.2368,10.2518,10.2997,10.2997,10.3296,10.3805,10.4104,10.4523,10.5091,10.5899,10.6109,10.5989,10.6139,10.581,10.5211,10.5211,10.5211,10.5301,10.581,10.6408,10.7066,10.7575,10.7964,10.8263,10.8802,10.8473,10.7785,10.7126,10.5989,10.4732,10.3685,10.3027,10.2907,10.3715,10.3835,10.4224,10.5421,10.563,10.6019,10.7186,10.6977,10.6677,10.6797,10.6707,10.6797,10.7306,10.6797,10.6797,10.7874,10.7186,10.6797,10.7366,10.7515,10.7605,10.7605,10.7605,10.7575,10.7396,10.7396,10.7186,10.6618,10.6318,10.5929,10.5421,10.581,10.581,10.5451,10.6618,10.7276,9.2337,9.6135,9.9431,9.8756,9.8412,9.8487,9.9457,9.9116,9.9314,10.1152,10.1521,10.1514,10.2024,10.2546,10.2951,10.3076,10.2861,10.3069,10.3771,10.405,10.4287,10.5014,10.5109,10.5109,10.5109,10.5109,10.4919,10.4603,10.5204,10.5614,10.5614,10.6215,10.6815,10.7195,10.7511,10.7343,10.6817,10.6817,10.6049,10.4612,10.4612,10.4431,10.4429,10.3873,10.3838,10.4229,10.4832,10.4935,10.4912,10.5211,10.56,10.5929,10.6288,10.6408,10.6408,10.6408,10.6199,10.5929,10.6229,10.6408,10.6498,10.7096,10.7575,10.7904,10.8263,10.8593,10.8982,10.9311,10.9101,10.8682,10.8054,10.6887,10.563,10.4613,10.3416,10.2787,10.3685,10.3895,10.4313,10.563,10.5899,10.6199,10.7216,10.7605,10.7725,10.7396,10.7366,10.7366,10.7396,10.6797,10.6677,10.7366,10.6797,10.6707,10.7306,10.7096,10.7066,10.7366,10.7096,10.7066,10.7396,10.7396,10.7096,10.6408,10.6109,10.5929,10.5899,10.5929,10.6109,10.6408,10.7096,10.7695,9.5637,9.8754,10.0863,10.0053,9.854,9.7684,9.9626,9.9383,9.9222,10.119,10.0967,10.0792,10.202,10.1978,10.1961,10.2609,10.2845,10.3086,10.3307,10.4382,10.514,10.5298,10.5204,10.5109,10.5109,10.5109,10.5109,10.5109,10.5836,10.631,10.631,10.7005,10.7384,10.7384,10.789,10.783,10.6961,10.6961,10.6579,10.5545,10.5427,10.6069,10.6747,10.6111,10.5619,10.5309,10.6493,10.65,10.563,10.6199,10.6408,10.6408,10.6408,10.6408,10.6408,10.6408,10.6408,10.6498,10.7186,10.7485,10.7665,10.8353,10.8593,10.8682,10.8682,10.9101,10.958,10.958,10.958,10.94,10.8712,10.7665,10.6528,10.581,10.4343,10.3386,10.4194,10.4493,10.4912,10.6019,10.6318,10.6588,10.7096,10.8114,10.8682,10.8084,10.8054,10.7874,10.7306,10.6707,10.6408,10.6408,10.6408,10.6618,10.7186,10.6707,10.6618,10.7186,10.6797,10.6797,10.7366,10.7485,10.7306,10.6767,10.6199,10.6109,10.6408,10.6109,10.6408,10.7396,10.7605,10.8293,8.9862,9.359,9.7448,9.8901,9.7824,9.7088,9.9218,9.865,9.8254,10.034,10.1467,10.1841,10.1644,10.2267,10.2674,10.2939,10.3028,10.3402,10.4635,10.5014,10.533,10.5899,10.5488,10.5109,10.5109,10.5109,10.5109,10.5109,10.631,10.71,10.71,10.77,10.8079,10.8079,10.8174,10.8174,10.8002,10.8002,10.7484,10.6641,10.6341,10.717,10.8572,10.8921,10.8289,10.6675,10.7404,10.7225,10.6288,10.6408,10.6408,10.6408,10.6408,10.6408,10.6408,10.6408,10.6408,10.6498,10.7186,10.7785,10.8353,10.9011,10.961,11.0029,11.0029,11.0119,11.0208,11.0208,11.0208,11.0029,10.94,10.8682,10.7785,10.6588,10.6109,10.56,10.4613,10.4882,10.5331,10.554,10.6019,10.6408,10.6498,10.6707,10.6797,10.6707,10.6677,10.6618,10.6528,10.6498,10.6408,10.6408,10.6408,10.6438,10.6528,10.6498,10.6438,10.6528,10.7007,10.7306,10.7396,10.7964,10.8174,10.8084,10.7994,10.7485,10.6408,10.7485,10.7785,10.7396,10.8593,10.9788,9.0676,9.3271,9.5587,9.7649,9.6697,9.5819,9.867,9.8383,9.8124,10.0129,10.1029,10.146,10.1251,10.1795,10.2464,10.2965,10.3307,10.3908,10.5014,10.5109,10.5235,10.552,10.5298,10.4919,10.454,10.5204,10.5709,10.5709,10.7005,10.7795,10.7795,10.8016,10.8206,10.8206,10.8206,10.8206,10.8206,10.8206,10.8223,10.8112,10.8451,10.9139,11.0122,11.0268,10.9438,10.8566,10.8748,10.811,10.7153,10.6573,10.6408,10.6408,10.6408,10.6408,10.6408,10.6408,10.6618,10.7066,10.7695,10.8383,10.9071,10.97,11.0119,11.0328,11.0328,11.0328,11.0328,11.0328,11.0328,11.0238,10.9999,10.943,10.8802,10.8204,10.8084,10.7695,10.6378,10.6019,10.5989,10.5989,10.6199,10.6408,10.6408,10.6707,10.6827,10.6498,10.6707,10.6797,10.6438,10.6408,10.6408,10.6408,10.6408,10.6588,10.6917,10.6618,10.6588,10.6917,10.6887,10.7186,10.7904,10.8204,10.8682,10.949,10.9101,10.8682,10.8084,10.9011,10.949,10.958,10.9819,11.0902,9.0851,9.2497,9.3586,9.615,9.5435,9.4918,9.8035,9.8084,9.7959,10.0033,10.0619,10.0811,10.1317,10.1885,10.2486,10.3118,10.3687,10.4319,10.5235,10.5235,10.5204,10.533,10.5204,10.4919,10.4319,10.5393,10.6215,10.6404,10.7511,10.8206,10.8206,10.8206,10.8206,10.8206,10.8206,10.8206,10.8206,10.8395,10.8901,10.9817,11.0292,11.0892,11.1587,11.0892,11.0445,11.0024,10.946,10.8714,10.7699,10.6767,10.6408,10.6408,10.6229,10.6229,10.6408,10.6229,10.6707,10.7485,10.8174,10.8802,10.949,11.0119,11.0328,11.0328,11.0328,11.0328,11.0328,11.0328,11.0328,11.0328,11.0328,10.9999,10.961,10.943,10.952,10.9281,10.7904,10.7007,10.6408,10.6408,10.6288,10.6199,10.6408,10.6707,10.6797,10.6438,10.6797,10.6977,10.6498,10.6408,10.6408,10.6408,10.6408,10.6618,10.7096,10.6827,10.6797,10.7096,10.7007,10.7276,10.8084,10.8473,10.9191,11.0328,11.0208,10.9999,10.961,11.0418,11.0986,11.1286,11.1009,11.2207,8.7098,8.9211,9.0979,9.4499,9.4452,9.4502,9.777,9.7072,9.6734,10.0274,10.0368,10.059,10.2486,10.2897,10.3181,10.3813,10.4003,10.4508,10.5899,10.552,10.533,10.5994,10.552,10.5109,10.5046,10.5709,10.6404,10.71,10.7795,10.8206,10.8206,10.8206,10.8206,10.8206,10.8206,10.8206,10.8206,10.8901,10.9912,11.1208,11.124,11.1619,11.2282,11.1587,11.1271,11.1126,10.9117,10.8224,10.7699,10.6767,10.6408,10.6318,10.572,10.584,10.6318,10.572,10.6288,10.7485,10.8174,10.8802,10.949,11.0119,11.0328,11.0328,11.0328,11.0328,11.0328,11.0328,11.0328,11.0328,11.0328,11.0328,11.0119,10.952,10.9819,10.9909,10.8593,10.7306,10.6408,10.6408,10.5899,10.569,10.6318,10.5929,10.572,10.6318,10.6408,10.6438,10.6408,10.6408,10.6408,10.6408,10.6408,10.6408,10.6438,10.7007,10.7096,10.6498,10.7605,10.7994,10.7485,10.8682,10.964,11.0328,11.1495,11.1495,11.0298,11.1585,11.1884,11.1286,11.2267,11.38,8.6914,8.7673,8.8337,9.2539,9.2923,9.3018,9.5488,9.6564,9.7682,9.9831,10.0811,10.1601,10.277,10.2991,10.3213,10.3908,10.4034,10.4319,10.533,10.4824,10.4698,10.5393,10.4824,10.4603,10.5109,10.5709,10.6404,10.7131,10.7795,10.8206,10.8206,10.8206,10.8206,10.8206,10.8206,10.8395,10.8901,10.9596,11.0386,11.1303,11.1777,11.2093,11.2346,11.1619,11.1303,11.1126,10.8865,10.7705,10.758,10.5857,10.5121,10.5091,10.4882,10.4912,10.5121,10.5331,10.6019,10.6887,10.7485,10.8174,10.8772,10.8982,10.9071,10.9161,10.961,10.94,10.9281,11.0089,11.0029,10.9819,11.0208,11.0627,11.0897,11.0687,11.0178,10.94,10.7994,10.7007,10.6288,10.584,10.56,10.551,10.572,10.56,10.563,10.6318,10.6408,10.6408,10.6408,10.6408,10.6588,10.7007,10.6677,10.6588,10.7007,10.6887,10.6677,10.6408,10.6887,10.7396,10.7994,10.8473,10.94,11.0927,11.1405,11.1615,11.1585,11.2902,11.3434,11.2962,11.379,11.5083,8.6298,8.676,8.7159,9.15,9.1724,9.1858,9.5083,9.645,9.7777,10.0116,10.1317,10.2296,10.3181,10.3307,10.3497,10.3939,10.4034,10.4319,10.5014,10.4508,10.4319,10.5014,10.4445,10.4319,10.5014,10.5709,10.6404,10.7131,10.7795,10.8206,10.8206,10.8206,10.8206,10.8206,10.8206,10.868,10.9596,11.007,11.0766,11.1682,11.2156,11.2377,11.2346,11.1619,11.1208,11.0716,10.8572,10.7546,10.7183,10.5134,10.4403,10.4403,10.4403,10.4523,10.4792,10.5241,10.5989,10.6797,10.7216,10.7785,10.8383,10.8383,10.8383,10.8473,10.9191,10.8892,10.8652,10.9939,10.9909,10.961,11.0418,11.0986,11.1226,11.1016,11.0178,10.9101,10.7964,10.7186,10.6498,10.56,10.5421,10.551,10.572,10.554,10.563,10.6318,10.6408,10.6408,10.6408,10.6408,10.6677,10.7306,10.6797,10.6707,10.7306,10.7007,10.6618,10.6408,10.6797,10.7366,10.7994,10.8473,10.952,11.1286,11.1316,11.1615,11.2273,11.3201,11.376,11.3931,11.4143,11.4379,0.0,0.0,0.0,9.1271,9.1133,9.1269,9.6533,9.6576,9.6829,10.1095,10.1917,10.2391,10.3718,10.4034,10.4034,10.4034,10.4034,10.4319,10.5014,10.4508,10.4319,10.5014,10.4445,10.4319,10.5014,10.5709,10.6404,10.7131,10.7795,10.8174,10.8206,10.8206,10.8206,10.8206,10.8206,10.8901,11.0292,11.0292,11.0987,11.2377,11.2377,11.2377,11.2346,11.1682,11.0987,11.0228,10.869,10.7623,10.7152,10.5262,10.4373,10.4313,10.4373,10.4792,10.5331,10.5421,10.6229,10.7306,10.7366,10.7785,10.8293,10.8293,10.8293,10.8473,10.9101,10.8862,10.8593,10.9909,10.9819,10.97,11.0927,11.1286,11.1106,11.0508,10.9909,10.9221,10.8473,10.7874,10.7007,10.572,10.5421,10.563,10.6288,10.584,10.563,10.6318,10.6408,10.6408,10.6408,10.6408,10.6707,10.7306,10.6797,10.6707,10.7306,10.7396,10.7096,10.6498,10.7665,10.8084,10.7485,10.8742,10.9999,11.1286,11.1286,11.1645,11.2273,11.2273,11.2857,11.3839,11.3202,11.2014,8.5002,0.0,0.0,0.0,0.0,0.0,9.2709,9.3764,9.5375,9.961,10.0495,10.1222,10.3592,10.4034,10.4034,10.4034,10.4445,10.473,10.4414,10.4603,10.4698,10.4319,10.4129,10.4319,10.5014,10.5298,10.5899,10.71,10.7384,10.77,10.8174,10.8206,10.8206,10.8206,10.8711,10.9407,11.0292,11.0797,11.1492,11.2377,11.2377,11.2377,11.2377,11.2188,11.1398,11.026,10.9014,10.7592,10.5708,10.4583,10.353,10.3087,10.3506,10.3805,10.4104,10.5032,10.563,10.6019,10.6498,10.6797,10.6977,10.6977,10.6977,10.7007,10.7186,10.7426,10.7755,10.8084,10.8413,10.8982,11.0238,11.0597,11.0687,11.0986,11.0538,10.961,10.7994,10.7874,10.7575,10.581,10.5421,10.551,10.563,10.554,10.563,10.6318,10.6408,10.6408,10.6408,10.6797,10.7186,10.7366,10.7216,10.7186,10.7396,10.6977,10.6797,10.7096,10.7485,10.7994,10.8802,11.0408,11.1192,11.1286,11.2126,11.2217,11.1585,11.2064,11.2436,11.2443,11.1772,11.1331,0.0,0.0,8.576,8.8279,0.0,0.0,9.2468,9.3448,9.487,9.9389,10.0305,10.1,10.3181,10.3592,10.3687,10.4003,10.4635,10.4824,10.4129,10.4414,10.4508,10.4097,10.4034,10.4192,10.4635,10.4919,10.5425,10.631,10.691,10.7511,10.8174,10.8206,10.8206,10.8206,10.8901,10.9596,11.0292,11.0987,11.1682,11.2377,11.2377,11.2377,11.2377,11.2377,11.1777,11.0734,11.0142,10.8439,10.6304,10.5373,10.4002,10.2608,10.3506,10.3805,10.4014,10.5331,10.584,10.5899,10.6288,10.6408,10.6378,10.6109,10.6019,10.6019,10.6318,10.6498,10.6707,10.7575,10.8473,10.9371,11.0119,11.0538,11.0747,11.0897,11.0597,10.9819,10.8174,10.8084,10.7785,10.581,10.563,10.584,10.584,10.584,10.5929,10.6318,10.6618,10.6797,10.6797,10.7186,10.7485,10.7785,10.7306,10.7096,10.7366,10.7007,10.7007,10.7366,10.7904,10.8881,11.033,11.1132,11.1946,11.2707,11.2368,11.1774,11.0897,11.1286,11.1016,11.0238,11.0751,10.9685,0.0,0.0,0.0,8.8878,8.8586,0.0,9.3858,9.4143,9.468,9.9357,10.04,10.0906,10.2391,10.2707,10.2897,10.3497,10.4224,10.4603,10.4097,10.4097,10.4129,10.4034,10.4034,10.4034,10.4034,10.4603,10.5014,10.5109,10.631,10.7384,10.8079,10.8079,10.8111,10.8206,10.8996,10.9691,11.0292,11.1018,11.1777,11.2377,11.2377,11.2377,11.2377,11.2377,11.1998,11.1303,11.1303,11.0016,10.7878,10.6836,10.498,10.2825,10.3865,10.4403,10.4583,10.5899,10.6408,10.6408,10.6498,10.6498,10.6318,10.572,10.551,10.554,10.6019,10.5899,10.5929,10.7874,10.9191,11.0119,11.0208,11.0717,11.1016,11.0388,11.0208,10.9819,10.8563,10.8263,10.7695,10.5899,10.6019,10.6408,10.6408,10.6408,10.6408,10.6408,10.6917,10.7276,10.7276,10.7366,10.7575,10.8084,10.7186,10.6767,10.7532,10.7502,10.7562,10.7938,10.9139,11.0499,11.2124,11.1915,11.285,11.4872,11.2647,11.1076,11.0096,11.0126,10.9457,10.775,10.9512,10.7604,0.0,0.0,0.0,8.6915,8.7853,0.0,9.0319,9.1362,9.2879,9.6039,9.7177,9.8188,10.0116,10.0906,10.119,10.0811,10.1791,10.2928,10.3908,10.4508,10.4698,10.4097,10.4034,10.4034,10.4034,10.4129,10.4508,10.5109,10.5899,10.6626,10.7384,10.7416,10.7605,10.8174,10.9407,11.0165,11.0292,11.1556,11.2251,11.2377,11.2377,11.2377,11.2377,11.2377,11.1998,11.1303,11.1303,11.0299,10.8658,10.7546,10.5744,10.3666,10.4244,10.4403,10.4583,10.5899,10.6408,10.6498,10.7007,10.6887,10.6408,10.6229,10.584,10.5331,10.4912,10.548,10.6498,10.7964,10.8563,10.8892,10.943,11.0029,11.0328,10.973,10.961,10.9191,10.7874,10.7575,10.7306,10.6408,10.6318,10.6408,10.6408,10.6408,10.6408,10.6408,10.6498,10.6618,10.6618,10.7066,10.7216,10.6827,10.7007,10.7638,10.8475,10.8021,10.8831,11.1347,11.1776,11.2419,11.4005,11.5067,11.5203,11.4872,11.3128,11.0821,10.8194,10.966,10.9457,10.7779,10.6885,10.4975,8.5824,8.5524,8.6126,8.7335,8.8302,0.0,0.0,9.133,9.2341,9.5122,9.5723,9.6387,9.8472,9.8852,9.9073,9.98,10.0779,10.1601,10.1917,10.3497,10.4414,10.4034,10.4034,10.4034,10.4034,10.4034,10.4319,10.5046,10.5425,10.5899,10.6594,10.7005,10.7511,10.8174,10.9565,11.0481,11.0797,11.1872,11.2377,11.2377,11.2377,11.2377,11.2377,11.2377,11.2188,11.1808,11.1808,11.0897,10.9375,10.8256,10.6907,10.5305,10.5385,10.5211,10.5121,10.6797,10.7396,10.7396,10.7785,10.7485,10.6827,10.6498,10.5929,10.5331,10.5032,10.56,10.6707,10.7994,10.8383,10.8593,10.961,10.9819,10.9789,10.949,10.9101,10.8593,10.7605,10.7396,10.7306,10.6977,10.6887,10.6797,10.6498,10.6707,10.6797,10.6498,10.6707,10.6887,10.6887,10.7186,10.7592,10.8148,10.8118,10.8626,11.0115,11.0176,11.0949,11.2876,11.3276,11.4077,11.54,11.5512,11.5094,11.3573,11.2328,11.0585,10.8306,10.9138,10.8072,10.5218,10.4641,10.35,8.6927,8.6854,8.7886,8.817,8.9055,9.0224,0.0,0.0,0.0,9.4427,9.468,9.5059,9.6892,9.6766,9.6987,9.8788,9.9673,9.9958,9.9547,10.1633,10.3307,10.3402,10.3813,10.4034,10.4034,10.4129,10.4414,10.4888,10.4919,10.5204,10.5899,10.6499,10.7226,10.8174,10.9407,11.0481,11.1303,11.1998,11.2377,11.2377,11.2377,11.2377,11.2377,11.2377,11.2377,11.2377,11.2377,11.1673,11.0211,10.9243,10.8101,10.735,10.678,10.6139,10.6019,10.7755,10.8383,10.8383,10.8383,10.7964,10.7276,10.6618,10.5929,10.5451,10.56,10.6109,10.6887,10.8204,10.8473,10.8652,10.9819,10.97,10.9191,10.9011,10.8682,10.8174,10.7515,10.7396,10.7396,10.7396,10.7592,10.7442,10.6677,10.7007,10.7186,10.6498,10.6887,10.7186,10.7186,10.7592,10.8314,10.9681,10.9479,11.0115,11.1742,11.2426,11.2982,11.3977,11.4464,11.536,11.6472,11.5203,11.3807,11.2273,11.1794,11.0438,10.8316,10.8316,10.6505,10.3031,10.3449,10.2806,8.9296,8.8832,8.896,8.7822,8.9434,9.0919,8.9276,0.0,9.1678,9.1962,0.0,9.3985,9.4901,0.0,0.0,9.6039,9.6766,9.7429,9.7998,9.9389,10.059,10.119,10.2897,10.4034,10.4034,10.4603,10.473,10.4192,10.4129,10.4445,10.5204,10.533,10.6215,10.8111,10.8996,11.0007,11.1303,11.1998,11.2377,11.2377,11.2377,11.2377,11.2377,11.2377,11.2377,11.2377,11.2377,11.2314,11.1925,11.0666,10.986,10.8901,10.7123,10.6707,10.7276,10.8084,10.8383,10.8383,10.8383,10.7964,10.7276,10.6618,10.5929,10.554,10.6109,10.6767,10.7575,10.8892,10.8862,10.8563,10.9311,10.8982,10.8353,10.7785,10.7994,10.8174,10.7515,10.7396,10.7396,10.7396,10.8148,10.8505,10.7502,10.7306,10.7186,10.6498,10.6498,10.6498,10.6498,10.8298,10.9559,10.9043,11.0207,11.1963,11.3618,11.3151,11.3836,11.6052,11.6056,11.586,11.6047,11.4624,11.3587,11.2273,11.2183,11.0674,10.7235,10.7235,10.6277,10.4257,10.434,10.3193,8.9992,9.0028,9.0628,8.8974,8.9813,9.073,8.9845,9.0003,9.0351,9.0351,0.0,0.0,0.0,0.0,0.0,0.0,9.449,9.5028,9.5312,9.7619,9.9515,10.021,10.1095,10.1917,10.2802,10.3497,10.4097,10.4603,10.3908,10.3908,10.5014,10.5109,10.5899,10.7605,10.8711,10.9912,11.1303,11.1998,11.2377,11.2377,11.2377,11.2377,11.2377,11.2377,11.2377,11.2377,11.2377,11.202,11.1511,11.1222,11.0632,10.9649,10.911,10.8645,10.8084,10.9101,10.949,10.949,10.9101,10.8503,10.7785,10.6737,10.6229,10.6019,10.6318,10.6887,10.7485,10.8084,10.8293,10.8473,10.8712,10.8293,10.7815,10.7964,10.7874,10.7815,10.7964,10.7964,10.8191,10.869,10.9413,10.9923,10.9752,10.8941,10.81,10.7466,10.7376,10.7658,10.8597,11.0085,11.1079,11.1742,11.296,11.4085,11.5272,11.5269,11.5863,11.7655,11.7206,11.6823,11.6823,11.4709,11.3254,11.2902,11.1417,10.9644,10.7617,10.6545,10.5178,10.3421,10.3421,10.2307,9.1777,9.1803,9.2237,9.0129,9.0287,9.07,9.0035,9.0129,9.0238,9.0145,9.0603,0.0,0.0,0.0,9.1267,0.0,0.0,9.31,9.329,9.5344,9.724,9.8346,9.9136,10.0116,10.1285,10.2012,10.2897,10.4192,10.3307,10.3307,10.473,10.4824,10.5425,10.6878,10.8111,10.9501,11.1018,11.1714,11.2188,11.2377,11.2377,11.2377,11.2377,11.2377,11.2377,11.2377,11.2377,11.202,11.1362,11.2389,11.1845,11.0727,11.1583,11.0864,10.938,11.02,11.0328,11.0208,10.94,10.8563,10.7665,10.6707,10.6408,10.6438,10.6618,10.7007,10.7396,10.7605,10.7874,10.8114,10.8719,10.8238,10.8134,10.8962,10.9097,10.8811,10.9489,10.958,10.9776,11.0585,11.0839,11.1194,11.146,11.0428,10.9366,10.894,10.8666,10.9076,11.029,11.1685,11.2805,11.3649,11.4617,11.5837,11.677,11.6802,11.7247,11.8035,11.7267,11.674,11.6138,11.4086,11.3111,11.332,11.1563,10.9868,10.8303,10.6972,10.5113,10.2733,10.2733,10.1783,9.6072,9.4953,9.3732,9.0351,9.0819,9.1366,8.9083,9.0341,9.191,9.1651,9.2057,9.2752,9.3384,0.0,0.0,0.0,0.0,0.0,0.0,9.2152,9.2563,9.4617,9.7208,9.9136,9.9894,10.059,10.1285,10.2012,10.2075,10.2612,10.4003,10.4034,10.4698,10.6088,10.691,10.8269,11.0292,11.1018,11.1682,11.2377,11.2377,11.2377,11.2377,11.2377,11.2377,11.2377,11.2377,11.2377,11.2472,11.4275,11.4124,11.287,11.3583,11.3052,11.1668,11.0731,11.0328,11.0119,10.8862,10.7575,10.6498,10.6408,10.6408,10.6528,10.7186,10.7396,10.7515,10.8174,10.7874,10.7742,10.9322,10.9407,10.9235,11.1086,11.1953,11.2384,11.2445,11.2445,11.2445,11.2414,11.2092,11.1782,11.1496,11.1399,11.1337,11.1399,11.0814,11.0321,11.0383,11.3055,11.4398,11.315,11.5174,11.6833,11.7497,11.756,11.7375,11.6552,11.5862,11.4532,11.2568,11.2333,11.2602,11.332,11.3261,11.185,10.8989,10.8931,10.6889,10.2733,10.2733,10.1783,9.8465,9.8341,9.7582,9.3817,9.3394,9.3096,9.0351,9.0826,9.1413,9.0462,9.1836,9.2784,0.0,0.0,0.0,0.0,0.0,0.0,0.0,9.1802,9.2478,9.388,9.645,9.8409,9.9104,10.0684,10.2107,10.3213,10.3307,10.3908,10.533,10.5014,10.4951,10.5425,10.6594,10.7985,10.9596,11.0292,11.1208,11.2377,11.2377,11.2377,11.2377,11.2377,11.2377,11.2377,11.2883,11.3544,11.4521,11.5978,11.6522,11.6231,11.61,11.58,11.5242,11.1577,11.0461,11.0653,11.0932,10.894,10.6797,10.9088,10.8775,10.7598,10.8574,10.8909,10.9305,10.9741,10.9954,11.0168,11.0796,11.0895,11.0895,11.1922,11.226,11.2568,11.2968,11.3092,11.3161,11.349,11.3743,11.3961,11.3459,11.3549,11.3117,11.259,11.1814,11.2061,11.3552,11.4267,11.464,11.4608,11.5796,11.6422,11.6201,11.7497,11.8099,11.7659,11.709,11.6216,11.4767,11.4005,11.3709,11.3979,11.2869,11.1192,10.8989,10.7873,10.5785,10.2733,10.2733,10.1783,9.9707,9.9441,9.873,9.5463,9.4979,9.4493,9.1918,9.2253,9.2874,9.1981,9.2721,9.3448,9.291,0.0,0.0,0.0,0.0,0.0,0.0,9.0778,9.1649,9.2804,9.4712,9.6608,9.8283,9.8788,10.04,10.3718,10.3118,10.3592,10.5994,10.5709,10.5488,10.5488,10.631,10.7384,10.8522,10.947,11.0481,11.165,11.2156,11.2377,11.2377,11.2377,11.2377,11.2377,11.2883,11.4026,11.5647,11.7123,11.8289,11.8689,11.8467,11.8178,11.7209,11.3229,11.1644,11.1491,11.2211,11.0171,10.7889,11.0016,10.9708,10.8678,10.9211,10.9706,11.0044,11.0013,11.0506,11.128,11.1966,11.2182,11.2681,11.3614,11.3928,11.4052,11.4456,11.458,11.4646,11.4773,11.5022,11.5115,11.4818,11.4684,11.4313,11.3518,11.2922,11.3074,11.4969,11.5,11.5,11.5474,11.5917,11.6201,11.6201,11.7908,11.8856,11.8422,11.8239,11.7693,11.6485,11.5904,11.5372,11.516,11.4277,11.2292,10.9249,10.8406,10.649,10.3032,10.3032,10.2503]},{"header":{"parameterUnit":"m.s-1","parameterCategory":1,"la1":30.6,"la2":29.2853,"lo1":-89.7004,"lo2":-87.6739,"dx":0.0162,"dy":0.0183,"nx":112,"ny":82,"refTime":"2022-12-20T00:00:00:Z","depth":0,"parameterNumber":3,"parameterNumberName":"V-component_of_WINDS"},"data":[0.0,0.0,0.0,0.0,0.0,0.0,0.0,0.0,0.0,0.0,0.0,0.0,0.0,0.0,0.0,0.0,0.0,0.0,0.0,0.0,0.0,0.0,0.0,0.0,0.0,0.0,0.0,0.0,0.0,0.0,0.0,0.0,0.0,0.0,0.0,0.0,0.0,0.0,0.0,0.0,0.0,0.0,0.0,0.0,0.0,0.0,0.0,0.0,0.0,0.0,0.0,0.0,0.0,0.0,0.0,0.0,0.0,0.0,0.0,0.0,0.0,0.0,0.0,0.0,0.0,0.0,0.0,0.0,0.0,0.0,0.0,0.0,0.0,0.0,0.0,0.0,0.0,0.0,0.0,0.0,0.0,0.0,0.0,0.0,0.0,0.0,0.0,0.0,0.0,0.0,3.594,3.7467,3.9794,4.1081,4.0996,4.1016,3.9583,3.6038,0.0,0.0,0.0,0.0,0.0,0.0,0.0,0.0,0.0,0.0,0.0,0.0,0.0,0.0,0.0,0.0,0.0,0.0,0.0,0.0,0.0,0.0,0.0,0.0,0.0,0.0,0.0,0.0,0.0,0.0,0.0,0.0,0.0,0.0,0.0,0.0,0.0,0.0,0.0,0.0,0.0,0.0,0.0,0.0,0.0,0.0,0.0,0.0,0.0,0.0,0.0,0.0,0.0,0.0,0.0,0.0,0.0,0.0,0.0,0.0,0.0,0.0,0.0,0.0,0.0,0.0,0.0,0.0,0.0,0.0,0.0,0.0,0.0,0.0,0.0,0.0,0.0,0.0,0.0,0.0,0.0,0.0,0.0,0.0,0.0,0.0,0.0,0.0,0.0,0.0,0.0,0.0,0.0,0.0,0.0,0.0,0.0,0.0,0.0,0.0,0.0,0.0,0.0,0.0,3.6044,4.0534,4.1081,4.1561,4.2617,4.1426,3.9937,3.8158,0.0,0.0,0.0,0.0,0.0,0.0,0.0,0.0,0.0,0.0,0.0,0.0,0.0,0.0,0.0,0.0,0.0,0.0,0.0,0.0,0.0,0.0,0.0,0.0,0.0,0.0,0.0,0.0,0.0,0.0,0.0,0.0,0.0,0.0,0.0,0.0,0.0,0.0,0.0,0.0,0.0,0.0,0.0,0.0,0.0,0.0,0.0,0.0,0.0,0.0,0.0,0.0,0.0,0.0,0.0,0.0,0.0,0.0,0.0,0.0,0.0,0.0,0.0,0.0,0.0,0.0,0.0,0.0,0.0,0.0,0.0,0.0,0.0,0.0,0.0,0.0,0.0,0.0,0.0,0.0,0.0,0.0,0.0,0.0,0.0,0.0,0.0,0.0,0.0,0.0,0.0,0.0,0.0,0.0,0.0,0.0,0.0,0.0,0.0,0.0,0.0,0.0,0.0,3.7496,3.9617,4.3183,4.3448,4.3301,4.3418,4.2695,4.131,3.9155,3.7556,0.0,0.0,0.0,0.0,0.0,0.0,0.0,0.0,0.0,0.0,0.0,0.0,0.0,0.0,0.0,0.0,0.0,0.0,0.0,0.0,0.0,0.0,0.0,0.0,0.0,0.0,0.0,0.0,0.0,0.0,0.0,0.0,0.0,0.0,0.0,0.0,0.0,0.0,0.0,0.0,0.0,0.0,0.0,0.0,0.0,0.0,0.0,0.0,0.0,0.0,0.0,0.0,0.0,0.0,0.0,0.0,0.0,0.0,0.0,0.0,0.0,0.0,0.0,0.0,0.0,0.0,0.0,0.0,0.0,0.0,0.0,0.0,0.0,0.0,0.0,0.0,0.0,0.0,0.0,0.0,0.0,0.0,0.0,0.0,0.0,0.0,0.0,0.0,0.0,0.0,0.0,0.0,0.0,0.0,0.0,0.0,0.0,0.0,0.0,0.0,0.0,0.0,4.1333,4.3093,4.4888,4.5078,4.4785,4.4219,4.4218,4.2938,4.0276,3.9178,0.0,0.0,0.0,0.0,0.0,0.0,0.0,0.0,0.0,0.0,0.0,0.0,0.0,0.0,0.0,0.0,0.0,0.0,0.0,0.0,0.0,0.0,0.0,0.0,0.0,0.0,0.0,0.0,0.0,0.0,0.0,0.0,0.0,0.0,0.0,0.0,0.0,0.0,0.0,0.0,0.0,0.0,0.0,0.0,0.0,0.0,0.0,0.0,0.0,0.0,0.0,0.0,0.0,0.0,0.0,0.0,0.0,0.0,0.0,0.0,0.0,0.0,0.0,0.0,0.0,0.0,0.0,0.0,0.0,0.0,0.0,0.0,0.0,0.0,0.0,0.0,0.0,0.0,0.0,0.0,0.0,0.0,0.0,0.0,0.0,0.0,0.0,0.0,0.0,0.0,0.0,0.0,0.0,0.0,0.0,0.0,0.0,0.0,0.0,0.0,0.0,0.0,4.2596,4.5078,4.5586,4.5273,4.5156,4.5508,4.5563,4.4543,4.2102,4.1467,0.0,0.0,0.0,0.0,0.0,0.0,0.0,0.0,0.0,0.0,0.0,0.0,0.0,0.0,0.0,0.0,0.0,0.0,0.0,0.0,0.0,0.0,0.0,0.0,0.0,0.0,0.0,0.0,0.0,0.0,0.0,0.0,0.0,0.0,0.0,0.0,0.0,0.0,0.0,0.0,0.0,0.0,0.0,0.0,0.0,0.0,0.0,0.0,0.0,0.0,0.0,0.0,0.0,0.0,0.0,0.0,0.0,0.0,0.0,0.0,0.0,0.0,0.0,0.0,0.0,0.0,0.0,0.0,0.0,0.0,0.0,0.0,0.0,0.0,0.0,0.0,0.0,0.0,0.0,0.0,0.0,0.0,0.0,0.0,0.0,0.0,0.0,0.0,0.0,0.0,0.0,0.0,0.0,0.0,0.0,0.0,0.0,0.0,0.0,0.0,0.0,0.0,4.4499,4.6582,4.7558,4.7519,4.7148,4.6504,4.7187,4.6249,4.2795,0.0,0.0,0.0,0.0,0.0,0.0,0.0,0.0,0.0,0.0,0.0,0.0,0.0,0.0,0.0,0.0,0.0,0.0,0.0,0.0,0.0,0.0,0.0,0.0,0.0,0.0,0.0,0.0,0.0,0.0,0.0,0.0,0.0,0.0,0.0,0.0,0.0,0.0,0.0,0.0,0.0,0.0,0.0,0.0,0.0,0.0,0.0,0.0,0.0,0.0,0.0,0.0,0.0,0.0,0.0,0.0,0.0,0.0,0.0,0.0,0.0,0.0,0.0,0.0,0.0,0.0,0.0,0.0,0.0,0.0,0.0,0.0,0.0,0.0,0.0,0.0,0.0,0.0,0.0,0.0,0.0,0.0,0.0,0.0,0.0,0.0,0.0,0.0,0.0,0.0,0.0,0.0,0.0,0.0,0.0,0.0,0.0,0.0,0.0,0.0,0.0,0.0,4.3359,4.582,4.7676,4.8555,4.8535,4.8203,4.7598,4.8601,4.7817,4.3949,0.0,0.0,0.0,0.0,0.0,0.0,0.0,0.0,0.0,0.0,0.0,0.0,0.0,0.0,0.0,0.0,0.0,0.0,0.0,0.0,0.0,0.0,0.0,0.0,0.0,0.0,0.0,0.0,0.0,0.0,0.0,0.0,0.0,0.0,0.0,0.0,0.0,0.0,0.0,0.0,0.0,0.0,0.0,0.0,0.0,0.0,0.0,0.0,0.0,0.0,0.0,0.0,0.0,0.0,0.0,0.0,0.0,0.0,0.0,0.0,0.0,0.0,0.0,0.0,0.0,0.0,0.0,0.0,0.0,0.0,0.0,0.0,0.0,0.0,0.0,0.0,0.0,0.0,0.0,0.0,0.0,0.0,0.0,0.0,0.0,0.0,0.0,0.0,0.0,0.0,0.0,0.0,0.0,0.0,0.0,0.0,0.0,0.0,0.0,0.0,0.0,0.0,4.3555,4.6367,4.8223,4.8223,4.7851,4.7949,4.8789,4.9723,4.9022,0.0,0.0,0.0,0.0,0.0,0.0,0.0,0.0,0.0,0.0,0.0,0.0,0.0,0.0,0.0,0.0,0.0,0.0,0.0,0.0,0.0,0.0,0.0,0.0,0.0,0.0,0.0,0.0,0.0,0.0,0.0,0.0,0.0,0.0,0.0,0.0,0.0,0.0,0.0,0.0,0.0,0.0,0.0,0.0,0.0,0.0,0.0,0.0,0.0,0.0,0.0,0.0,0.0,0.0,0.0,0.0,0.0,0.0,0.0,0.0,0.0,0.0,0.0,0.0,0.0,0.0,0.0,0.0,0.0,0.0,0.0,0.0,0.0,0.0,0.0,0.0,0.0,0.0,0.0,0.0,0.0,0.0,0.0,0.0,0.0,0.0,0.0,0.0,0.0,0.0,0.0,0.0,0.0,0.0,0.0,0.0,0.0,0.0,0.0,0.0,0.0,0.0,0.0,4.4433,4.7539,4.959,4.959,4.9492,4.9258,4.8887,5.0874,5.0379,4.5974,0.0,0.0,0.0,0.0,0.0,0.0,0.0,0.0,0.0,0.0,0.0,0.0,0.0,0.0,0.0,0.0,0.0,0.0,0.0,0.0,0.0,0.0,0.0,0.0,0.0,0.0,0.0,0.0,0.0,0.0,0.0,0.0,0.0,0.0,0.0,0.0,0.0,0.0,0.0,0.0,0.0,0.0,0.0,0.0,0.0,0.0,0.0,0.0,0.0,0.0,0.0,0.0,0.0,0.0,0.0,0.0,0.0,0.0,0.0,0.0,0.0,0.0,0.0,0.0,0.0,0.0,0.0,0.0,0.0,0.0,0.0,0.0,0.0,0.0,0.0,0.0,0.0,0.0,0.0,0.0,0.0,0.0,0.0,0.0,0.0,0.0,0.0,0.0,0.0,0.0,0.0,0.0,0.0,0.0,0.0,0.0,0.0,0.0,0.0,0.0,0.0,0.0,4.5039,4.8144,5.0176,5.0176,5.0019,4.9766,4.9414,5.1409,5.1249,4.7575,0.0,0.0,0.0,0.0,0.0,0.0,0.0,0.0,0.0,0.0,0.0,0.0,0.0,0.0,0.0,0.0,0.0,0.0,0.0,0.0,0.0,0.0,0.0,0.0,0.0,0.0,0.0,0.0,0.0,0.0,0.0,0.0,0.0,0.0,0.0,0.0,0.0,0.0,0.0,0.0,0.0,0.0,0.0,0.0,0.0,0.0,0.0,0.0,0.0,0.0,0.0,0.0,0.0,0.0,0.0,0.0,0.0,0.0,0.0,0.0,0.0,0.0,0.0,0.0,0.0,0.0,0.0,0.0,0.0,0.0,0.0,0.0,0.0,0.0,0.0,0.0,0.0,0.0,0.0,0.0,0.0,0.0,0.0,0.0,0.0,0.0,0.0,0.0,0.0,0.0,0.0,0.0,0.0,0.0,0.0,0.0,0.0,0.0,0.0,0.0,0.0,0.0,4.541,4.832,5.0176,5.0176,4.9824,4.9726,5.0098,5.1532,5.1779,5.0125,0.0,0.0,0.0,0.0,0.0,0.0,0.0,0.0,0.0,0.0,0.0,0.0,0.0,0.0,0.0,0.0,0.0,0.0,0.0,0.0,0.0,0.0,0.0,0.0,0.0,0.0,0.0,0.0,0.0,0.0,0.0,0.0,0.0,0.0,0.0,0.0,0.0,0.0,0.0,0.0,0.0,0.0,0.0,0.0,0.0,0.0,0.0,0.0,0.0,0.0,0.0,0.0,0.0,0.0,0.0,0.0,0.0,0.0,0.0,0.0,3.0229,2.7845,0.0,0.0,0.0,0.0,0.0,0.0,0.0,0.0,0.0,0.0,0.0,0.0,0.0,0.0,0.0,0.0,0.0,0.0,0.0,0.0,0.0,0.0,0.0,0.0,0.0,0.0,0.0,0.0,0.0,0.0,0.0,0.0,0.0,0.0,0.0,0.0,0.0,0.0,0.0,0.0,4.5527,4.832,5.0176,5.0176,5.0098,4.9941,4.9687,5.1943,5.2478,5.0146,5.1411,0.0,0.0,0.0,0.0,0.0,0.0,0.0,0.0,0.0,0.0,0.0,0.0,0.0,0.0,0.0,0.0,0.0,0.0,0.0,0.0,0.0,0.0,0.0,0.0,0.0,0.0,0.0,0.0,0.0,0.0,0.0,0.0,0.0,0.0,0.0,0.0,0.0,0.0,0.0,0.0,0.0,0.0,0.0,0.0,0.0,0.0,0.0,0.0,0.0,0.0,0.0,0.0,0.0,0.0,0.0,0.0,0.0,0.0,0.0,3.4936,3.37,0.0,0.0,0.0,0.0,0.0,0.0,0.0,0.0,0.0,0.0,0.0,0.0,0.0,0.0,0.0,0.0,0.0,0.0,0.0,0.0,0.0,0.0,0.0,0.0,0.0,0.0,0.0,0.0,0.0,0.0,0.0,0.0,0.0,0.0,0.0,0.0,0.0,0.0,0.0,0.0,4.6992,4.9473,5.1172,5.1367,5.1035,5.1066,5.1569,5.3177,5.3771,5.2996,5.3648,0.0,0.0,0.0,0.0,0.0,0.0,0.0,0.0,0.0,0.0,0.0,0.0,0.0,0.0,0.0,0.0,0.0,0.0,0.0,0.0,0.0,0.0,0.0,0.0,0.0,0.0,0.0,0.0,0.0,0.0,0.0,0.0,0.0,0.0,0.0,0.0,0.0,0.0,0.0,0.0,0.0,0.0,0.0,0.0,0.0,0.0,0.0,0.0,0.0,0.0,0.0,0.0,0.0,3.7975,3.9041,3.8822,4.0433,4.1941,4.3343,4.0482,4.084,4.2827,3.7824,0.0,0.0,0.0,0.0,0.0,0.0,0.0,0.0,0.0,0.0,0.0,0.0,0.0,0.0,0.0,0.0,0.0,0.0,0.0,0.0,0.0,0.0,4.1775,4.1886,4.3272,4.3555,3.9609,0.0,0.0,0.0,0.0,0.0,0.0,0.0,0.0,0.0,0.0,0.0,4.8887,5.113,5.2719,5.3054,5.2659,5.292,5.4081,5.4879,5.5484,5.6198,5.6074,5.5574,0.0,0.0,0.0,0.0,0.0,0.0,0.0,0.0,0.0,0.0,0.0,0.0,0.0,0.0,0.0,0.0,0.0,0.0,0.0,0.0,0.0,0.0,0.0,0.0,0.0,0.0,0.0,0.0,0.0,0.0,0.0,0.0,2.2216,2.3098,0.0,0.0,0.0,0.0,0.0,0.0,0.0,0.0,0.0,0.0,0.0,0.0,0.0,3.5654,3.6805,4.1303,4.4043,4.462,4.7256,4.8617,4.8871,4.9859,5.0222,5.0459,4.9704,0.0,4.5735,4.5211,0.0,0.0,0.0,0.0,0.0,0.0,0.0,0.0,0.0,0.0,0.0,0.0,0.0,0.0,0.0,0.0,0.0,0.0,0.0,0.0,0.0,0.0,4.6308,4.483,4.5098,4.5332,4.4707,4.2851,4.1152,4.0664,4.0664,4.0449,0.0,0.0,0.0,0.0,0.0,0.0,5.0273,5.2907,5.4789,5.485,5.5919,5.6485,5.585,5.6968,5.7453,5.6729,5.7911,5.7583,5.5715,5.4963,0.0,0.0,0.0,0.0,0.0,0.0,0.0,0.0,0.0,0.0,0.0,0.0,0.0,0.0,0.0,0.0,0.0,0.0,0.0,0.0,0.0,0.0,0.0,0.0,0.0,0.0,0.0,0.0,0.0,2.2978,2.4564,2.5534,2.7431,2.9061,0.0,0.0,0.0,0.0,0.0,0.0,0.0,0.0,0.0,3.8054,3.9507,4.1052,4.2674,4.6339,4.8483,4.8976,5.103,5.2118,5.2062,5.3383,5.3699,5.3448,5.3294,5.2282,5.0475,4.8439,4.607,4.3862,0.0,0.0,0.0,0.0,3.7227,3.7548,3.9356,4.0684,4.1408,4.1586,0.0,0.0,0.0,0.0,0.0,0.0,0.0,4.4853,4.5008,4.6484,4.7812,4.7305,4.7519,4.7851,4.7851,4.7148,4.6016,4.4375,4.3867,4.334,4.2226,4.332,0.0,0.0,0.0,5.081,5.3702,5.5484,5.6856,5.7583,5.7922,5.8277,5.8547,5.8809,5.9003,5.8955,5.9452,5.9529,5.8617,5.7476,5.6131,0.0,0.0,0.0,0.0,0.0,0.0,0.0,0.0,0.0,0.0,0.0,0.0,0.0,0.0,0.0,0.0,0.0,0.0,0.0,0.0,0.0,0.0,0.0,0.0,0.0,0.0,0.0,0.0,2.5099,2.7018,2.8567,3.1042,3.3397,0.0,0.0,0.0,0.0,0.0,0.0,4.2074,4.1933,4.2352,4.3495,4.4661,4.5994,4.7509,5.0297,5.1651,5.1984,5.3575,5.4187,5.3882,5.4839,5.5201,5.4584,5.4584,5.4332,5.375,5.0815,4.8894,4.7535,4.5444,4.2997,4.0662,4.0583,4.0627,4.0739,4.2724,4.3883,4.4847,4.5501,4.561,4.5374,4.556,0.0,0.0,0.0,0.0,4.8242,4.8867,4.9277,4.9433,4.9101,4.9375,4.9668,4.9551,4.9785,4.9512,4.7793,4.7109,4.666,4.5884,4.6796,0.0,4.8551,5.0463,5.3074,5.6515,5.7719,5.8823,6.0055,6.0307,6.0658,6.1221,6.0842,6.078,6.0914,6.073,6.0916,6.1226,5.9907,5.9163,5.9156,0.0,0.0,0.0,0.0,0.0,0.0,0.0,0.0,0.0,0.0,0.0,0.0,0.0,0.0,0.0,0.0,0.0,0.0,0.0,0.0,0.0,0.0,0.0,0.0,0.0,0.0,0.0,0.0,0.0,3.2529,3.4509,0.0,0.0,0.0,0.0,4.5443,4.5925,4.6166,4.62,4.6246,4.6275,4.631,4.87,4.9973,4.9991,5.3329,5.482,5.4801,5.5882,5.6076,5.5628,5.5648,5.5222,5.4181,5.4181,5.3935,5.371,5.3613,5.2246,5.0064,4.8197,4.5967,4.4045,4.3827,4.4125,4.4707,4.6241,4.819,4.9934,4.9561,4.9622,4.985,5.041,4.9922,0.0,0.0,5.1758,5.2734,5.1562,5.2187,5.25,5.0058,4.9824,5.0039,4.9609,4.9551,4.9766,5.0449,5.0234,5.0348,5.1291,0.0,5.1277,5.3223,5.3349,5.4338,5.729,5.913,6.0749,6.2327,6.3734,6.4347,6.3363,6.3249,6.298,6.197,6.1465,6.1434,6.2305,6.1903,6.1203,6.0286,5.9131,0.0,0.0,0.0,0.0,0.0,0.0,0.0,0.0,0.0,0.0,0.0,0.0,0.0,0.0,0.0,0.0,0.0,0.0,0.0,0.0,0.0,0.0,0.0,0.0,0.0,0.0,0.0,0.0,3.6466,3.8876,0.0,4.4067,4.5461,4.6871,4.8632,4.9548,5.001,4.9744,4.9583,4.9579,5.0017,5.0244,5.0791,5.1905,5.3447,5.4655,5.487,5.5237,5.5313,5.5098,5.5098,5.4851,5.4257,5.4257,5.4011,5.3613,5.3534,5.2904,5.1633,5.111,4.9746,4.8118,4.7805,4.7612,4.7864,4.9465,5.0491,5.1276,5.2164,5.2626,5.2734,5.3164,5.3281,5.3418,5.4277,5.4961,5.5195,5.418,5.3867,5.334,5.1582,5.1289,5.1426,5.1543,5.1797,5.264,5.4484,5.2578,5.1638,5.4654,5.3851,5.341,5.4829,5.5001,5.6294,5.974,6.0669,6.1973,6.4297,6.5089,6.523,6.4541,6.4473,6.4036,6.3026,6.2796,6.3013,6.3432,6.3033,6.269,6.2521,6.2119,6.0035,0.0,0.0,0.0,0.0,0.0,0.0,0.0,0.0,0.0,0.0,0.0,0.0,0.0,0.0,0.0,0.0,0.0,0.0,0.0,0.0,0.0,0.0,0.0,0.0,0.0,3.5805,3.8268,4.1096,4.3224,4.534,4.7686,4.8632,4.9815,5.137,5.2181,5.2508,5.2092,5.1693,5.1709,5.2137,5.1436,5.1631,5.2778,5.3464,5.4233,5.4666,5.4882,5.4882,5.4666,5.4666,5.4299,5.3802,5.3802,5.3727,5.3615,5.3316,5.3322,5.3091,5.2452,5.1693,5.0562,5.0188,4.9868,5.0058,5.1738,5.2458,5.3007,5.4254,5.4765,5.498,5.541,5.5723,5.6133,5.6992,5.7246,5.707,5.6348,5.5644,5.4746,5.3301,5.3051,5.2933,5.2715,5.3129,5.4424,5.783,5.5277,5.426,5.862,5.7352,5.6415,5.8831,5.7985,5.8544,6.2175,6.2502,6.331,6.5858,6.6034,6.5827,6.5322,6.4955,6.4541,6.4036,6.3889,6.4156,6.4775,6.4222,6.4037,6.3977,6.3576,6.1391,5.7323,0.0,0.0,0.0,0.0,0.0,0.0,0.0,0.0,0.0,0.0,0.0,0.0,0.0,0.0,0.0,0.0,0.0,0.0,0.0,0.0,0.0,0.0,0.0,3.84,3.9806,4.2217,4.6206,4.7406,4.8895,5.1496,5.2019,5.2653,5.3677,5.3732,5.3531,5.3109,5.2742,5.2522,5.2504,5.2522,5.2522,5.2522,5.3594,5.4016,5.4016,5.4666,5.4449,5.4016,5.4016,5.3563,5.3109,5.3127,5.3366,5.3696,5.3329,5.3604,5.4209,5.2363,5.1694,5.1658,5.0616,5.0706,5.1563,5.3054,5.4378,5.5379,5.5784,5.6289,5.6699,5.7109,5.7246,5.7441,5.8301,5.8535,5.8437,5.7969,5.7539,5.6797,5.5137,5.4805,5.4437,5.3188,5.339,5.512,6.0375,5.8924,5.8526,6.3599,6.1157,6.0215,6.4975,6.2368,0.0,6.4371,6.4362,6.4683,6.6362,6.6539,6.6309,6.5827,6.4886,6.4518,6.5001,6.4574,6.5042,6.6448,6.5909,6.5372,6.458,6.3425,6.1768,5.9583,0.0,0.0,0.0,0.0,0.0,0.0,0.0,0.0,0.0,0.0,0.0,0.0,0.0,0.0,0.0,0.0,0.0,0.0,0.0,0.0,0.0,3.969,4.1749,4.1851,4.393,4.6258,4.8189,4.9019,5.0206,5.1586,5.1748,5.22,5.3256,5.3274,5.3109,5.2705,5.2577,5.2394,5.21,5.2375,5.2522,5.2522,5.3142,5.3345,5.3345,5.3563,5.3563,5.3345,5.3345,5.3345,5.3127,5.3439,5.3641,5.3751,5.3916,5.4358,5.4727,5.3641,5.3366,5.3585,5.3714,5.4556,5.5412,5.5848,5.6576,5.7107,5.7324,5.7422,5.7539,5.7656,5.8144,5.8555,5.8144,5.8496,5.8828,5.8047,5.7539,5.7012,5.6655,5.6116,5.5996,5.727,5.723,5.8796,6.3991,6.4371,6.4773,6.8104,6.52,6.3424,6.6395,6.4121,6.2993,6.5106,6.4871,6.5197,6.6866,6.6424,6.608,6.6309,6.5735,6.5414,6.5552,6.6112,6.6535,6.7049,6.7542,6.7478,6.6338,6.4002,6.232,0.0,0.0,0.0,0.0,0.0,0.0,0.0,0.0,0.0,0.0,0.0,0.0,0.0,0.0,0.0,0.0,0.0,0.0,0.0,0.0,0.0,0.0,4.2775,4.5021,4.6082,4.774,4.9155,5.0543,5.1046,5.164,5.2309,5.2327,5.2436,5.3091,5.3109,5.3017,5.2779,5.2779,5.2669,5.243,5.265,5.2779,5.2779,5.3164,5.3384,5.3384,5.3531,5.3641,5.3641,5.3641,5.3641,5.3641,5.41,5.4506,5.4672,5.4968,5.5395,5.5917,0.0,0.0,0.0,0.0,5.6334,5.7433,5.7433,5.7988,5.9001,5.9001,5.8941,5.9059,5.9059,5.9415,5.975,5.9217,5.9415,5.9691,5.9398,5.8743,5.8072,5.8284,5.774,5.7788,5.9284,5.9963,6.1597,6.6257,6.7515,0.0,7.2297,6.8924,6.6781,6.9571,6.7394,6.5928,6.7439,6.7235,6.6939,6.7572,6.7067,6.6746,6.6837,6.6195,0.0,0.0,0.0,6.7821,6.8093,6.8139,0.0,0.0,0.0,6.4153,6.4078,6.335,0.0,0.0,6.1291,6.0989,0.0,0.0,0.0,0.0,0.0,0.0,0.0,0.0,0.0,0.0,0.0,0.0,0.0,0.0,0.0,0.0,4.5526,4.8077,5.045,5.0896,5.149,5.298,5.3109,5.3109,5.3109,5.3109,5.3109,5.3109,5.3109,5.3109,5.3109,5.3109,0.0,0.0,0.0,5.3127,5.3164,5.3531,5.3751,5.3824,5.4154,5.4542,5.456,5.456,5.456,5.456,5.5061,5.547,5.6029,5.6137,5.6681,5.7531,5.6103,5.5802,5.6448,5.6448,5.7109,5.8207,5.8207,0.0,0.0,6.0336,6.0597,6.0899,6.0899,6.1181,6.1201,6.116,6.116,6.1221,6.1221,6.0457,5.9857,6.0131,5.9832,5.9836,6.0845,6.2308,6.446,6.8079,6.9666,7.1534,7.5559,7.2429,7.0472,7.3375,7.1385,6.9805,7.0705,7.0328,6.9571,6.8416,6.8166,0.0,6.7429,6.6577,6.6255,6.6693,6.7481,6.8591,6.9571,6.812,6.7267,6.7267,6.6689,6.6614,6.7066,6.7568,6.7869,6.7894,6.3952,6.3174,0.0,0.0,0.0,0.0,0.0,0.0,0.0,0.0,0.0,0.0,0.0,0.0,0.0,0.0,0.0,4.6014,4.8307,5.045,5.2361,5.2544,5.2635,5.3091,5.3109,5.3109,5.3109,5.3109,5.3109,5.3109,5.3109,5.3109,5.3109,5.3109,5.3109,5.3109,5.3109,5.3274,5.3641,5.3696,5.4137,5.4894,5.495,0.0,5.5652,5.5652,5.5652,5.5892,5.625,5.6439,5.6738,5.7022,5.7885,5.8635,5.7398,5.7546,5.8441,5.8441,5.9311,6.0237,6.0237,6.0517,6.0798,6.0798,6.108,6.1561,6.1561,6.2247,0.0,6.2344,6.2488,6.2776,6.2976,6.2714,6.2832,6.3189,6.2971,6.3416,6.6331,6.6998,6.8376,7.2928,7.4157,7.4805,7.7034,7.5208,7.3809,7.542,7.4267,7.3251,7.2916,7.2618,7.1566,6.9524,6.9856,6.9381,6.807,6.7859,6.7789,6.7883,6.7867,6.9103,7.1224,6.9853,6.8974,6.8974,6.8422,6.797,6.7643,6.7744,6.8246,6.91,6.8246,6.807,0.0,0.0,0.0,0.0,0.0,0.0,0.0,0.0,0.0,0.0,0.0,4.0017,4.1298,0.0,4.5196,4.7753,4.9525,5.1096,5.2944,5.3109,5.3109,5.3109,5.3109,5.3109,5.3109,5.3109,5.3109,5.3109,5.3109,5.3109,5.3109,5.3345,5.3563,5.3563,5.3984,5.4407,5.4612,5.5004,5.5543,5.5971,5.6178,5.6514,5.6757,5.6757,5.6757,5.6757,5.7432,5.7527,5.7546,5.8392,5.914,5.9992,5.9364,5.9567,6.0012,6.0012,6.0476,6.1361,6.1802,6.2001,6.2262,6.246,6.2898,6.3096,6.3096,6.346,6.3909,6.4346,6.4515,6.4727,6.5378,6.52,6.52,6.5463,6.5713,6.6706,6.8897,7.0427,7.2219,7.5404,7.6443,7.7328,7.8817,7.7857,7.6876,7.6876,7.6468,7.5756,7.4872,7.4361,7.3421,7.1876,7.173,7.1203,7.0055,6.9556,6.9443,7.0007,6.943,7.011,7.1887,7.0857,7.0255,7.0255,7.0003,6.9727,6.9451,6.9451,7.0003,7.1083,7.1083,7.1083,0.0,0.0,0.0,0.0,0.0,0.0,0.0,3.4937,3.7065,4.0116,4.1796,4.3072,4.4143,4.5293,4.6886,4.9034,5.0292,5.1563,5.298,5.3109,5.3109,5.3109,5.3109,5.3109,5.3109,5.3109,5.3109,5.3345,5.3345,5.3345,5.3345,5.3997,5.427,5.4345,5.51,5.5545,5.5715,5.6397,5.698,5.7056,5.7436,5.7626,5.7833,5.7833,5.7833,5.7833,5.8488,5.8693,5.8917,5.979,6.0476,6.114,6.114,6.1341,6.1361,6.1381,6.1602,6.2241,6.2898,6.3355,6.3791,6.4204,6.4484,6.4765,6.4765,6.4829,6.5412,6.6234,6.656,6.6886,6.7998,6.789,6.7495,6.8153,6.8867,6.9697,7.1315,7.3341,7.5551,7.72,7.8225,7.9143,8.0047,7.9921,7.9369,7.834,7.8013,7.7457,7.6641,7.6073,7.5199,7.388,7.3469,7.3187,7.2429,7.1534,7.1322,7.2003,7.1167,7.1031,7.2062,7.1636,7.141,7.141,7.1309,7.1234,7.1234,7.1359,7.1912,7.2891,7.3217,7.3318,3.2282,2.9396,2.7455,2.8257,3.001,3.263,0.0,3.8635,4.0355,4.3073,4.4481,4.5328,4.5755,4.774,4.9478,4.9974,5.155,5.2962,5.3091,5.3109,5.3109,5.3109,5.3109,5.3109,5.3109,5.3109,5.3345,5.3799,5.3799,5.4233,5.4666,5.4666,5.5052,5.5412,5.5469,5.5829,5.6567,5.6681,5.7151,5.8206,5.8244,5.8507,5.8956,5.8956,5.8956,5.8956,5.9587,6.0052,6.0718,6.0698,6.116,6.1802,6.2262,6.2898,6.3137,6.2679,6.2898,6.3573,6.3987,6.4204,6.442,6.442,6.5131,6.5909,6.5909,6.6864,6.8106,6.815,6.8606,6.915,7.0272,7.019,7.0437,7.2807,7.26,7.3021,7.6119,7.6655,7.7116,7.9455,8.0022,8.0072,8.0198,8.0574,8.065,8.0022,7.9068,7.844,7.8236,7.7309,7.6083,7.4584,7.5286,7.5236,7.3675,7.2863,7.2299,7.2028,7.188,7.1995,7.2665,7.259,7.2539,7.2539,7.2062,7.1811,7.1811,7.2313,7.2866,7.3544,7.5,7.5427,3.5568,3.3058,3.1529,3.4508,3.5539,3.667,3.9814,4.1071,4.2188,4.435,4.5725,4.6601,4.7176,4.8628,5.0295,5.0903,5.2109,5.2852,5.3091,5.3109,5.3109,5.3109,5.3345,5.3563,5.3109,5.3109,5.3345,5.4016,5.4016,5.4233,5.4882,5.5542,5.5752,5.5924,5.6859,5.7523,5.787,5.8102,5.8314,5.8732,5.8732,5.916,5.9626,5.9626,5.981,6.0294,6.0736,6.1322,6.1787,6.205,6.28,6.3729,6.3929,6.4371,6.4748,6.398,6.377,6.4246,6.4957,6.526,6.552,6.6017,6.6472,6.706,6.7278,6.7866,6.8739,7.0091,7.0818,7.1525,7.3005,7.3733,7.4222,7.4968,7.5929,7.6623,7.7382,7.8517,7.9435,8.0014,8.0474,8.07,8.07,8.0624,8.0474,8.0248,7.9796,7.9495,7.9495,7.8515,7.7409,7.6456,7.6808,7.6583,7.5634,7.5061,7.4513,7.399,7.3641,7.356,7.372,7.372,7.372,7.372,7.3494,7.3368,7.3368,7.4247,7.495,7.5527,7.6858,7.7712,3.7601,3.6154,3.5241,3.8753,4.0046,4.0589,4.2119,4.3286,4.4578,4.6035,4.7049,4.7903,4.8832,4.9937,5.0885,5.1604,5.2181,5.2797,5.3072,5.3345,5.3345,5.3345,5.3799,5.4016,5.3563,5.3563,5.378,5.4449,5.4449,5.4703,5.5466,5.6186,5.6692,5.6943,5.7963,5.8594,5.8711,5.9004,5.918,5.918,5.9403,5.9666,6.0191,6.0553,6.1059,6.1544,6.1847,6.2456,6.3146,6.3474,6.4311,6.5202,6.5361,6.5825,6.6003,6.5495,6.5238,6.5064,6.606,6.6407,6.6472,6.7256,6.7671,6.7758,6.824,6.8743,6.9357,7.1456,7.2565,7.3415,7.5524,7.6647,7.7292,7.7631,7.8783,7.9427,7.9157,8.0081,8.0951,8.07,8.0976,8.1252,8.1252,8.1051,8.0825,8.0675,8.065,8.0499,8.0047,7.9118,7.8314,7.7762,7.7561,7.731,7.6908,7.6381,7.5829,7.5276,7.5,7.4875,7.4875,7.5151,7.5327,7.5327,7.5327,7.5327,7.5327,7.613,7.6883,7.7586,7.854,7.952,3.8154,3.7439,3.6936,3.8734,4.1581,4.3995,4.397,4.5844,4.7964,4.9186,4.9308,4.988,5.1316,5.1622,5.164,5.1658,5.2418,5.3091,5.3109,5.3563,5.4016,5.4016,5.4449,5.4882,5.4882,5.4882,5.5098,5.551,5.5725,5.6113,5.7168,5.7207,5.7598,5.8457,5.8535,5.8711,5.918,5.918,5.918,5.918,5.981,6.025,6.0686,6.18,6.2473,6.3128,6.3169,6.3801,6.4917,6.4917,6.5382,6.5867,6.6508,6.6707,6.6728,6.7321,6.7102,6.6663,6.7343,6.7584,6.7584,6.7584,6.7911,6.8304,6.8326,6.9031,7.0314,7.2027,7.329,7.4915,7.7606,7.8354,7.9007,8.1856,8.1288,8.0429,8.2268,8.1779,8.1177,8.1654,8.1779,8.1779,8.1779,8.2231,8.2407,8.1855,8.1754,8.1202,7.962,7.8892,7.8314,7.7762,7.721,7.6883,7.6883,7.6381,7.5829,7.5276,7.5728,7.6004,7.6004,7.7034,7.7611,7.7611,7.7611,7.7611,7.7611,7.7637,7.8214,7.9319,7.9896,8.0474,4.179,4.1453,4.0932,4.388,4.5733,4.6503,4.6191,4.7585,4.8954,4.8859,4.995,5.1046,5.1604,5.2291,5.269,5.269,5.2799,5.3345,5.3563,5.3799,5.4233,5.4449,5.5079,5.551,5.551,5.5098,5.5098,5.5725,5.5994,5.6422,5.7207,5.7773,5.8242,5.8535,5.8828,5.9023,5.918,5.918,5.9403,5.981,6.0999,6.1847,6.2291,6.3557,6.4269,6.4513,6.5252,6.5644,6.6112,6.6409,6.6739,6.7432,6.7612,6.79,6.8323,6.8545,6.837,6.8306,6.8086,6.8064,6.8151,6.8856,6.9319,6.9694,7.1597,7.2438,7.3325,7.5831,7.6981,7.8089,7.9796,8.0701,8.1465,8.2977,8.3052,8.2877,8.2784,8.2658,8.2382,8.1478,8.1579,8.1704,8.1353,8.1453,8.1503,8.1328,8.1579,8.1353,8.0097,7.9771,7.9419,7.8892,7.8666,7.839,7.8013,7.7812,7.7461,7.6908,7.7034,7.731,7.7687,7.8038,7.8239,7.8239,7.8616,7.8641,7.8239,7.9721,8.0624,8.1001,8.1955,8.2683,4.4203,4.4447,4.4428,4.7255,4.879,4.9301,4.8608,4.9681,5.0812,5.0794,5.1532,5.2522,5.31,5.3119,5.3334,5.3334,5.3334,5.3334,5.3784,5.3998,5.427,5.4851,5.5494,5.5765,5.592,5.5725,5.5725,5.5939,5.6325,5.6852,5.7441,5.8125,5.8594,5.8769,5.9062,5.918,5.918,5.918,5.9705,6.0473,6.2436,6.3557,6.4111,6.5154,6.5889,6.5889,6.6409,6.6985,6.723,6.7305,6.7905,6.8332,6.8332,6.8578,6.9047,6.9248,6.9295,6.9473,6.9229,6.9053,6.9098,7.0204,7.0848,7.1557,7.3394,7.426,7.5344,7.7679,7.8811,7.9707,8.1224,8.2353,8.3152,8.377,8.4215,8.4165,8.3663,8.3688,8.3412,8.2156,8.2181,8.2257,8.1704,8.1629,8.1629,8.1629,8.1905,8.1654,8.0373,8.0047,7.9771,7.9419,7.9193,7.8917,7.8566,7.8515,7.8365,7.8013,7.8189,7.8641,7.9394,7.9595,7.9796,7.9997,8.0574,8.0675,8.0298,8.1528,8.2307,8.2708,8.3236,8.3788,4.5498,4.6645,4.7262,4.8752,5.0749,5.1783,5.1203,5.2164,5.3489,5.4534,5.3942,5.3735,5.5203,5.4435,5.3518,5.3537,5.3556,5.3575,5.3594,5.4035,5.4628,5.5051,5.5514,5.6113,5.6543,5.6582,5.6582,5.6582,5.6992,5.7441,5.7871,5.832,5.8769,5.918,5.918,5.918,5.918,5.9199,6.0086,6.1623,6.3844,6.5222,6.5651,6.6769,6.7229,6.7229,6.7229,6.7658,6.813,6.813,6.8578,6.9047,6.9047,6.9047,6.9025,6.9694,6.9893,7.0182,7.0692,7.0492,7.0308,7.1426,7.2361,7.344,7.3463,7.4665,7.6376,7.8183,7.9027,8.0046,8.2153,8.316,8.3838,8.4918,8.4793,8.4567,8.5044,8.4717,8.4215,8.3638,8.3512,8.3311,8.2759,8.2683,8.2683,8.2683,8.2633,8.2056,8.0499,7.9796,7.9469,7.9419,7.8917,7.8591,7.8616,7.8616,7.8616,7.8641,7.9193,7.9972,8.1026,8.1579,8.2106,8.2608,8.316,8.3437,8.3412,8.296,8.3286,8.4315,8.3813,8.3864,4.7981,4.8615,4.8918,5.0749,5.1773,5.2655,5.3054,5.3433,5.3754,5.3575,5.3023,5.2647,5.2455,5.2559,5.2718,5.2628,5.2931,5.3234,5.3996,5.4245,5.4609,5.5667,5.5726,5.6113,5.6543,5.6582,5.6582,5.6582,5.7285,5.791,5.8359,5.8769,5.9062,5.918,5.918,5.918,5.918,6.0389,6.1643,6.2761,6.446,6.5777,6.6833,6.7616,6.7905,6.7862,6.8354,6.8578,6.8802,6.8802,6.8824,6.9047,6.9047,6.9047,6.9047,6.927,7.0114,7.1422,7.2309,7.1778,7.0841,7.2451,7.3174,7.3873,7.6407,7.7479,7.8198,8.029,8.1364,8.2228,8.342,8.4315,8.4893,8.5596,8.5671,8.5496,8.5219,8.5044,8.4742,8.4215,8.3763,8.3311,8.2759,8.2683,8.2683,8.2683,8.2307,8.188,8.1453,8.0926,8.0449,8.0047,7.9495,7.9344,7.9746,7.9771,7.9947,8.0373,8.0901,8.1302,8.1604,8.2156,8.2307,8.2031,8.2583,8.2658,8.2231,8.3361,8.4064,8.4315,8.4567,8.4993,4.9026,4.9933,5.0569,5.2144,5.3317,5.4066,5.3674,5.4276,5.4187,5.2789,5.2393,5.1932,5.1696,5.2083,5.227,5.232,5.2501,5.3051,5.3506,5.3905,5.4274,5.5312,5.5547,5.5976,5.6777,5.6699,5.6816,5.7402,5.7695,5.7969,5.8203,5.8828,5.918,5.918,5.9355,5.9531,5.9746,6.1043,6.2533,6.3865,6.5447,6.6931,6.8332,6.9003,6.9226,6.9226,6.9694,6.9694,6.9694,6.9694,6.9694,6.9694,6.9694,6.9694,6.9938,7.058,7.1672,7.2643,7.43,7.4176,7.3485,7.4592,7.5404,7.6288,7.8314,7.9607,8.0528,8.1792,8.2583,8.3186,8.3788,8.4391,8.4918,8.5496,8.5646,8.5596,8.5546,8.5496,8.5295,8.4491,8.3864,8.3236,8.2432,8.2708,8.296,8.2708,8.2809,8.2809,8.2583,8.1654,8.0926,8.0599,8.0298,8.0223,8.0549,8.0775,8.1051,8.1353,8.188,8.2307,8.2533,8.2859,8.2985,8.2909,8.3236,8.3236,8.2909,8.4089,8.4667,8.4717,8.5244,8.5671,4.9351,5.0982,5.2193,5.3326,5.4899,5.5837,5.4138,5.4455,5.457,5.2305,5.1426,5.1191,5.1504,5.1719,5.1855,5.1894,5.2324,5.2656,5.2773,5.3164,5.375,5.459,5.5156,5.5898,5.6933,5.6875,5.7207,5.8301,5.8086,5.7969,5.8027,5.8769,5.918,5.9238,5.9629,6.0019,6.0677,6.1797,6.3347,6.5138,6.6727,6.8332,7.0115,7.058,7.0801,7.0801,7.0801,7.0801,7.0801,7.0801,7.0801,7.0801,7.0801,7.0845,7.1111,7.2841,7.3539,7.4089,7.6264,7.7076,7.729,7.7076,7.8033,7.9279,7.9493,8.0826,8.2457,8.2533,8.296,8.3412,8.3562,8.3989,8.4567,8.5144,8.5244,8.5395,8.5897,8.5998,8.5671,8.4642,8.4064,8.3361,8.2231,8.2784,8.3236,8.2734,8.3412,8.3864,8.3537,8.2181,8.1227,8.1152,8.1076,8.1051,8.1127,8.1553,8.183,8.1905,8.2457,8.296,8.3361,8.3462,8.3688,8.4089,8.4089,8.4089,8.4089,8.4642,8.4918,8.4968,8.5571,8.5897,5.019,5.1626,5.3344,5.508,5.6732,5.7306,5.5785,5.5084,5.3984,5.1094,4.9863,4.9219,4.8926,4.9766,5.0625,5.0976,5.168,5.2441,5.3144,5.3633,5.4101,5.4629,5.5683,5.6308,5.6172,5.7051,5.7578,5.7461,5.8066,5.8594,5.8945,5.9121,5.9355,5.9687,5.9765,6.0679,6.2638,6.3783,6.5363,6.7597,6.8785,6.9893,7.058,7.0778,7.0801,7.0801,7.0801,7.0801,7.0801,7.0801,7.0801,7.0801,7.0801,7.107,7.165,7.2932,7.4502,7.6404,7.7558,7.9132,8.0031,7.9157,7.8992,7.9517,8.0368,8.0941,8.1403,8.183,8.2382,8.3035,8.3914,8.4567,8.5144,8.5722,8.5847,8.5897,8.5998,8.5998,8.5822,8.5144,8.4918,8.4491,8.3386,8.2985,8.2784,8.2683,8.2432,8.2558,8.3386,8.2834,8.2206,8.1729,8.1277,8.1202,8.1629,8.1754,8.2005,8.2483,8.3035,8.3186,8.2834,8.3261,8.3336,8.296,8.296,8.296,8.296,8.3512,8.3788,8.3813,8.4818,8.5295,4.9908,5.1726,5.3979,5.6151,5.7174,5.6961,5.4831,5.3945,5.2734,4.9492,4.8496,4.8262,4.8496,4.9433,5.0312,5.0742,5.1328,5.2051,5.2891,5.3203,5.3672,5.457,5.541,5.6191,5.6875,5.7285,5.7715,5.8203,5.8418,5.8652,5.8828,5.9297,5.9707,6.0098,6.1261,6.2448,6.3802,6.5162,6.707,6.9075,6.9539,7.0535,7.1703,7.1703,7.1703,7.1703,7.1703,7.1703,7.1703,7.1703,7.1703,7.1703,7.1975,7.2643,7.3532,7.4884,7.6669,7.828,8.0134,8.1215,8.198,8.1887,8.1274,8.0766,8.1216,8.1654,8.193,8.2181,8.2658,8.3211,8.3738,8.4491,8.5219,8.5496,8.5772,8.5998,8.5998,8.5998,8.5822,8.5244,8.5144,8.4793,8.3688,8.3512,8.3437,8.3135,8.311,8.3211,8.3462,8.3261,8.2985,8.2708,8.193,8.1528,8.1779,8.1805,8.193,8.2206,8.3035,8.3386,8.311,8.3638,8.3788,8.3537,8.3537,8.3537,8.3537,8.4064,8.4341,8.4391,8.5219,8.5747,5.0043,5.2094,5.4598,5.642,5.7306,5.6707,5.3197,5.2652,5.1875,4.8418,4.7715,4.7949,4.8711,4.959,5.0312,5.0742,5.123,5.1875,5.2734,5.293,5.3418,5.4551,5.5293,5.6172,5.7344,5.7558,5.7969,5.8848,5.9272,5.9233,5.8828,5.9862,6.0698,6.1212,6.3144,6.4647,6.5557,6.6939,6.8736,7.0513,7.0513,7.1241,7.2578,7.2578,7.2578,7.2578,7.2578,7.2646,7.2738,7.2738,7.2807,7.2968,7.3532,7.4422,7.5633,7.7462,7.8835,8.0158,8.2228,8.3035,8.316,8.4064,8.3412,8.2332,8.2206,8.2483,8.2834,8.2708,8.2985,8.3361,8.3612,8.4315,8.5044,8.5244,8.5671,8.5998,8.5998,8.5998,8.5847,8.5395,8.532,8.4968,8.3864,8.3914,8.3964,8.3412,8.3587,8.3663,8.3361,8.3311,8.3311,8.3311,8.2533,8.198,8.198,8.198,8.198,8.198,8.2934,8.3487,8.3487,8.4014,8.4315,8.4315,8.4315,8.4315,8.4315,8.4742,8.4968,8.4968,8.5671,8.6249,5.1173,5.3606,5.5302,5.572,5.7325,5.7685,5.2759,5.2493,5.2324,4.8867,4.8144,4.8301,4.8769,4.959,5.0312,5.0742,5.1484,5.2324,5.3183,5.3652,5.4101,5.4629,5.6074,5.6797,5.6172,5.7851,5.873,5.8027,6.0558,6.1402,5.9668,6.1299,6.2578,6.3473,6.5342,6.7346,6.9383,6.9627,7.0535,7.2382,7.2382,7.2359,7.2578,7.2578,7.2578,7.2578,7.2578,7.2807,7.3243,7.3243,7.3519,7.4177,7.5305,7.6026,7.6717,7.9687,8.1049,8.1785,8.3502,8.4165,8.4165,8.4315,8.4215,8.3989,8.3487,8.3386,8.3311,8.2809,8.2708,8.2985,8.3989,8.4315,8.4642,8.5671,8.5998,8.5998,8.5998,8.5998,8.5998,8.5922,8.5922,8.5571,8.4416,8.3864,8.3386,8.2834,8.2357,8.2206,8.2683,8.2734,8.2734,8.2734,8.2658,8.2583,8.2583,8.2583,8.2583,8.2583,8.316,8.3487,8.3487,8.4014,8.4315,8.4315,8.4315,8.4315,8.4315,8.4391,8.4391,8.4416,8.5496,8.6023,4.999,5.3119,5.642,5.6849,5.8157,5.8457,5.368,5.3157,5.2383,4.8926,4.8203,4.8262,4.8437,4.8814,4.9454,5.0391,5.0764,5.1589,5.3242,5.375,5.4375,5.5332,5.6269,5.7109,5.7851,5.8437,5.9311,6.0517,6.0796,6.1804,6.3639,6.4576,6.4518,6.3802,6.6985,6.8985,6.9849,7.0976,7.1877,7.2578,7.2578,7.2578,7.2578,7.2578,7.2578,7.26,7.2876,7.3152,7.3312,7.3657,7.4352,7.5248,7.6275,7.776,7.937,8.1321,8.2474,8.3382,8.4397,8.4818,8.4818,8.4818,8.4818,8.4642,8.3763,8.3261,8.296,8.2734,8.2683,8.2784,8.3211,8.3813,8.4592,8.5747,8.5998,8.5998,8.5998,8.5998,8.5998,8.5998,8.5998,8.5747,8.4968,8.4341,8.3788,8.3236,8.2683,8.2407,8.2633,8.2683,8.2683,8.2683,8.2357,8.2156,8.2156,8.2156,8.2307,8.2658,8.3512,8.414,8.4466,8.5019,8.532,8.532,8.532,8.532,8.532,8.5671,8.5772,8.5822,8.6274,8.6676,4.9584,5.3088,5.6291,5.7395,5.8345,5.8105,5.4118,5.2846,5.166,4.8965,4.8301,4.8242,4.8379,4.8704,4.9186,5.0161,5.0451,5.1381,5.3235,5.3945,5.4648,5.5801,5.6426,5.7305,5.8672,5.8887,5.9626,6.1664,6.1865,6.2883,6.5504,6.7461,6.7547,6.5756,6.9007,7.0756,7.0756,7.1899,7.2578,7.2578,7.2738,7.2807,7.2807,7.2945,7.3014,7.3037,7.3381,7.3611,7.3771,7.4606,7.5481,7.6402,7.814,7.9805,8.144,8.2622,8.3681,8.4391,8.4742,8.4893,8.4893,8.4893,8.4793,8.4491,8.3738,8.3236,8.2884,8.2708,8.2909,8.3186,8.3361,8.424,8.527,8.6249,8.65,8.65,8.65,8.65,8.65,8.65,8.6349,8.5998,8.5244,8.4667,8.4064,8.3361,8.2909,8.2608,8.2432,8.2558,8.2608,8.2432,8.2206,8.2056,8.2056,8.2206,8.2483,8.2884,8.3964,8.4742,8.5144,8.5671,8.5998,8.5998,8.5998,8.6098,8.6249,8.645,8.6625,8.6776,8.6776,8.7103,5.0643,5.3119,5.4965,5.6318,5.7022,5.6348,5.3539,5.1531,4.9961,4.9043,4.8516,4.834,4.8769,4.9127,4.9606,5.0609,5.0892,5.1801,5.3702,5.4394,5.498,5.584,5.668,5.7383,5.7851,5.9062,5.998,6.039,6.4172,6.5771,6.4008,6.9363,7.1658,6.9849,7.1658,7.2578,7.2578,7.26,7.2578,7.26,7.3083,7.3312,7.3312,7.3817,7.4093,7.4093,7.4093,7.4391,7.4805,7.6146,7.6872,7.766,8.0611,8.1689,8.2007,8.3651,8.4315,8.4315,8.4315,8.4315,8.4315,8.4315,8.3964,8.3512,8.3487,8.3487,8.3361,8.2834,8.3462,8.4416,8.4968,8.5922,8.6877,8.7429,8.7605,8.7605,8.7605,8.7605,8.7605,8.7605,8.7128,8.6425,8.532,8.4667,8.3914,8.2834,8.2683,8.2457,8.1905,8.2307,8.2457,8.188,8.2332,8.2658,8.2658,8.316,8.3487,8.3487,8.4491,8.5144,8.5144,8.5671,8.5998,8.5998,8.5998,8.6249,8.6776,8.6249,8.6274,8.6776,8.6776,8.7103,4.8136,5.0864,5.3308,5.3904,5.4703,5.4941,5.249,5.1523,5.0625,4.916,4.875,4.8613,4.8437,4.8704,4.9282,5.057,5.1339,5.2145,5.3741,5.4902,5.5742,5.6308,5.8183,5.9453,5.9629,6.0273,6.1201,6.2649,6.279,6.4338,6.7828,6.8649,6.9204,6.9849,7.168,7.2578,7.2578,7.2578,7.2738,7.3083,7.3243,7.3519,7.3886,7.4024,7.4116,7.4116,7.4116,7.4814,7.6123,7.6345,7.8171,8.0341,8.1395,8.2375,8.3626,8.4021,8.4315,8.4315,8.4315,8.4315,8.4315,8.4315,8.4215,8.4064,8.4064,8.3537,8.306,8.3638,8.4315,8.5069,8.6023,8.6525,8.6927,8.7454,8.7605,8.7605,8.7605,8.7605,8.7605,8.7605,8.7178,8.6425,8.532,8.4667,8.3914,8.2834,8.2683,8.2608,8.2432,8.2558,8.2608,8.2432,8.2558,8.2683,8.2683,8.3186,8.3663,8.4064,8.4742,8.532,8.5722,8.5922,8.5998,8.5998,8.5998,8.6098,8.6249,8.6425,8.6776,8.7354,8.778,8.7806,4.584,4.8443,5.0836,5.1872,5.2326,5.2367,5.1397,5.0455,4.9563,4.9043,4.8984,4.9023,4.875,4.8992,4.9511,5.0589,5.1122,5.2049,5.3508,5.5019,5.6348,5.7441,5.9121,6.0332,6.0664,6.1074,6.1982,6.3819,6.361,6.5266,6.9605,6.9405,6.9849,7.0778,7.1922,7.2578,7.2578,7.2784,7.3014,7.3312,7.368,7.4047,7.4391,7.4552,7.469,7.4644,7.4884,7.5737,0.0,7.7546,7.9297,8.1418,8.2054,8.3033,8.3989,8.3989,8.3989,8.3989,8.3763,8.3838,8.3989,8.3989,8.4165,8.4315,8.4315,8.3838,8.3487,8.4391,8.5044,8.5722,8.6776,8.7278,8.7555,8.8107,8.8258,8.8258,8.8258,8.8258,8.8258,8.8258,8.778,8.7052,8.5922,8.532,8.4491,8.3186,8.2985,8.2909,8.2708,8.2683,8.2683,8.2683,8.2859,8.2985,8.2985,8.3487,8.4064,8.4567,8.5144,8.5722,8.6274,8.6274,8.6425,8.66,8.6851,8.6927,8.6927,8.7278,8.7454,8.7605,8.778,8.778,0.0,4.6075,4.7951,4.9921,4.9628,4.9088,5.0297,4.8689,0.0,4.8585,4.918,4.9492,4.9512,4.9742,5.0064,5.0784,5.0968,5.1725,5.3235,5.498,5.6875,5.9004,5.9648,6.0234,6.1324,6.1775,6.2669,6.4475,6.6302,6.8086,6.9871,7.1438,7.2359,7.2578,7.2623,7.2646,7.2646,7.3083,7.3358,7.345,7.4391,7.4828,7.4897,7.5356,7.5585,7.5539,7.6156,7.6872,7.7566,7.9443,8.0435,8.1218,8.2802,8.3462,8.3487,8.3462,8.3437,8.3361,8.2859,8.3035,8.3512,8.3587,8.3989,8.4416,8.4416,8.4416,8.4491,8.5044,8.5646,8.6349,8.7404,8.8107,8.8634,8.9187,8.9287,8.9287,8.9287,8.9287,8.9287,8.9287,8.886,8.8132,8.7027,8.6349,8.5445,8.3838,8.3587,8.3361,8.2859,8.2784,8.2784,8.2734,8.3261,8.3612,8.3612,8.4064,8.4642,8.5144,8.5747,8.6324,8.6877,8.6877,8.7128,8.768,8.8132,8.8458,8.8458,8.8458,8.8207,8.768,8.7178,8.7203,4.2109,0.0,4.4845,4.5843,4.5859,4.5924,0.0,4.6672,4.7036,4.764,4.837,4.9121,4.9473,4.9261,4.9683,5.1873,5.1993,5.2374,5.4481,5.6328,5.8086,5.9922,6.0508,6.1574,6.4028,6.4209,6.5053,6.6529,6.7236,6.841,6.9871,7.0292,7.1219,7.2578,7.2945,7.3152,7.3152,7.3243,7.368,7.446,7.469,7.5034,7.5425,7.5516,7.5585,7.5539,7.6356,7.7293,7.8877,7.9661,8.109,8.2827,8.2985,8.3135,8.3437,8.301,8.2859,8.2834,8.2708,8.3035,8.3638,8.4491,8.5144,8.5596,8.5596,8.532,8.5069,8.5646,8.65,8.7379,8.8107,8.8684,8.9111,8.9287,8.9287,8.9287,8.9287,8.9287,8.9287,8.9287,8.886,8.8232,8.7529,8.66,8.5747,8.4893,8.4391,8.4064,8.3964,8.3914,8.3763,8.3336,8.4165,8.4742,8.4767,8.4893,8.5219,8.5747,8.6274,8.7027,8.8032,8.8057,8.8132,8.8283,8.7956,8.8032,8.8458,8.8458,8.8383,8.8283,8.8559,8.8785,4.1356,4.2232,4.3257,4.3945,4.4026,4.4249,4.5768,4.6038,4.6483,4.7826,4.8652,4.9297,4.9746,5.0106,5.0803,5.2519,5.3169,5.4221,5.6543,5.7578,5.8828,6.0508,6.1627,6.2983,6.5047,6.6012,6.7034,6.8635,6.9055,6.9752,7.1358,7.1557,7.2134,7.3289,7.3519,7.3542,7.3312,7.3749,7.4254,7.4828,7.5057,7.5287,7.5585,7.6265,7.649,7.6467,7.7664,7.886,7.9954,8.0528,8.1688,8.3085,8.2784,8.2859,8.3085,8.2784,8.2683,8.2683,8.2683,8.3186,8.4064,8.5169,8.5747,8.5998,8.5998,8.5772,8.5646,8.6199,8.6952,8.7755,8.8308,8.8885,8.9287,8.9287,8.9287,8.9287,8.9287,8.9287,8.9287,8.9287,8.9036,8.8634,8.8107,8.7529,8.6851,8.5998,8.5646,8.5345,8.5144,8.5094,8.4993,8.4667,8.5395,8.5897,8.5922,8.6148,8.6399,8.6701,8.7278,8.7956,8.881,8.886,8.8961,8.9212,8.8684,8.8634,8.9212,8.8961,8.886,8.886,8.8885,8.8885,4.1515,4.1988,4.2553,4.2964,4.2912,4.3313,4.5886,4.5823,4.5946,4.8293,4.9013,4.9629,5.0332,5.1095,5.201,5.2891,5.4414,5.6211,5.8242,5.8652,5.9336,6.0976,6.2843,6.4561,6.5592,6.7329,6.9133,7.0803,7.1094,7.1808,7.3335,7.3312,7.3542,7.4093,7.4185,7.4024,7.3519,7.4391,7.4874,7.4965,7.5356,7.5585,7.5585,7.6941,7.7389,7.7613,7.9322,8.0484,8.0853,8.1703,8.2231,8.2683,8.2683,8.2683,8.2683,8.2683,8.2683,8.2683,8.2859,8.3537,8.4491,8.5646,8.5998,8.5998,8.5998,8.5998,8.6098,8.6525,8.7027,8.7605,8.8207,8.8735,8.9187,8.9287,8.9287,8.9287,8.9287,8.9287,8.9287,8.9287,8.9287,8.9136,8.8684,8.8534,8.8132,8.7178,8.6952,8.6751,8.6324,8.6249,8.6249,8.6098,8.6676,8.7027,8.6927,8.7504,8.7881,8.8006,8.8358,8.8885,8.9538,8.9613,8.989,9.0367,8.9714,8.9689,9.0266,8.9613,8.9212,8.9136,8.8785,8.8484,4.1978,4.258,4.2964,4.1799,4.1953,4.2778,4.4016,4.4829,4.5853,4.7742,4.8602,4.9531,5.1445,5.0858,5.1141,5.3858,5.5508,5.6894,5.8301,5.916,6.0098,6.1484,6.3524,6.5802,6.796,7.0206,7.1917,7.2719,7.3305,7.3573,7.3312,7.3312,7.3542,7.4093,7.4529,7.4667,7.4598,7.4736,7.5034,7.5448,7.5562,7.5585,7.5585,7.6941,7.7389,7.7613,7.971,8.0828,8.0902,8.2128,8.2583,8.2683,8.2683,8.2683,8.2683,8.2683,8.2683,8.2809,8.3738,8.4165,8.4491,8.5646,8.5998,8.5998,8.5998,8.5998,8.6023,8.6098,8.65,8.7027,8.7605,8.8182,8.871,8.9187,8.9287,8.9287,8.9287,8.9287,8.9287,8.9287,8.9287,8.9287,8.9187,8.8785,8.8383,8.8232,8.778,8.7429,8.7354,8.7354,8.7178,8.6701,8.7605,8.8032,8.7529,8.8433,8.9212,8.9689,8.9362,8.9613,9.0618,9.112,9.1446,9.1547,9.0517,9.0266,9.0794,8.9789,8.9036,8.8609,8.8961,8.8634,4.1782,4.2249,4.2741,4.245,4.3255,4.4505,4.6251,4.6816,4.7765,4.9263,4.9854,5.0488,5.125,5.1773,5.3081,5.6328,5.7246,5.8086,5.9394,5.9922,6.0964,6.2933,6.5263,6.7474,6.9533,7.1851,7.32,7.3358,7.3817,7.4024,7.3749,7.4254,7.4782,7.5333,7.5562,7.5631,7.5631,7.5356,7.5356,7.5585,7.5585,7.6039,7.649,7.7837,7.8727,7.9367,8.112,8.1795,8.2012,8.2443,8.2683,8.2683,8.2683,8.2683,8.2683,8.2683,8.2859,8.3236,8.4064,8.4491,8.4893,8.5747,8.5998,8.5998,8.5998,8.5998,8.5998,8.5998,8.6374,8.6927,8.7454,8.8032,8.8609,8.9136,8.9287,8.9287,8.9287,8.9287,8.9287,8.9287,8.9036,8.8961,8.9212,8.881,8.8559,8.886,8.8684,8.8534,8.8534,8.8534,8.8433,8.8182,8.886,8.9262,8.8961,8.9689,9.0291,9.0542,9.0618,9.0869,9.1371,9.1647,9.1647,9.1346,9.0517,9.0266,9.0517,8.9362,8.871,8.8458,8.871,8.8383,4.1604,4.1891,4.2587,4.3238,4.4532,4.6355,4.8526,4.9147,4.9741,5.1095,5.166,5.1875,5.1855,5.3457,5.5566,5.7969,5.8535,5.9101,6.0273,6.0964,6.1986,6.4103,6.6887,6.9003,7.0377,7.2659,7.3955,7.3519,7.3886,7.4162,7.4254,7.5126,7.5792,7.6159,7.6297,7.6297,7.6159,7.5792,7.5585,7.5585,7.5812,7.6467,7.7413,7.8925,8.0027,8.0902,8.2228,8.2683,8.2683,8.2683,8.2683,8.2683,8.2683,8.2759,8.2859,8.2859,8.3211,8.3763,8.4315,8.4793,8.5219,8.5822,8.5998,8.5998,8.5998,8.5998,8.5998,8.5998,8.6274,8.6701,8.7278,8.7856,8.8383,8.8961,8.9212,8.9287,8.9287,8.9287,8.9287,8.9287,8.886,8.8634,8.9212,8.881,8.8634,8.9212,8.9287,8.9287,8.9287,8.9287,8.9362,8.9463,8.9865,9.0191,9.0291,9.0794,9.112,9.112,9.1547,9.1798,9.1798,9.1898,9.1622,9.0944,9.0517,9.0266,9.0116,8.9036,8.8383,8.8283,8.8283,8.7956,4.144,4.1936,4.2912,4.3306,4.4533,4.6234,4.8909,4.9952,5.1076,5.2827,5.3203,5.3574,5.4765,5.6074,5.7187,5.7812,5.8613,5.9453,6.0312,6.2134,6.3697,6.4394,6.8022,7.0377,7.0579,7.2659,7.4093,7.4047,7.4093,7.4323,7.4759,7.5287,7.5585,7.5631,7.609,7.6136,7.5631,7.5585,7.5585,7.5585,7.6716,7.7413,7.7366,7.9783,8.0902,8.0902,8.2228,8.2683,8.2683,8.2683,8.2683,8.2683,8.2683,8.2985,8.3437,8.3437,8.3788,8.4315,8.4893,8.5119,8.5219,8.5822,8.5998,8.5998,8.5998,8.5998,8.5998,8.5998,8.6023,8.6174,8.6701,8.7253,8.778,8.8383,8.8885,8.9287,8.9287,8.9287,8.9287,8.9287,8.886,8.8634,8.9212,8.881,8.8634,8.9212,8.9287,8.9287,8.9287,8.9287,8.9463,9.0015,9.009,9.0342,9.0844,9.1371,9.1723,9.1723,9.1798,9.1798,9.1798,9.225,9.2049,9.0944,9.0919,9.0618,9.0116,8.9036,8.8207,8.768,8.768,8.7354,4.1986,4.255,4.3015,4.3614,4.5195,4.7308,4.9421,5.1369,5.2851,5.3955,5.418,5.4414,5.5176,5.6562,5.7851,5.8555,5.918,6.0335,6.2281,6.3489,6.5288,6.798,7.0117,7.1828,7.2705,7.4104,7.4759,7.4162,7.469,7.4965,7.4828,7.5631,7.609,7.609,7.6297,7.6297,7.609,7.6728,7.7182,7.7182,7.7329,7.806,7.9563,8.0441,8.1337,8.2012,8.2443,8.2683,8.2683,8.2683,8.2683,8.2708,8.306,8.3512,8.3989,8.3989,8.4341,8.4893,8.5069,8.5395,8.5722,8.5922,8.5998,8.5998,8.5998,8.5998,8.6073,8.6425,8.6249,8.6098,8.6625,8.7178,8.7755,8.8308,8.8885,8.9287,8.9287,8.9287,8.9287,8.9287,8.886,8.8634,8.9212,8.881,8.8634,8.9212,8.9287,8.9287,8.9287,8.9287,8.9362,8.9588,9.0191,9.0844,9.1446,9.1974,9.23,9.23,9.23,9.23,9.23,9.2476,9.2225,9.1471,9.112,9.0517,8.9613,8.8458,8.763,8.7103,8.7429,8.7504,4.2792,4.3173,4.3597,4.4471,4.618,4.8393,5.0395,5.2249,5.3825,5.487,5.5078,5.5254,5.5801,5.6973,5.8144,5.9023,6.0079,6.1635,6.3636,6.5536,6.7548,7.0532,7.1851,7.3157,7.4122,7.4919,7.5126,7.4621,7.5195,7.5425,7.5057,7.593,7.6297,7.6136,7.6435,7.6756,7.7075,7.7852,7.883,7.9507,7.9173,7.9897,8.1394,8.1683,8.2261,8.2909,8.2734,8.2683,8.2683,8.2683,8.2784,8.301,8.3738,8.424,8.4592,8.4818,8.5069,8.5395,8.5395,8.5671,8.5998,8.5998,8.6098,8.6249,8.6249,8.6349,8.66,8.6927,8.6676,8.6349,8.6676,8.7027,8.7504,8.8057,8.8609,8.9061,8.9262,8.9287,8.9287,8.9287,8.886,8.8634,8.9212,8.881,8.8634,8.9212,8.9287,8.9287,8.9287,8.9287,8.9362,8.9538,9.0542,9.1371,9.1773,9.23,9.2576,9.2576,9.2576,9.2576,9.2576,9.2401,9.2074,9.1547,9.0944,9.0116,8.9036,8.8082,8.7429,8.7027,8.7253,8.7529,4.3668,4.3938,4.4796,4.5926,4.758,4.9441,5.1458,5.2661,5.3634,5.5551,5.5937,5.6211,5.7051,5.7578,5.8164,5.9062,6.142,6.364,6.4561,6.8022,7.0801,7.1491,7.2953,7.4323,7.4759,7.4828,7.5057,7.5562,7.5585,7.5585,7.5585,7.609,7.6136,7.5585,7.6573,7.7516,7.8165,7.8682,8.0055,8.2549,8.2549,8.2574,8.2746,8.3302,8.3512,8.3462,8.2934,8.2683,8.2683,8.2683,8.301,8.3638,8.4717,8.5144,8.5219,8.5822,8.5998,8.5998,8.5998,8.5998,8.5998,8.5998,8.6349,8.6776,8.6776,8.7178,8.7605,8.7605,8.7203,8.6776,8.6776,8.6776,8.6927,8.7454,8.8032,8.8609,8.9136,8.9287,8.9287,8.9287,8.886,8.8634,8.9212,8.886,8.8634,8.9212,8.9287,8.9287,8.9287,8.9287,8.9513,9.004,9.112,9.1798,9.1798,9.225,9.2576,9.2576,9.2576,9.2576,9.2576,9.2074,9.1522,9.0944,9.0367,8.9538,8.8458,8.7881,8.7605,8.7605,8.7027,8.7379,4.2562,4.3522,4.4539,4.4642,4.7178,5.004,5.1174,5.3081,5.4933,5.6211,5.6875,5.7265,5.7226,5.832,5.9297,5.959,6.1881,6.4317,6.6575,6.9403,7.1762,7.3608,7.5015,7.5631,7.5356,7.5999,7.6205,7.5631,7.593,7.5953,7.5585,7.5723,7.593,7.6136,7.6435,7.7377,7.8682,8.009,8.1489,8.3114,8.4404,8.4626,8.3876,8.3921,8.4064,8.4064,8.3889,8.3612,8.3286,8.3663,8.4416,8.5345,8.6023,8.6525,8.6902,8.7077,8.6877,8.6525,8.6525,8.6324,8.6073,8.6425,8.6676,8.6851,8.7253,8.7454,8.778,8.8534,8.8107,8.7454,8.7881,8.7379,8.6851,8.6952,8.7454,8.8032,8.8609,8.871,8.881,8.9212,8.9136,8.9212,8.9789,8.9387,8.9212,8.9789,8.9538,8.9438,8.9789,8.9538,8.9639,9.0593,9.0618,9.0768,9.117,9.1697,9.2049,9.2049,9.2049,9.2049,9.2049,9.1873,9.1371,9.0367,9.0191,8.9362,8.7856,8.8107,8.778,8.7027,8.768,8.8358,4.4251,4.5543,4.6525,4.7079,4.9054,5.1512,5.3278,5.4417,5.5605,5.6621,5.7109,5.748,5.791,5.9474,6.0792,6.1369,6.4029,6.7059,6.9111,7.1287,7.3474,7.5129,7.5792,7.609,7.6159,7.6573,7.6573,7.593,7.6159,7.6159,7.5585,7.5792,7.6022,7.6366,7.6756,7.8024,7.991,8.1299,8.2726,8.4354,8.54,8.5646,8.4993,8.4742,8.4642,8.4642,8.4667,8.4491,8.4215,8.4993,8.5671,8.6374,8.7128,8.7529,8.7605,8.7856,8.7605,8.7103,8.7103,8.6927,8.6676,8.7002,8.7278,8.7529,8.7856,8.8258,8.876,8.9438,8.8961,8.8283,8.8458,8.763,8.6776,8.6776,8.7027,8.7504,8.8283,8.8458,8.8634,8.9187,8.9287,8.9463,9.0015,8.9839,8.9789,9.0367,8.9965,8.9714,9.004,8.9613,8.9538,9.0191,9.0191,9.0266,9.0593,9.112,9.1446,9.1446,9.1446,9.1371,9.112,9.112,9.0794,9.0116,8.9689,8.8961,8.7956,8.8057,8.7881,8.7454,8.8383,8.9111,4.7161,4.8537,4.9947,5.142,5.2127,5.3606,5.658,5.656,5.609,5.709,5.7051,5.7305,5.9148,6.0838,6.2595,6.3865,6.738,7.0292,7.1243,7.3361,7.5195,7.6228,7.593,7.5999,7.694,7.6642,7.6366,7.6297,7.6366,7.6159,7.5654,7.6159,7.6458,7.6527,7.7399,7.9023,8.1323,8.1803,8.3441,8.5749,8.5749,8.5774,8.5998,8.547,8.5244,8.5295,8.532,8.5345,8.547,8.6425,8.6877,8.7027,8.8132,8.8207,8.7831,8.8358,8.8182,8.768,8.768,8.768,8.768,8.7755,8.8132,8.8634,8.8684,8.9387,9.0191,9.0266,8.9865,8.9287,8.8785,8.778,8.6927,8.6776,8.6751,8.7027,8.8057,8.8308,8.8484,8.9111,8.9212,8.9387,9.0015,9.004,9.0191,9.0693,9.0367,9.004,9.0116,8.9613,8.9312,8.9438,8.9789,9.004,9.0116,9.0593,9.0844,9.0844,9.0844,9.0618,9.0116,9.0116,9.009,9.004,8.9036,8.8534,8.8458,8.7956,8.8006,8.8458,8.9111,8.9613,4.4091,4.6746,4.9796,5.0081,5.2179,5.4825,5.6658,5.8324,5.9189,5.8344,5.8437,5.9252,6.1504,6.2639,6.4009,6.6234,6.8752,7.0801,7.1774,7.3609,7.5195,7.6228,7.6297,7.6297,7.6504,7.6435,7.6228,7.5792,7.6136,7.6297,7.6228,7.6664,7.7147,7.7537,7.7767,7.8767,8.0792,8.0887,8.2066,8.4599,8.4599,8.505,8.5998,8.5897,8.6023,8.6425,8.6425,8.6676,8.7103,8.7354,8.7705,8.8182,8.886,8.9036,8.8935,8.9061,8.8785,8.8283,8.8283,8.8283,8.8358,8.8785,8.9287,8.9839,9.0266,9.0593,9.0844,9.1296,9.102,9.0442,8.989,8.8935,8.7881,8.7002,8.645,8.6349,8.7027,8.7128,8.7454,8.8458,8.8634,8.8961,8.994,8.9764,8.9513,8.9613,8.9538,8.9613,9.004,8.9613,8.9613,9.0517,8.994,8.9613,9.009,9.0216,9.0291,9.0291,9.0291,9.0266,9.0116,9.0116,8.994,8.9463,8.9212,8.8885,8.8458,8.8785,8.8785,8.8484,8.9463,9.0015,4.5036,4.7931,5.0936,5.2233,5.4832,5.7148,5.7422,6.0145,6.2058,6.0778,6.1302,6.2513,6.4061,6.5644,6.7177,6.8549,7.1025,7.2842,7.3338,7.4562,7.5769,7.6297,7.6366,7.6366,7.6366,7.6366,7.6228,7.5999,7.6435,7.6733,7.6733,7.717,7.7606,7.7881,7.8111,7.9068,8.0493,8.0493,8.1374,8.3213,8.3213,8.3815,8.4565,8.5246,8.5597,8.592,8.6417,8.7273,8.8032,8.8283,8.8609,8.8885,8.9187,8.9287,8.9287,8.9287,8.9111,8.8885,8.9136,8.9287,8.9362,8.9865,9.0266,9.0542,9.0844,9.112,9.1446,9.1723,9.1547,9.1195,9.0668,8.9689,8.8634,8.778,8.6776,8.6249,8.7002,8.7178,8.7529,8.8634,8.886,8.9111,8.9965,9.0291,9.0392,9.0116,9.009,9.009,9.0116,8.9613,8.9513,9.009,8.9613,8.9538,9.004,8.9865,8.9839,9.009,8.9865,8.9839,9.0116,9.0116,8.9865,8.9287,8.9036,8.8885,8.886,8.8885,8.9036,8.9287,8.9865,9.0367,4.6645,4.9506,5.2506,5.5175,5.7755,5.9568,5.8684,6.18,6.4743,6.3846,6.4633,6.5768,6.6887,6.8785,7.0404,7.1183,7.3359,7.4897,7.5057,7.5838,7.6389,7.6504,7.6435,7.6366,7.6366,7.6366,7.6366,7.6366,7.6894,7.7238,7.7238,7.7744,7.8019,7.8019,7.8386,7.9064,8.0236,8.0236,8.0678,8.209,8.2369,8.2498,8.3026,8.4027,8.4768,8.5278,8.6236,8.7402,8.8634,8.9111,8.9287,8.9287,8.9287,8.9287,8.9287,8.9287,8.9287,8.9362,8.994,9.0191,9.0342,9.0919,9.112,9.1195,9.1195,9.1547,9.1949,9.1949,9.1949,9.1798,9.122,9.0342,8.9387,8.8785,8.7555,8.6751,8.7429,8.768,8.8032,8.8961,8.9212,8.9438,8.9865,9.0718,9.1195,9.0693,9.0668,9.0517,9.004,8.9538,8.9287,8.9287,8.9287,8.9463,8.994,8.9538,8.9463,8.994,8.9613,8.9613,9.009,9.0191,9.004,8.9588,8.9111,8.9036,8.9287,8.9036,8.9287,9.0116,9.0291,9.0869,4.4315,4.7687,5.2361,5.5955,5.8199,5.9495,6.0504,6.3759,6.6899,6.7999,6.7159,6.7088,6.9207,6.9958,7.1227,7.3765,7.4511,7.5126,7.6022,7.6297,7.6527,7.694,7.6642,7.6366,7.6366,7.6366,7.6366,7.6366,7.7238,7.7812,7.7812,7.8249,7.8524,7.8524,7.8593,7.8593,7.8829,7.8829,7.9534,8.0725,8.2338,8.2607,8.2187,8.2826,8.4225,8.6384,8.6974,8.7997,8.9187,8.9287,8.9287,8.9287,8.9287,8.9287,8.9287,8.9287,8.9287,8.9362,8.994,9.0442,9.0919,9.1471,9.1974,9.2325,9.2325,9.2401,9.2476,9.2476,9.2476,9.2325,9.1798,9.1195,9.0442,8.9438,8.9036,8.8609,8.778,8.8006,8.8383,8.8559,8.8961,8.9287,8.9362,8.9538,8.9613,8.9538,8.9513,8.9463,8.9387,8.9362,8.9287,8.9287,8.9287,8.9312,8.9387,8.9362,8.9312,8.9387,8.9789,9.004,9.0116,9.0593,9.0768,9.0693,9.0618,9.0191,8.9287,9.0191,9.0442,9.0116,9.112,9.0906,4.7455,5.0642,5.4356,5.7807,6.0423,6.2523,6.286,6.636,6.9347,6.9139,6.976,7.0714,7.1557,7.2275,7.3087,7.4465,7.5057,7.5493,7.6297,7.6366,7.6458,7.6664,7.6504,7.6228,7.5953,7.6435,7.6802,7.6802,7.7744,7.8318,7.8318,7.8478,7.8616,7.8616,7.8616,7.8616,7.8616,7.8616,7.899,7.9999,8.0984,8.1498,8.1486,8.1222,8.2467,8.4441,8.573,8.7156,8.833,8.903,8.9287,8.9287,8.9287,8.9287,8.9287,8.9287,8.9463,8.9839,9.0367,9.0944,9.1522,9.2049,9.2401,9.2576,9.2576,9.2576,9.2576,9.2576,9.2576,9.2501,9.23,9.1823,9.1296,9.0794,9.0693,9.0367,8.9262,8.8961,8.8935,8.8935,8.9111,8.9287,8.9287,8.9538,8.9639,8.9362,8.9538,8.9613,8.9312,8.9287,8.9287,8.9287,8.9287,8.9438,8.9714,8.9463,8.9438,8.9714,8.9689,8.994,9.0542,9.0794,9.1195,9.1873,9.1547,9.1195,9.0693,9.1471,9.1873,9.1949,9.2149,9.1827,5.0101,5.2599,5.4852,5.8633,6.1681,6.4023,6.5196,6.8043,7.0521,7.0369,7.1771,7.3243,7.3611,7.4024,7.446,7.4919,7.5333,7.5792,7.6458,7.6458,7.6435,7.6527,7.6435,7.6228,7.5792,7.6573,7.717,7.7307,7.8111,7.8616,7.8616,7.8616,7.8616,7.8616,7.8616,7.8616,7.8616,7.8754,7.9121,7.9787,8.0131,8.0568,8.1073,8.0568,8.0982,8.2533,8.4372,8.6088,8.7602,8.8797,8.9287,8.9287,8.9136,8.9136,8.9287,8.9136,8.9538,9.0191,9.0768,9.1296,9.1873,9.2401,9.2576,9.2576,9.2576,9.2576,9.2576,9.2576,9.2576,9.2576,9.2576,9.23,9.1974,9.1823,9.1898,9.1697,9.0542,8.9789,8.9287,8.9287,8.9187,8.9111,8.9287,8.9538,8.9613,8.9312,8.9613,8.9764,8.9362,8.9287,8.9287,8.9287,8.9287,8.9463,8.9865,8.9639,8.9613,8.9865,8.9789,9.0015,9.0693,9.102,9.1622,9.2576,9.2476,9.23,9.1974,9.2652,9.3129,9.338,9.2736,9.2086,4.9529,5.0473,5.1474,5.7062,5.9883,6.2253,6.6569,6.8603,7.0282,7.252,7.2922,7.3083,7.446,7.4759,7.4965,7.5425,7.5562,7.593,7.694,7.6664,7.6527,7.7009,7.6664,7.6366,7.632,7.6802,7.7307,7.7812,7.8318,7.8616,7.8616,7.8616,7.8616,7.8616,7.8616,7.8616,7.8616,7.9121,7.9856,8.0797,8.082,8.1096,8.1578,8.1073,8.0843,8.1109,8.3728,8.57,8.7602,8.8797,8.9287,8.9212,8.871,8.881,8.9212,8.871,8.9187,9.0191,9.0768,9.1296,9.1873,9.2401,9.2576,9.2576,9.2576,9.2576,9.2576,9.2576,9.2576,9.2576,9.2576,9.2576,9.2401,9.1898,9.2149,9.2225,9.112,9.004,8.9287,8.9287,8.886,8.8684,8.9212,8.8885,8.871,8.9212,8.9287,8.9312,8.9287,8.9287,8.9287,8.9287,8.9287,8.9287,8.9312,8.9789,8.9865,8.9362,9.0291,9.0618,9.0191,9.1195,9.1999,9.2576,9.3556,9.3556,9.2551,9.3631,9.3882,9.338,9.2135,9.0926,4.9928,5.2419,5.4931,5.867,6.2089,6.5132,6.7797,6.9516,7.097,7.2532,7.3243,7.3817,7.4667,7.4828,7.4988,7.5493,7.5585,7.5792,7.6527,7.6159,7.6067,7.6573,7.6159,7.5999,7.6366,7.6802,7.7307,7.7835,7.8318,7.8616,7.8616,7.8616,7.8616,7.8616,7.8616,7.8754,7.9121,7.9626,8.02,8.0866,8.1211,8.144,8.1624,8.1096,8.0866,8.1109,8.3158,8.4528,8.5191,8.7262,8.8207,8.8182,8.8006,8.8032,8.8207,8.8383,8.8961,8.9689,9.0191,9.0768,9.1271,9.1446,9.1522,9.1597,9.1974,9.1798,9.1697,9.2375,9.2325,9.2149,9.2476,9.2827,9.3053,9.2878,9.2451,9.1798,9.0618,8.9789,8.9187,8.881,8.8609,8.8534,8.871,8.8609,8.8634,8.9212,8.9287,8.9287,8.9287,8.9287,8.9438,8.9789,8.9513,8.9438,8.9789,8.9689,8.9513,8.9287,8.9689,9.0116,9.0618,9.102,9.1798,9.3078,9.348,9.3656,9.3631,9.4736,9.4342,9.2705,9.2557,9.1132,4.9824,5.2647,5.6063,5.9421,6.2746,6.5824,6.8765,7.0075,7.1039,7.2738,7.3611,7.4323,7.4965,7.5057,7.5195,7.5516,7.5585,7.5792,7.6297,7.593,7.5792,7.6297,7.5884,7.5792,7.6297,7.6802,7.7307,7.7835,7.8318,7.8616,7.8616,7.8616,7.8616,7.8616,7.8616,7.896,7.9626,7.9971,8.0476,8.1142,8.1486,8.1647,8.1624,8.1096,8.0797,8.0809,8.2187,8.3271,8.4118,8.6665,8.7605,8.7605,8.7605,8.7705,8.7931,8.8308,8.8935,8.9613,8.9965,9.0442,9.0944,9.0944,9.0944,9.102,9.1622,9.1371,9.117,9.225,9.2225,9.1974,9.2652,9.3129,9.333,9.3154,9.2451,9.1547,9.0593,8.994,8.9362,8.8609,8.8458,8.8534,8.871,8.8559,8.8634,8.9212,8.9287,8.9287,8.9287,8.9287,8.9513,9.004,8.9613,8.9538,9.004,8.9789,8.9463,8.9287,8.9613,9.009,9.0618,9.102,9.1898,9.338,9.3405,9.3656,9.4208,9.4987,9.4194,9.2259,9.2431,9.139,0.0,0.0,0.0,5.9272,6.1181,6.3611,6.9494,7.0167,7.035,7.345,7.4047,7.4391,7.5356,7.5585,7.5585,7.5585,7.5585,7.5792,7.6297,7.593,7.5792,7.6297,7.5884,7.5792,7.6297,7.6802,7.7307,7.7835,7.8318,7.8593,7.8616,7.8616,7.8616,7.8616,7.8616,7.9121,8.0131,8.0131,8.0637,8.1647,8.1647,8.1647,8.1624,8.1142,8.0637,8.0086,8.0794,8.221,8.4094,8.6386,8.758,8.7529,8.758,8.7931,8.8383,8.8458,8.9136,9.004,9.009,9.0442,9.0869,9.0869,9.0869,9.102,9.1547,9.1346,9.112,9.2225,9.2149,9.2049,9.3078,9.338,9.3229,9.2727,9.2225,9.1647,9.102,9.0517,8.9789,8.871,8.8458,8.8634,8.9187,8.881,8.8634,8.9212,8.9287,8.9287,8.9287,8.9287,8.9538,9.004,8.9613,8.9538,9.004,9.0116,8.9865,8.9362,9.0342,9.0693,9.0191,9.1246,9.23,9.338,9.338,9.3681,9.4208,9.4208,9.3447,9.2185,9.1669,9.152,5.1327,0.0,0.0,0.0,0.0,0.0,6.7049,6.8123,6.9294,7.2371,7.3014,7.3542,7.5264,7.5585,7.5585,7.5585,7.5884,7.609,7.5861,7.5999,7.6067,7.5792,7.5654,7.5792,7.6297,7.6504,7.694,7.7812,7.8019,7.8249,7.8593,7.8616,7.8616,7.8616,7.8983,7.9489,8.0131,8.0499,8.1004,8.1647,8.1647,8.1647,8.1647,8.1509,8.0935,8.0109,8.1405,8.2186,8.296,8.4312,8.5724,8.65,8.6851,8.7103,8.7354,8.8132,8.8634,8.8961,8.9362,8.9613,8.9764,8.9764,8.9764,8.9789,8.994,9.0141,9.0417,9.0693,9.0969,9.1446,9.2501,9.2802,9.2878,9.3129,9.2752,9.1974,9.0618,9.0517,9.0266,8.8785,8.8458,8.8534,8.8634,8.8559,8.8634,8.9212,8.9287,8.9287,8.9287,8.9613,8.994,9.009,8.9965,8.994,9.0116,8.9764,8.9613,8.9865,9.0191,9.0618,9.1296,9.1014,9.166,9.338,9.243,9.2504,9.3631,9.4033,9.3098,9.1055,9.1322,9.1367,0.0,0.0,5.8666,5.9265,0.0,0.0,6.7182,6.7894,6.8927,7.221,7.2876,7.3381,7.4965,7.5264,7.5333,7.5562,7.6022,7.6159,7.5654,7.5861,7.593,7.5631,7.5585,7.57,7.6022,7.6228,7.6596,7.7238,7.7675,7.8111,7.8593,7.8616,7.8616,7.8616,7.9121,7.9626,8.0131,8.0637,8.1142,8.1647,8.1647,8.1647,8.1647,8.1647,8.1211,8.0453,8.113,8.1715,8.1939,8.307,8.4595,8.6098,8.6851,8.7103,8.7278,8.8383,8.881,8.886,8.9187,8.9287,8.9262,8.9036,8.8961,8.8961,8.9212,8.9362,8.9538,9.0266,9.102,9.1773,9.2401,9.2752,9.2928,9.3053,9.2802,9.2149,9.0768,9.0693,9.0442,8.8785,8.8634,8.881,8.881,8.881,8.8885,8.9212,8.9463,8.9613,8.9613,8.994,9.0191,9.0442,9.004,8.9865,9.009,8.9789,8.9789,9.009,9.0542,9.0958,9.1354,9.161,9.2281,9.3322,9.2629,9.255,9.3053,9.338,9.3154,9.2501,9.1703,9.2855,0.0,0.0,0.0,6.137,6.2607,0.0,6.8192,6.8399,6.8789,7.2187,7.2945,7.3312,7.4391,7.4621,7.4759,7.5195,7.5723,7.5999,7.5631,7.5631,7.5654,7.5585,7.5585,7.5585,7.5585,7.5999,7.6297,7.6366,7.7238,7.8019,7.8524,7.8524,7.8547,7.8616,7.919,7.9695,8.0131,8.066,8.1211,8.1647,8.1647,8.1647,8.1647,8.1647,8.1371,8.0866,8.0866,8.1037,8.1292,8.2721,8.4255,8.5899,8.7153,8.7605,8.7755,8.886,8.9287,8.9287,8.9362,8.9362,8.9212,8.871,8.8534,8.8559,8.8961,8.886,8.8885,9.0517,9.1622,9.2401,9.2476,9.2903,9.3154,9.2626,9.2476,9.2149,9.1095,9.0844,9.0367,8.886,8.8961,8.9287,8.9287,8.9287,8.9287,8.9287,8.9714,9.0015,9.0015,9.009,9.0266,9.0693,8.994,8.9588,8.9831,8.9806,8.9856,8.9771,9.077,9.1088,9.0392,9.2256,9.3026,9.3021,9.3272,9.3204,9.2792,9.2817,9.3485,9.5329,9.3119,9.52,0.0,0.0,0.0,6.0295,6.2088,0.0,6.5621,6.6378,6.748,6.9776,7.0603,7.1338,7.2738,7.3312,7.3519,7.3243,7.3955,7.4782,7.5493,7.593,7.6067,7.5631,7.5585,7.5585,7.5585,7.5654,7.593,7.6366,7.694,7.7468,7.8019,7.8042,7.818,7.8593,7.9489,8.004,8.0131,8.105,8.1555,8.1647,8.1647,8.1647,8.1647,8.1647,8.1371,8.0866,8.0866,8.1245,8.188,8.3271,8.4112,8.4698,8.6699,8.7605,8.7755,8.886,8.9287,8.9362,8.9789,8.9689,8.9287,8.9136,8.881,8.8383,8.8032,8.8509,8.9362,9.0593,9.1095,9.1371,9.1823,9.2325,9.2576,9.2074,9.1974,9.1622,9.0517,9.0266,9.004,8.9287,8.9212,8.9287,8.9287,8.9287,8.9287,8.9287,8.9362,8.9463,8.9463,8.9839,8.9965,8.9639,8.9789,8.9521,8.8628,8.8257,8.8129,8.8174,8.8513,8.9022,8.9472,9.0712,9.2048,9.3021,9.3671,9.4233,9.4884,9.3246,9.3485,9.5355,9.624,9.832,5.871,6.0442,6.2287,6.2008,6.3276,0.0,0.0,6.6355,6.709,6.9111,6.9547,7.0029,7.1544,7.182,7.1981,7.2509,7.322,7.3817,7.4047,7.5195,7.5861,7.5585,7.5585,7.5585,7.5585,7.5585,7.5792,7.632,7.6596,7.694,7.7445,7.7744,7.8111,7.8593,7.9603,8.0269,8.0499,8.1279,8.1647,8.1647,8.1647,8.1647,8.1647,8.1647,8.1509,8.1234,8.1234,8.1686,8.242,8.3821,8.4657,8.5655,8.7648,8.8283,8.8207,8.9613,9.0116,9.0116,9.0442,9.0191,8.9639,8.9362,8.8885,8.8383,8.8132,8.8609,8.9538,9.0618,9.0944,9.112,9.1974,9.2149,9.2124,9.1873,9.1547,9.112,9.0291,9.0116,9.004,8.9764,8.9689,8.9613,8.9362,8.9538,8.9613,8.9362,8.9538,8.9689,8.9689,8.994,8.9881,8.915,8.9125,8.8752,8.759,8.7638,8.7858,8.8189,8.8501,8.9126,9.0161,9.1472,9.2372,9.3623,9.3838,9.4449,9.5821,9.4872,9.5614,9.8117,9.93,10.0825,6.1434,6.2814,6.3853,6.4059,6.4702,6.5552,0.0,0.0,0.0,6.8605,6.8789,6.9065,7.0396,7.0304,7.0465,7.1774,7.2417,7.2623,7.2325,7.384,7.5057,7.5126,7.5425,7.5585,7.5585,7.5654,7.5861,7.6205,7.6228,7.6435,7.694,7.7376,7.7904,7.8593,7.9489,8.0269,8.0866,8.1371,8.1647,8.1647,8.1647,8.1647,8.1647,8.1647,8.1647,8.1647,8.1647,8.1882,8.2674,8.4205,8.5603,8.6543,8.8414,8.9061,8.8961,9.0417,9.0944,9.0944,9.0944,9.0593,9.0015,8.9463,8.8885,8.8484,8.8609,8.9036,8.9689,9.0794,9.102,9.117,9.2149,9.2049,9.1622,9.1471,9.1195,9.0768,9.0216,9.0116,9.0116,9.0116,8.9881,8.9756,8.9513,8.9789,8.994,8.9362,8.9689,8.994,8.994,8.9881,8.9685,8.8818,8.8259,8.759,8.6911,8.7049,8.748,8.7853,8.8628,8.9321,9.0182,9.2048,9.3399,9.4208,9.3807,9.4741,9.7101,9.7101,9.8452,10.1248,10.1659,10.2806,6.1659,6.3071,6.4633,6.3807,6.4978,6.6057,6.4863,0.0,6.6608,6.6814,0.0,6.8284,6.895,0.0,0.0,6.9776,7.0304,7.0787,7.12,7.221,7.3083,7.3519,7.4759,7.5585,7.5585,7.5999,7.609,7.57,7.5654,7.5884,7.6435,7.6527,7.717,7.8547,7.919,7.9925,8.0866,8.1371,8.1647,8.1647,8.1647,8.1647,8.1647,8.1647,8.1647,8.1647,8.1647,8.1601,8.2067,8.4917,8.5832,8.5851,8.8305,8.9538,9.0015,9.0693,9.0944,9.0944,9.0944,9.0593,9.0015,8.9463,8.8885,8.8559,8.9036,8.9588,9.0266,9.1371,9.1346,9.1095,9.1723,9.1446,9.0919,9.0442,9.0618,9.0768,9.0216,9.0116,9.0116,9.0116,8.915,8.8653,8.9806,9.004,8.994,8.9362,8.9362,8.9362,8.9362,8.9274,8.8719,8.8301,8.7663,8.6691,8.6007,8.5653,8.5393,8.5093,8.6663,8.7704,8.7845,9.0768,9.2805,9.4208,9.4133,9.5784,9.9562,9.9562,10.0413,10.2453,10.2535,10.3193,6.0987,6.2455,6.4049,6.4347,6.5253,6.5919,6.5276,6.5391,6.5644,6.5644,0.0,0.0,0.0,0.0,0.0,0.0,6.8651,6.9042,6.9248,7.0924,7.2302,7.2807,7.345,7.4047,7.469,7.5195,7.5631,7.5999,7.5493,7.5493,7.6297,7.6366,7.694,7.818,7.8983,7.9856,8.0866,8.1371,8.1647,8.1647,8.1647,8.1647,8.1647,8.1647,8.1647,8.1647,8.1647,8.2136,8.2891,8.4575,8.6047,8.761,8.9147,8.9959,9.0693,9.1547,9.1873,9.1873,9.1547,9.1045,9.0442,8.9563,8.9136,8.8961,8.9212,8.9689,9.0191,9.0693,9.0869,9.102,9.122,9.0869,9.0467,9.0593,9.0517,9.0467,9.0593,9.0593,9.0382,8.9597,8.9394,8.9014,8.848,8.8613,8.8716,8.8195,8.8121,8.7961,8.7548,8.7565,8.7568,8.6911,8.6677,8.636,8.5296,8.4906,8.4954,8.5481,8.8321,9.0047,9.0047,9.2476,9.4192,9.4736,9.558,9.7432,10.0355,10.155,10.2908,10.4784,10.4784,10.4564,6.1904,6.339,6.4885,6.4884,6.4998,6.5294,6.5414,6.4884,6.4664,6.5194,6.5827,0.0,0.0,0.0,6.6309,0.0,0.0,6.7641,6.7779,6.9271,7.0649,7.1452,7.2026,7.2738,7.3588,7.4116,7.4759,7.57,7.5057,7.5057,7.609,7.6159,7.6596,7.7652,7.8547,7.9557,8.066,8.1165,8.1509,8.1647,8.1647,8.1647,8.1647,8.1647,8.1647,8.1647,8.1647,8.2136,8.3158,8.3544,8.5434,8.8076,8.8757,8.9776,9.097,9.206,9.2576,9.2476,9.1798,9.1095,9.0342,8.9538,8.9287,8.9312,8.9463,8.9789,9.0116,9.0291,9.0517,9.0718,9.042,9.0021,8.9535,8.9821,8.9533,8.9697,8.9856,8.993,8.9691,8.8754,8.8561,8.8052,8.7082,8.7446,8.7776,8.7433,8.7213,8.6763,8.6168,8.6475,8.6558,8.5641,8.5979,8.5715,8.4838,8.4861,8.5576,8.7341,8.9982,9.1618,9.238,9.4045,9.4911,9.5087,9.6129,9.8061,10.0994,10.2403,10.4199,10.6383,10.6383,10.54,6.5107,6.6796,6.81,6.5644,6.4185,6.3678,6.413,6.3847,6.4058,6.5979,6.6883,6.7389,6.7848,0.0,0.0,0.0,0.0,0.0,0.0,6.6952,6.7251,6.8743,7.0626,7.2026,7.2578,7.3083,7.3588,7.4116,7.4162,7.4552,7.5562,7.5585,7.6067,7.7078,7.7675,7.8662,8.0131,8.066,8.1142,8.1647,8.1647,8.1647,8.1647,8.1647,8.1647,8.1647,8.1647,8.1647,8.1716,8.1888,8.3297,8.5441,8.6762,8.8724,9.0831,9.2094,9.2576,9.2401,9.1346,9.0266,8.9362,8.9287,8.9287,8.9387,8.994,9.0116,9.0216,9.0768,9.0517,9.0006,8.932,8.8596,8.8063,8.718,8.7467,8.7804,8.7852,8.7852,8.7852,8.7828,8.6011,8.5001,8.6719,8.7034,8.6986,8.7034,8.6577,8.6192,8.6241,8.6359,8.6205,8.5265,8.4836,8.4884,8.5366,8.5412,8.6853,9.0652,9.0521,9.1511,9.4038,9.4259,9.4485,9.5087,9.5037,9.723,10.1634,10.158,10.3222,10.6383,10.6383,10.54,6.6728,6.8221,6.8964,6.785,6.7234,6.6712,6.5644,6.5386,6.5506,6.5423,6.6723,6.7411,0.0,0.0,0.0,0.0,0.0,0.0,0.0,6.4281,6.5357,6.7896,7.0075,7.1498,7.2004,7.3152,7.4185,7.4988,7.5057,7.5493,7.6527,7.6297,7.6251,7.6596,7.7445,7.8455,7.9626,8.0131,8.0797,8.1647,8.1647,8.1647,8.1647,8.1647,8.1647,8.1647,8.2014,8.1365,8.0188,8.0832,8.1212,8.1764,8.3965,8.4908,8.5664,9.0757,9.1869,9.0407,8.706,8.7433,8.8822,8.5613,8.6137,8.7911,8.714,8.7409,8.7727,8.7683,8.7854,8.8025,8.7737,8.7423,8.7423,8.7443,8.7708,8.7948,8.8261,8.8357,8.8014,8.6691,8.6101,8.5487,8.4724,8.4406,8.4854,8.5616,8.5411,8.4828,8.4794,8.4553,8.4442,8.4419,8.4517,8.4586,8.4425,8.5366,8.6991,8.947,9.0661,9.2029,9.3769,9.4817,9.5414,9.564,9.6826,9.8807,10.1634,10.2816,10.4409,10.6383,10.6383,10.54,6.7888,6.9307,6.9776,6.904,6.8375,6.7713,6.6476,6.6413,6.6552,6.6522,6.7366,6.7894,6.7503,0.0,0.0,0.0,0.0,0.0,0.0,6.3564,6.4771,6.7117,6.8812,7.019,7.1407,7.1774,7.2945,7.5356,7.4919,7.5264,7.7009,7.6802,7.6642,7.6642,7.7238,7.8019,7.8846,7.9535,8.0269,8.1119,8.1486,8.1647,8.1647,8.1647,8.1647,8.1647,8.2014,8.0959,7.9111,7.9373,7.9038,7.8932,8.0661,8.1222,8.2071,8.7671,8.8805,8.7106,8.4174,8.5304,8.7367,8.4418,8.4945,8.6447,8.5709,8.5711,8.5976,8.5952,8.6337,8.6551,8.6303,8.647,8.6463,8.6786,8.6633,8.6727,8.7034,8.7129,8.6785,8.5705,8.5501,8.518,8.3803,8.3323,8.3435,8.4383,8.394,8.367,8.353,8.3553,8.3553,8.3897,8.4218,8.4425,8.4425,8.5665,8.7149,8.9238,9.0319,9.1539,9.3072,9.3857,9.4263,9.409,9.5466,9.7614,10.0548,10.2425,10.4192,10.6692,10.6692,10.5682]}]]